<?xml version="1.0" encoding="UTF-8" standalone="no" ?>
<gpx xmlns="http://www.topografix.com/GPX/1/1" xmlns:xsi="http://www.w3.org/2001/XMLSchema-instance" xsi:schemaLocation="http://www.topografix.com/GPX/1/1 http://www.topografix.com/GPX/1/1/gpx.xsd" version="1.1" creator="VisuGPX - https://www.visugpx.com">
  <metadata>
    <name>qcc 01-05-26 gr2</name>
  </metadata>
  <trk>
    <name><![CDATA[qcc 01-05-24 gr2_1]]></name>
    <extensions>
      <line xmlns="http://www.topografix.com/GPX/gpx_style/0/2">
        <color>0000FF</color>
        <opacity>1</opacity>
        <width>4</width>
      </line>
    </extensions>
    <trkseg>
      <trkpt lat="48.00704" lon="-4.11584">
        <ele>6</ele>
        <time>2024-04-10T16:50:47.000Z</time>
      </trkpt>
      <trkpt lat="48.00704" lon="-4.11583">
        <ele>6</ele>
        <time>2024-04-10T16:50:47.110Z</time>
      </trkpt>
      <trkpt lat="48.00708" lon="-4.11582">
        <ele>6</ele>
        <time>2024-04-10T16:50:47.768Z</time>
      </trkpt>
      <trkpt lat="48.0071" lon="-4.11595">
        <ele>6.4</ele>
        <time>2024-04-10T16:50:50.133Z</time>
      </trkpt>
      <trkpt lat="48.00698" lon="-4.11599">
        <ele>6.6</ele>
        <time>2024-04-10T16:50:52.479Z</time>
      </trkpt>
      <trkpt lat="48.00683" lon="-4.11606">
        <ele>6.5</ele>
        <time>2024-04-10T16:50:54.880Z</time>
      </trkpt>
      <trkpt lat="48.00657" lon="-4.11625">
        <ele>6.3</ele>
        <time>2024-04-10T16:50:59.281Z</time>
      </trkpt>
      <trkpt lat="48.00649" lon="-4.11631">
        <ele>6.3</ele>
        <time>2024-04-10T16:51:00.732Z</time>
      </trkpt>
      <trkpt lat="48.00643" lon="-4.11635">
        <ele>6.1</ele>
        <time>2024-04-10T16:51:01.552Z</time>
      </trkpt>
      <trkpt lat="48.00638" lon="-4.11642">
        <ele>6</ele>
        <time>2024-04-10T16:51:02.525Z</time>
      </trkpt>
      <trkpt lat="48.00633" lon="-4.11645">
        <ele>6</ele>
        <time>2024-04-10T16:51:03.399Z</time>
      </trkpt>
      <trkpt lat="48.00626" lon="-4.11648">
        <ele>6.2</ele>
        <time>2024-04-10T16:51:04.969Z</time>
      </trkpt>
      <trkpt lat="48.00619" lon="-4.11646">
        <ele>6.2</ele>
        <time>2024-04-10T16:51:06.125Z</time>
      </trkpt>
      <trkpt lat="48.00613" lon="-4.11648">
        <ele>6.3</ele>
        <time>2024-04-10T16:51:07.298Z</time>
      </trkpt>
      <trkpt lat="48.00596" lon="-4.11658">
        <ele>6.3</ele>
        <time>2024-04-10T16:51:10.260Z</time>
      </trkpt>
      <trkpt lat="48.00537" lon="-4.117">
        <ele>6.5</ele>
        <time>2024-04-10T16:51:21.173Z</time>
      </trkpt>
      <trkpt lat="48.00511" lon="-4.11712">
        <ele>6.6</ele>
        <time>2024-04-10T16:51:25.744Z</time>
      </trkpt>
      <trkpt lat="48.00484" lon="-4.11719">
        <ele>7.5</ele>
        <time>2024-04-10T16:51:32.030Z</time>
      </trkpt>
      <trkpt lat="48.00478" lon="-4.11721">
        <ele>7.7</ele>
        <time>2024-04-10T16:51:33.436Z</time>
      </trkpt>
      <trkpt lat="48.00469" lon="-4.11731">
        <ele>8</ele>
        <time>2024-04-10T16:51:35.835Z</time>
      </trkpt>
      <trkpt lat="48.00459" lon="-4.11758">
        <ele>9.1</ele>
        <time>2024-04-10T16:51:41.926Z</time>
      </trkpt>
      <trkpt lat="48.00423" lon="-4.11729">
        <ele>8.2</ele>
        <time>2024-04-10T16:51:47.383Z</time>
      </trkpt>
      <trkpt lat="48.00419" lon="-4.11734">
        <ele>8.4</ele>
        <time>2024-04-10T16:51:48.660Z</time>
      </trkpt>
      <trkpt lat="48.00416" lon="-4.11732">
        <ele>8.4</ele>
        <time>2024-04-10T16:51:49.193Z</time>
      </trkpt>
      <trkpt lat="48.00415" lon="-4.11728">
        <ele>8.2</ele>
        <time>2024-04-10T16:51:49.471Z</time>
      </trkpt>
      <trkpt lat="48.00393" lon="-4.1169">
        <ele>7</ele>
        <time>2024-04-10T16:51:53.501Z</time>
      </trkpt>
      <trkpt lat="48.00384" lon="-4.11673">
        <ele>7</ele>
        <time>2024-04-10T16:51:55.853Z</time>
      </trkpt>
      <trkpt lat="48.00362" lon="-4.11617">
        <ele>6</ele>
        <time>2024-04-10T16:52:01.603Z</time>
      </trkpt>
      <trkpt lat="48.00361" lon="-4.11614">
        <ele>6</ele>
        <time>2024-04-10T16:52:01.967Z</time>
      </trkpt>
      <trkpt lat="48.00357" lon="-4.11609">
        <ele>6</ele>
        <time>2024-04-10T16:52:02.812Z</time>
      </trkpt>
      <trkpt lat="48.00351" lon="-4.11597">
        <ele>6</ele>
        <time>2024-04-10T16:52:04.438Z</time>
      </trkpt>
      <trkpt lat="48.00346" lon="-4.11582">
        <ele>6</ele>
        <time>2024-04-10T16:52:06.256Z</time>
      </trkpt>
      <trkpt lat="48.00343" lon="-4.11572">
        <ele>5.9</ele>
        <time>2024-04-10T16:52:07.306Z</time>
      </trkpt>
      <trkpt lat="48.00343" lon="-4.1157">
        <ele>5.8</ele>
        <time>2024-04-10T16:52:07.436Z</time>
      </trkpt>
      <trkpt lat="48.00304" lon="-4.11477">
        <ele>5</ele>
        <time>2024-04-10T16:52:18.211Z</time>
      </trkpt>
      <trkpt lat="48.003" lon="-4.1147">
        <ele>4.9</ele>
        <time>2024-04-10T16:52:19.073Z</time>
      </trkpt>
      <trkpt lat="48.00268" lon="-4.11444">
        <ele>5</ele>
        <time>2024-04-10T16:52:25.137Z</time>
      </trkpt>
      <trkpt lat="48.00252" lon="-4.11432">
        <ele>5</ele>
        <time>2024-04-10T16:52:28.039Z</time>
      </trkpt>
      <trkpt lat="48.00244" lon="-4.11423">
        <ele>5.2</ele>
        <time>2024-04-10T16:52:30.028Z</time>
      </trkpt>
      <trkpt lat="48.00234" lon="-4.11417">
        <ele>5.6</ele>
        <time>2024-04-10T16:52:32.628Z</time>
      </trkpt>
      <trkpt lat="48.0023" lon="-4.11419">
        <ele>5.7</ele>
        <time>2024-04-10T16:52:33.500Z</time>
      </trkpt>
      <trkpt lat="48.00225" lon="-4.11417">
        <ele>5.9</ele>
        <time>2024-04-10T16:52:34.772Z</time>
      </trkpt>
      <trkpt lat="48.00222" lon="-4.11414">
        <ele>6</ele>
        <time>2024-04-10T16:52:35.552Z</time>
      </trkpt>
      <trkpt lat="48.0022" lon="-4.11407">
        <ele>6</ele>
        <time>2024-04-10T16:52:36.378Z</time>
      </trkpt>
      <trkpt lat="48.00201" lon="-4.11391">
        <ele>6</ele>
        <time>2024-04-10T16:52:39.914Z</time>
      </trkpt>
      <trkpt lat="48.00196" lon="-4.11386">
        <ele>6.1</ele>
        <time>2024-04-10T16:52:41.067Z</time>
      </trkpt>
      <trkpt lat="48.0019" lon="-4.1138">
        <ele>6.6</ele>
        <time>2024-04-10T16:52:43.700Z</time>
      </trkpt>
      <trkpt lat="48.00156" lon="-4.11352">
        <ele>10</ele>
        <time>2024-04-10T16:53:01.854Z</time>
      </trkpt>
      <trkpt lat="48.00136" lon="-4.11337">
        <ele>11.4</ele>
        <time>2024-04-10T16:53:09.313Z</time>
      </trkpt>
      <trkpt lat="48.00103" lon="-4.1131">
        <ele>13.7</ele>
        <time>2024-04-10T16:53:21.616Z</time>
      </trkpt>
      <trkpt lat="48.00095" lon="-4.11303">
        <ele>14.2</ele>
        <time>2024-04-10T16:53:24.374Z</time>
      </trkpt>
      <trkpt lat="48.00084" lon="-4.11294">
        <ele>15</ele>
        <time>2024-04-10T16:53:28.624Z</time>
      </trkpt>
      <trkpt lat="48.00056" lon="-4.11273">
        <ele>17.1</ele>
        <time>2024-04-10T16:53:39.712Z</time>
      </trkpt>
      <trkpt lat="48.00047" lon="-4.11264">
        <ele>18.3</ele>
        <time>2024-04-10T16:53:46.374Z</time>
      </trkpt>
      <trkpt lat="48.00013" lon="-4.11239">
        <ele>21.6</ele>
        <time>2024-04-10T16:54:03.978Z</time>
      </trkpt>
      <trkpt lat="48.00012" lon="-4.11225">
        <ele>21.7</ele>
        <time>2024-04-10T16:54:05.674Z</time>
      </trkpt>
      <trkpt lat="48.00007" lon="-4.11199">
        <ele>21.8</ele>
        <time>2024-04-10T16:54:08.770Z</time>
      </trkpt>
      <trkpt lat="47.99997" lon="-4.11171">
        <ele>20.4</ele>
        <time>2024-04-10T16:54:10.846Z</time>
      </trkpt>
      <trkpt lat="47.99983" lon="-4.1115">
        <ele>19.6</ele>
        <time>2024-04-10T16:54:13.144Z</time>
      </trkpt>
      <trkpt lat="47.99955" lon="-4.11125">
        <ele>18.7</ele>
        <time>2024-04-10T16:54:17.305Z</time>
      </trkpt>
      <trkpt lat="47.9994" lon="-4.11112">
        <ele>18</ele>
        <time>2024-04-10T16:54:19.313Z</time>
      </trkpt>
      <trkpt lat="47.99846" lon="-4.11031">
        <ele>12.6</ele>
        <time>2024-04-10T16:54:31.077Z</time>
      </trkpt>
      <trkpt lat="47.99789" lon="-4.10983">
        <ele>10.2</ele>
        <time>2024-04-10T16:54:38.861Z</time>
      </trkpt>
      <trkpt lat="47.99745" lon="-4.10945">
        <ele>8.8</ele>
        <time>2024-04-10T16:54:45.347Z</time>
      </trkpt>
      <trkpt lat="47.99726" lon="-4.10929">
        <ele>7.5</ele>
        <time>2024-04-10T16:54:47.563Z</time>
      </trkpt>
      <trkpt lat="47.99706" lon="-4.10912">
        <ele>7</ele>
        <time>2024-04-10T16:54:50.641Z</time>
      </trkpt>
      <trkpt lat="47.99647" lon="-4.10861">
        <ele>6.3</ele>
        <time>2024-04-10T16:55:00.697Z</time>
      </trkpt>
      <trkpt lat="47.99626" lon="-4.10853">
        <ele>6</ele>
        <time>2024-04-10T16:55:03.795Z</time>
      </trkpt>
      <trkpt lat="47.99607" lon="-4.10847">
        <ele>6</ele>
        <time>2024-04-10T16:55:06.944Z</time>
      </trkpt>
      <trkpt lat="47.99572" lon="-4.10836">
        <ele>5.6</ele>
        <time>2024-04-10T16:55:12.178Z</time>
      </trkpt>
      <trkpt lat="47.9954" lon="-4.10826">
        <ele>5</ele>
        <time>2024-04-10T16:55:16.675Z</time>
      </trkpt>
      <trkpt lat="47.99507" lon="-4.10815">
        <ele>5</ele>
        <time>2024-04-10T16:55:22.157Z</time>
      </trkpt>
      <trkpt lat="47.9949" lon="-4.10807">
        <ele>5</ele>
        <time>2024-04-10T16:55:25.047Z</time>
      </trkpt>
      <trkpt lat="47.9947" lon="-4.10793">
        <ele>4.5</ele>
        <time>2024-04-10T16:55:27.979Z</time>
      </trkpt>
      <trkpt lat="47.99441" lon="-4.10764">
        <ele>4</ele>
        <time>2024-04-10T16:55:32.947Z</time>
      </trkpt>
      <trkpt lat="47.9943" lon="-4.10752">
        <ele>4</ele>
        <time>2024-04-10T16:55:35.156Z</time>
      </trkpt>
      <trkpt lat="47.99405" lon="-4.10723">
        <ele>4</ele>
        <time>2024-04-10T16:55:40.287Z</time>
      </trkpt>
      <trkpt lat="47.99398" lon="-4.10715">
        <ele>4</ele>
        <time>2024-04-10T16:55:41.716Z</time>
      </trkpt>
      <trkpt lat="47.99391" lon="-4.10704">
        <ele>4</ele>
        <time>2024-04-10T16:55:43.363Z</time>
      </trkpt>
      <trkpt lat="47.99371" lon="-4.10661">
        <ele>3.5</ele>
        <time>2024-04-10T16:55:48.355Z</time>
      </trkpt>
      <trkpt lat="47.99367" lon="-4.10649">
        <ele>3.7</ele>
        <time>2024-04-10T16:55:50.182Z</time>
      </trkpt>
      <trkpt lat="47.99365" lon="-4.10644">
        <ele>3.8</ele>
        <time>2024-04-10T16:55:51.006Z</time>
      </trkpt>
      <trkpt lat="47.99363" lon="-4.1064">
        <ele>4</ele>
        <time>2024-04-10T16:55:52.080Z</time>
      </trkpt>
      <trkpt lat="47.99362" lon="-4.10637">
        <ele>4</ele>
        <time>2024-04-10T16:55:52.444Z</time>
      </trkpt>
      <trkpt lat="47.99351" lon="-4.10607">
        <ele>4.1</ele>
        <time>2024-04-10T16:55:56.316Z</time>
      </trkpt>
      <trkpt lat="47.99348" lon="-4.10591">
        <ele>4.3</ele>
        <time>2024-04-10T16:55:58.477Z</time>
      </trkpt>
      <trkpt lat="47.99348" lon="-4.10582">
        <ele>4.5</ele>
        <time>2024-04-10T16:55:59.865Z</time>
      </trkpt>
      <trkpt lat="47.99352" lon="-4.10566">
        <ele>4.3</ele>
        <time>2024-04-10T16:56:01.448Z</time>
      </trkpt>
      <trkpt lat="47.99361" lon="-4.1056">
        <ele>4</ele>
        <time>2024-04-10T16:56:02.678Z</time>
      </trkpt>
      <trkpt lat="47.99367" lon="-4.10556">
        <ele>4</ele>
        <time>2024-04-10T16:56:03.743Z</time>
      </trkpt>
      <trkpt lat="47.99378" lon="-4.10547">
        <ele>4.1</ele>
        <time>2024-04-10T16:56:05.941Z</time>
      </trkpt>
      <trkpt lat="47.99388" lon="-4.10534">
        <ele>4</ele>
        <time>2024-04-10T16:56:07.945Z</time>
      </trkpt>
      <trkpt lat="47.9939" lon="-4.10529">
        <ele>3.9</ele>
        <time>2024-04-10T16:56:08.450Z</time>
      </trkpt>
      <trkpt lat="47.99399" lon="-4.10507">
        <ele>3.5</ele>
        <time>2024-04-10T16:56:10.731Z</time>
      </trkpt>
      <trkpt lat="47.99422" lon="-4.1043">
        <ele>4.7</ele>
        <time>2024-04-10T16:56:22.093Z</time>
      </trkpt>
      <trkpt lat="47.99425" lon="-4.1042">
        <ele>4.7</ele>
        <time>2024-04-10T16:56:23.283Z</time>
      </trkpt>
      <trkpt lat="47.9945" lon="-4.10342">
        <ele>4.3</ele>
        <time>2024-04-10T16:56:32.083Z</time>
      </trkpt>
      <trkpt lat="47.99461" lon="-4.10266">
        <ele>3.2</ele>
        <time>2024-04-10T16:56:39.077Z</time>
      </trkpt>
      <trkpt lat="47.99462" lon="-4.1026">
        <ele>3</ele>
        <time>2024-04-10T16:56:39.530Z</time>
      </trkpt>
      <trkpt lat="47.99462" lon="-4.10254">
        <ele>2.8</ele>
        <time>2024-04-10T16:56:39.965Z</time>
      </trkpt>
      <trkpt lat="47.99468" lon="-4.10188">
        <ele>4</ele>
        <time>2024-04-10T16:56:49.520Z</time>
      </trkpt>
      <trkpt lat="47.9947" lon="-4.10171">
        <ele>4</ele>
        <time>2024-04-10T16:56:51.393Z</time>
      </trkpt>
      <trkpt lat="47.99473" lon="-4.10139">
        <ele>4.9</ele>
        <time>2024-04-10T16:56:56.902Z</time>
      </trkpt>
      <trkpt lat="47.99476" lon="-4.10118">
        <ele>4.7</ele>
        <time>2024-04-10T16:56:58.955Z</time>
      </trkpt>
      <trkpt lat="47.99481" lon="-4.10089">
        <ele>4.4</ele>
        <time>2024-04-10T16:57:01.792Z</time>
      </trkpt>
      <trkpt lat="47.9949" lon="-4.10015">
        <ele>4</ele>
        <time>2024-04-10T16:57:09.374Z</time>
      </trkpt>
      <trkpt lat="47.99492" lon="-4.09991">
        <ele>4.2</ele>
        <time>2024-04-10T16:57:12.340Z</time>
      </trkpt>
      <trkpt lat="47.9949" lon="-4.09981">
        <ele>4.1</ele>
        <time>2024-04-10T16:57:13.334Z</time>
      </trkpt>
      <trkpt lat="47.9949" lon="-4.09959">
        <ele>4.5</ele>
        <time>2024-04-10T16:57:16.499Z</time>
      </trkpt>
      <trkpt lat="47.99492" lon="-4.09936">
        <ele>4.9</ele>
        <time>2024-04-10T16:57:19.784Z</time>
      </trkpt>
      <trkpt lat="47.99495" lon="-4.099">
        <ele>4.3</ele>
        <time>2024-04-10T16:57:22.953Z</time>
      </trkpt>
      <trkpt lat="47.99497" lon="-4.09883">
        <ele>4.2</ele>
        <time>2024-04-10T16:57:24.682Z</time>
      </trkpt>
      <trkpt lat="47.99501" lon="-4.09843">
        <ele>4.9</ele>
        <time>2024-04-10T16:57:30.415Z</time>
      </trkpt>
      <trkpt lat="47.99503" lon="-4.09822">
        <ele>4.7</ele>
        <time>2024-04-10T16:57:32.440Z</time>
      </trkpt>
      <trkpt lat="47.99504" lon="-4.09809">
        <ele>4.7</ele>
        <time>2024-04-10T16:57:33.860Z</time>
      </trkpt>
      <trkpt lat="47.99506" lon="-4.09789">
        <ele>4.6</ele>
        <time>2024-04-10T16:57:35.909Z</time>
      </trkpt>
      <trkpt lat="47.99509" lon="-4.09759">
        <ele>4.1</ele>
        <time>2024-04-10T16:57:38.560Z</time>
      </trkpt>
      <trkpt lat="47.99513" lon="-4.09716">
        <ele>3.8</ele>
        <time>2024-04-10T16:57:42.844Z</time>
      </trkpt>
      <trkpt lat="47.99517" lon="-4.09675">
        <ele>4.8</ele>
        <time>2024-04-10T16:57:49.451Z</time>
      </trkpt>
      <trkpt lat="47.99513" lon="-4.09663">
        <ele>4.9</ele>
        <time>2024-04-10T16:57:51.075Z</time>
      </trkpt>
      <trkpt lat="47.99525" lon="-4.09668">
        <ele>5</ele>
        <time>2024-04-10T16:57:53.259Z</time>
      </trkpt>
      <trkpt lat="47.99529" lon="-4.0967">
        <ele>4.9</ele>
        <time>2024-04-10T16:57:53.814Z</time>
      </trkpt>
      <trkpt lat="47.99545" lon="-4.09676">
        <ele>4.9</ele>
        <time>2024-04-10T16:57:56.489Z</time>
      </trkpt>
      <trkpt lat="47.99552" lon="-4.0968">
        <ele>4.9</ele>
        <time>2024-04-10T16:57:57.704Z</time>
      </trkpt>
      <trkpt lat="47.99559" lon="-4.09686">
        <ele>5</ele>
        <time>2024-04-10T16:57:59.183Z</time>
      </trkpt>
      <trkpt lat="47.99598" lon="-4.09705">
        <ele>5.5</ele>
        <time>2024-04-10T16:58:06.687Z</time>
      </trkpt>
      <trkpt lat="47.99605" lon="-4.09706">
        <ele>5.8</ele>
        <time>2024-04-10T16:58:08.502Z</time>
      </trkpt>
      <trkpt lat="47.99607" lon="-4.097">
        <ele>5.9</ele>
        <time>2024-04-10T16:58:09.415Z</time>
      </trkpt>
      <trkpt lat="47.99612" lon="-4.09677">
        <ele>6.2</ele>
        <time>2024-04-10T16:58:12.579Z</time>
      </trkpt>
      <trkpt lat="47.99616" lon="-4.09625">
        <ele>8.2</ele>
        <time>2024-04-10T16:58:23.439Z</time>
      </trkpt>
      <trkpt lat="47.99616" lon="-4.09623">
        <ele>8.2</ele>
        <time>2024-04-10T16:58:23.656Z</time>
      </trkpt>
      <trkpt lat="47.99618" lon="-4.09587">
        <ele>9.6</ele>
        <time>2024-04-10T16:58:31.232Z</time>
      </trkpt>
      <trkpt lat="47.99618" lon="-4.09554">
        <ele>9.2</ele>
        <time>2024-04-10T16:58:34.276Z</time>
      </trkpt>
      <trkpt lat="47.99603" lon="-4.0937">
        <ele>6.5</ele>
        <time>2024-04-10T16:58:50.861Z</time>
      </trkpt>
      <trkpt lat="47.99598" lon="-4.09306">
        <ele>6.7</ele>
        <time>2024-04-10T16:58:58.173Z</time>
      </trkpt>
      <trkpt lat="47.99589" lon="-4.09138">
        <ele>6.6</ele>
        <time>2024-04-10T16:59:16.307Z</time>
      </trkpt>
      <trkpt lat="47.99591" lon="-4.09005">
        <ele>6.6</ele>
        <time>2024-04-10T16:59:30.741Z</time>
      </trkpt>
      <trkpt lat="47.99588" lon="-4.08912">
        <ele>6</ele>
        <time>2024-04-10T16:59:39.986Z</time>
      </trkpt>
      <trkpt lat="47.99585" lon="-4.08885">
        <ele>4.8</ele>
        <time>2024-04-10T16:59:41.781Z</time>
      </trkpt>
      <trkpt lat="47.99576" lon="-4.08854">
        <ele>4.7</ele>
        <time>2024-04-10T16:59:45.299Z</time>
      </trkpt>
      <trkpt lat="47.99559" lon="-4.08821">
        <ele>4.5</ele>
        <time>2024-04-10T16:59:49.526Z</time>
      </trkpt>
      <trkpt lat="47.99549" lon="-4.08787">
        <ele>4.8</ele>
        <time>2024-04-10T16:59:54.067Z</time>
      </trkpt>
      <trkpt lat="47.9955" lon="-4.08733">
        <ele>5</ele>
        <time>2024-04-10T17:00:00.251Z</time>
      </trkpt>
      <trkpt lat="47.99549" lon="-4.08691">
        <ele>5.2</ele>
        <time>2024-04-10T17:00:05.137Z</time>
      </trkpt>
      <trkpt lat="47.99543" lon="-4.08615">
        <ele>5.5</ele>
        <time>2024-04-10T17:00:13.926Z</time>
      </trkpt>
      <trkpt lat="47.99545" lon="-4.08548">
        <ele>5.5</ele>
        <time>2024-04-10T17:00:21.203Z</time>
      </trkpt>
      <trkpt lat="47.99547" lon="-4.08521">
        <ele>5.8</ele>
        <time>2024-04-10T17:00:24.681Z</time>
      </trkpt>
      <trkpt lat="47.99546" lon="-4.08515">
        <ele>5.7</ele>
        <time>2024-04-10T17:00:25.224Z</time>
      </trkpt>
      <trkpt lat="47.99546" lon="-4.08497">
        <ele>5.3</ele>
        <time>2024-04-10T17:00:26.695Z</time>
      </trkpt>
      <trkpt lat="47.9955" lon="-4.08457">
        <ele>5.6</ele>
        <time>2024-04-10T17:00:31.590Z</time>
      </trkpt>
      <trkpt lat="47.99551" lon="-4.08432">
        <ele>6</ele>
        <time>2024-04-10T17:00:35.062Z</time>
      </trkpt>
      <trkpt lat="47.9955" lon="-4.08416">
        <ele>6</ele>
        <time>2024-04-10T17:00:36.806Z</time>
      </trkpt>
      <trkpt lat="47.99554" lon="-4.08379">
        <ele>6</ele>
        <time>2024-04-10T17:00:40.873Z</time>
      </trkpt>
      <trkpt lat="47.99558" lon="-4.08364">
        <ele>6</ele>
        <time>2024-04-10T17:00:42.625Z</time>
      </trkpt>
      <trkpt lat="47.99567" lon="-4.08321">
        <ele>6</ele>
        <time>2024-04-10T17:00:47.513Z</time>
      </trkpt>
      <trkpt lat="47.99587" lon="-4.08262">
        <ele>6.1</ele>
        <time>2024-04-10T17:00:54.847Z</time>
      </trkpt>
      <trkpt lat="47.99591" lon="-4.08247">
        <ele>6</ele>
        <time>2024-04-10T17:00:56.455Z</time>
      </trkpt>
      <trkpt lat="47.99591" lon="-4.08244">
        <ele>6.1</ele>
        <time>2024-04-10T17:00:57.022Z</time>
        <extensions>
          <visugpx:TrkExtension xmlns:visugpx="https://www.visugpx.com/editgpx/">
            <visugpx:node>1</visugpx:node>
            </visugpx:TrkExtension>
        </extensions>
      </trkpt>
      <trkpt lat="47.99592" lon="-4.08238">
        <ele>6.1</ele>
        <time>2024-04-10T17:00:57.693Z</time>
      </trkpt>
      <trkpt lat="47.99592" lon="-4.0823">
        <ele>6.2</ele>
        <time>2024-04-10T17:00:58.741Z</time>
      </trkpt>
      <trkpt lat="47.99595" lon="-4.08224">
        <ele>6.4</ele>
        <time>2024-04-10T17:00:59.992Z</time>
      </trkpt>
      <trkpt lat="47.99596" lon="-4.08217">
        <ele>6.5</ele>
        <time>2024-04-10T17:01:00.952Z</time>
      </trkpt>
      <trkpt lat="47.99599" lon="-4.08189">
        <ele>6.6</ele>
        <time>2024-04-10T17:01:04.190Z</time>
      </trkpt>
      <trkpt lat="47.99599" lon="-4.08087">
        <ele>7</ele>
        <time>2024-04-10T17:01:15.904Z</time>
      </trkpt>
      <trkpt lat="47.996" lon="-4.07675">
        <ele>7.6</ele>
        <time>2024-04-10T17:02:01.549Z</time>
      </trkpt>
      <trkpt lat="47.99601" lon="-4.07565">
        <ele>8.5</ele>
        <time>2024-04-10T17:02:15.020Z</time>
      </trkpt>
      <trkpt lat="47.996" lon="-4.07552">
        <ele>8.7</ele>
        <time>2024-04-10T17:02:16.814Z</time>
      </trkpt>
      <trkpt lat="47.99598" lon="-4.07545">
        <ele>8.7</ele>
        <time>2024-04-10T17:02:17.640Z</time>
      </trkpt>
      <trkpt lat="47.99592" lon="-4.07537">
        <ele>8.8</ele>
        <time>2024-04-10T17:02:19.115Z</time>
      </trkpt>
      <trkpt lat="47.99584" lon="-4.07534">
        <ele>8.8</ele>
        <time>2024-04-10T17:02:20.452Z</time>
      </trkpt>
      <trkpt lat="47.99535" lon="-4.07549">
        <ele>8.3</ele>
        <time>2024-04-10T17:02:27.849Z</time>
      </trkpt>
      <trkpt lat="47.99524" lon="-4.07552">
        <ele>8</ele>
        <time>2024-04-10T17:02:29.284Z</time>
      </trkpt>
      <trkpt lat="47.99519" lon="-4.07549">
        <ele>8</ele>
        <time>2024-04-10T17:02:30.158Z</time>
      </trkpt>
      <trkpt lat="47.99515" lon="-4.07542">
        <ele>8</ele>
        <time>2024-04-10T17:02:31.157Z</time>
      </trkpt>
      <trkpt lat="47.99513" lon="-4.07529">
        <ele>8</ele>
        <time>2024-04-10T17:02:32.604Z</time>
      </trkpt>
      <trkpt lat="47.99511" lon="-4.07497">
        <ele>8</ele>
        <time>2024-04-10T17:02:36.092Z</time>
      </trkpt>
      <trkpt lat="47.99511" lon="-4.07461">
        <ele>8</ele>
        <time>2024-04-10T17:02:39.998Z</time>
      </trkpt>
      <trkpt lat="47.99506" lon="-4.07367">
        <ele>9</ele>
        <time>2024-04-10T17:02:51.988Z</time>
      </trkpt>
      <trkpt lat="47.99499" lon="-4.07347">
        <ele>9.5</ele>
        <time>2024-04-10T17:02:55.464Z</time>
      </trkpt>
      <trkpt lat="47.99485" lon="-4.07328">
        <ele>9.6</ele>
        <time>2024-04-10T17:02:58.691Z</time>
      </trkpt>
      <trkpt lat="47.99473" lon="-4.07319">
        <ele>9.5</ele>
        <time>2024-04-10T17:03:00.723Z</time>
      </trkpt>
      <trkpt lat="47.99466" lon="-4.07309">
        <ele>9.9</ele>
        <time>2024-04-10T17:03:03.181Z</time>
      </trkpt>
      <trkpt lat="47.99462" lon="-4.07298">
        <ele>9.7</ele>
        <time>2024-04-10T17:03:04.282Z</time>
      </trkpt>
      <trkpt lat="47.99461" lon="-4.07285">
        <ele>9.3</ele>
        <time>2024-04-10T17:03:05.258Z</time>
      </trkpt>
      <trkpt lat="47.99462" lon="-4.07277">
        <ele>9</ele>
        <time>2024-04-10T17:03:05.828Z</time>
      </trkpt>
      <trkpt lat="47.99465" lon="-4.07262">
        <ele>9</ele>
        <time>2024-04-10T17:03:07.527Z</time>
      </trkpt>
      <trkpt lat="47.99465" lon="-4.07237">
        <ele>9</ele>
        <time>2024-04-10T17:03:10.240Z</time>
      </trkpt>
      <trkpt lat="47.99462" lon="-4.07224">
        <ele>9</ele>
        <time>2024-04-10T17:03:11.732Z</time>
      </trkpt>
      <trkpt lat="47.99443" lon="-4.07176">
        <ele>9</ele>
        <time>2024-04-10T17:03:17.783Z</time>
      </trkpt>
      <trkpt lat="47.99436" lon="-4.07152">
        <ele>8.6</ele>
        <time>2024-04-10T17:03:20.105Z</time>
      </trkpt>
      <trkpt lat="47.99425" lon="-4.07103">
        <ele>8.7</ele>
        <time>2024-04-10T17:03:25.871Z</time>
      </trkpt>
      <trkpt lat="47.99418" lon="-4.0703">
        <ele>9</ele>
        <time>2024-04-10T17:03:34.359Z</time>
      </trkpt>
      <trkpt lat="47.99406" lon="-4.06858">
        <ele>9</ele>
        <time>2024-04-10T17:03:53.124Z</time>
      </trkpt>
      <trkpt lat="47.99403" lon="-4.06822">
        <ele>8.7</ele>
        <time>2024-04-10T17:03:56.640Z</time>
      </trkpt>
      <trkpt lat="47.994" lon="-4.06768">
        <ele>11.9</ele>
        <time>2024-04-10T17:04:13.747Z</time>
      </trkpt>
      <trkpt lat="47.99391" lon="-4.06744">
        <ele>12.3</ele>
        <time>2024-04-10T17:04:17.473Z</time>
      </trkpt>
      <trkpt lat="47.99381" lon="-4.06739">
        <ele>12</ele>
        <time>2024-04-10T17:04:18.810Z</time>
      </trkpt>
      <trkpt lat="47.99378" lon="-4.06734">
        <ele>12</ele>
        <time>2024-04-10T17:04:19.538Z</time>
      </trkpt>
      <trkpt lat="47.99375" lon="-4.06723">
        <ele>12</ele>
        <time>2024-04-10T17:04:20.827Z</time>
      </trkpt>
      <trkpt lat="47.99374" lon="-4.06717">
        <ele>11.9</ele>
        <time>2024-04-10T17:04:21.370Z</time>
      </trkpt>
      <trkpt lat="47.99376" lon="-4.06706">
        <ele>12.1</ele>
        <time>2024-04-10T17:04:22.992Z</time>
      </trkpt>
      <trkpt lat="47.99379" lon="-4.06701">
        <ele>12.5</ele>
        <time>2024-04-10T17:04:25.134Z</time>
      </trkpt>
      <trkpt lat="47.99385" lon="-4.06694">
        <ele>13.4</ele>
        <time>2024-04-10T17:04:30.115Z</time>
      </trkpt>
      <trkpt lat="47.9939" lon="-4.06692">
        <ele>14</ele>
        <time>2024-04-10T17:04:33.444Z</time>
      </trkpt>
      <trkpt lat="47.99396" lon="-4.06684">
        <ele>14.2</ele>
        <time>2024-04-10T17:04:35.129Z</time>
      </trkpt>
      <trkpt lat="47.99402" lon="-4.06672">
        <ele>14.5</ele>
        <time>2024-04-10T17:04:37.353Z</time>
      </trkpt>
      <trkpt lat="47.99421" lon="-4.06606">
        <ele>17.9</ele>
        <time>2024-04-10T17:04:55.242Z</time>
      </trkpt>
      <trkpt lat="47.99458" lon="-4.06495">
        <ele>22.3</ele>
        <time>2024-04-10T17:05:19.641Z</time>
      </trkpt>
      <trkpt lat="47.99481" lon="-4.06449">
        <ele>26.7</ele>
        <time>2024-04-10T17:05:44.075Z</time>
      </trkpt>
      <trkpt lat="47.99495" lon="-4.0643">
        <ele>27</ele>
        <time>2024-04-10T17:05:47.669Z</time>
      </trkpt>
      <trkpt lat="47.99508" lon="-4.06419">
        <ele>27.7</ele>
        <time>2024-04-10T17:05:51.730Z</time>
      </trkpt>
      <trkpt lat="47.99547" lon="-4.06399">
        <ele>31.1</ele>
        <time>2024-04-10T17:06:09.730Z</time>
      </trkpt>
      <trkpt lat="47.99573" lon="-4.06372">
        <ele>32.6</ele>
        <time>2024-04-10T17:06:18.393Z</time>
      </trkpt>
      <trkpt lat="47.99596" lon="-4.06343">
        <ele>34.2</ele>
        <time>2024-04-10T17:06:27.258Z</time>
      </trkpt>
      <trkpt lat="47.99614" lon="-4.06314">
        <ele>37</ele>
        <time>2024-04-10T17:06:42.733Z</time>
      </trkpt>
      <trkpt lat="47.99631" lon="-4.06272">
        <ele>39.3</ele>
        <time>2024-04-10T17:06:54.839Z</time>
      </trkpt>
      <trkpt lat="47.99666" lon="-4.06156">
        <ele>41</ele>
        <time>2024-04-10T17:07:11.745Z</time>
      </trkpt>
      <trkpt lat="47.9968" lon="-4.06113">
        <ele>41.5</ele>
        <time>2024-04-10T17:07:17.812Z</time>
      </trkpt>
      <trkpt lat="47.99684" lon="-4.06084">
        <ele>41</ele>
        <time>2024-04-10T17:07:20.387Z</time>
      </trkpt>
      <trkpt lat="47.99692" lon="-4.06049">
        <ele>41</ele>
        <time>2024-04-10T17:07:24.400Z</time>
      </trkpt>
      <trkpt lat="47.99716" lon="-4.06004">
        <ele>39.6</ele>
        <time>2024-04-10T17:07:28.993Z</time>
      </trkpt>
      <trkpt lat="47.99731" lon="-4.0596">
        <ele>39.2</ele>
        <time>2024-04-10T17:07:33.790Z</time>
      </trkpt>
      <trkpt lat="47.99765" lon="-4.05877">
        <ele>38.3</ele>
        <time>2024-04-10T17:07:43.102Z</time>
      </trkpt>
      <trkpt lat="47.99769" lon="-4.05867">
        <ele>38.1</ele>
        <time>2024-04-10T17:07:44.112Z</time>
      </trkpt>
      <trkpt lat="47.99794" lon="-4.0581">
        <ele>37.9</ele>
        <time>2024-04-10T17:07:51.209Z</time>
      </trkpt>
      <trkpt lat="47.99826" lon="-4.05733">
        <ele>39.2</ele>
        <time>2024-04-10T17:08:03.444Z</time>
      </trkpt>
      <trkpt lat="47.99832" lon="-4.05715">
        <ele>39.9</ele>
        <time>2024-04-10T17:08:07.350Z</time>
      </trkpt>
      <trkpt lat="47.99834" lon="-4.05711">
        <ele>40</ele>
        <time>2024-04-10T17:08:08.091Z</time>
      </trkpt>
      <trkpt lat="47.99837" lon="-4.05697">
        <ele>40.1</ele>
        <time>2024-04-10T17:08:09.854Z</time>
      </trkpt>
      <trkpt lat="47.99848" lon="-4.05671">
        <ele>40.1</ele>
        <time>2024-04-10T17:08:13.191Z</time>
      </trkpt>
      <trkpt lat="47.99867" lon="-4.05617">
        <ele>41.6</ele>
        <time>2024-04-10T17:08:22.998Z</time>
      </trkpt>
      <trkpt lat="47.99872" lon="-4.05607">
        <ele>42.3</ele>
        <time>2024-04-10T17:08:26.711Z</time>
      </trkpt>
      <trkpt lat="47.99906" lon="-4.05496">
        <ele>46.2</ele>
        <time>2024-04-10T17:08:49.165Z</time>
      </trkpt>
      <trkpt lat="47.99913" lon="-4.05464">
        <ele>46.5</ele>
        <time>2024-04-10T17:08:53.334Z</time>
      </trkpt>
      <trkpt lat="47.99919" lon="-4.05438">
        <ele>46.3</ele>
        <time>2024-04-10T17:08:56.035Z</time>
      </trkpt>
      <trkpt lat="47.99924" lon="-4.05413">
        <ele>47</ele>
        <time>2024-04-10T17:09:00.401Z</time>
      </trkpt>
      <trkpt lat="47.9994" lon="-4.05348">
        <ele>48.4</ele>
        <time>2024-04-10T17:09:10.714Z</time>
      </trkpt>
      <trkpt lat="47.99948" lon="-4.05316">
        <ele>49.2</ele>
        <time>2024-04-10T17:09:16.092Z</time>
      </trkpt>
      <trkpt lat="47.99967" lon="-4.05232">
        <ele>50.3</ele>
        <time>2024-04-10T17:09:27.693Z</time>
      </trkpt>
      <trkpt lat="47.99976" lon="-4.05185">
        <ele>50.7</ele>
        <time>2024-04-10T17:09:33.679Z</time>
      </trkpt>
      <trkpt lat="47.99974" lon="-4.05163">
        <ele>51.1</ele>
        <time>2024-04-10T17:09:36.864Z</time>
      </trkpt>
      <trkpt lat="47.99969" lon="-4.0515">
        <ele>51.6</ele>
        <time>2024-04-10T17:09:39.696Z</time>
      </trkpt>
      <trkpt lat="47.9997" lon="-4.05134">
        <ele>52</ele>
        <time>2024-04-10T17:09:42.293Z</time>
      </trkpt>
      <trkpt lat="47.99972" lon="-4.05127">
        <ele>52</ele>
        <time>2024-04-10T17:09:43.119Z</time>
      </trkpt>
      <trkpt lat="47.99976" lon="-4.05122">
        <ele>51.9</ele>
        <time>2024-04-10T17:09:43.831Z</time>
      </trkpt>
      <trkpt lat="47.99986" lon="-4.05116">
        <ele>51.5</ele>
        <time>2024-04-10T17:09:45.109Z</time>
      </trkpt>
      <trkpt lat="47.99994" lon="-4.05104">
        <ele>50.8</ele>
        <time>2024-04-10T17:09:46.246Z</time>
      </trkpt>
      <trkpt lat="48" lon="-4.05086">
        <ele>49.2</ele>
        <time>2024-04-10T17:09:47.555Z</time>
      </trkpt>
      <trkpt lat="48.00018" lon="-4.05017">
        <ele>49.5</ele>
        <time>2024-04-10T17:09:56.076Z</time>
      </trkpt>
      <trkpt lat="48.00055" lon="-4.04884">
        <ele>54.2</ele>
        <time>2024-04-10T17:10:22.913Z</time>
      </trkpt>
      <trkpt lat="48.00058" lon="-4.04874">
        <ele>54.5</ele>
        <time>2024-04-10T17:10:24.765Z</time>
      </trkpt>
      <trkpt lat="48.00077" lon="-4.04807">
        <ele>55.7</ele>
        <time>2024-04-10T17:10:34.940Z</time>
      </trkpt>
      <trkpt lat="48.00077" lon="-4.04807">
        <ele>55.7</ele>
        <time>2024-04-10T17:10:34.940Z</time>
        <extensions>
          <visugpx:TrkExtension xmlns:visugpx="https://www.visugpx.com/editgpx/">
            <visugpx:node>2</visugpx:node>
            </visugpx:TrkExtension>
        </extensions>
      </trkpt>
      <trkpt lat="48.00087" lon="-4.0477">
        <ele>56.2</ele>
        <time>2024-04-10T17:10:40.171Z</time>
      </trkpt>
      <trkpt lat="48.00129" lon="-4.04652">
        <ele>58</ele>
        <time>2024-04-10T17:10:57.959Z</time>
      </trkpt>
      <trkpt lat="48.0013" lon="-4.04641">
        <ele>58</ele>
        <time>2024-04-10T17:10:59.163Z</time>
      </trkpt>
      <trkpt lat="48.00129" lon="-4.0462">
        <ele>58.7</ele>
        <time>2024-04-10T17:11:03.132Z</time>
      </trkpt>
      <trkpt lat="48.00126" lon="-4.04611">
        <ele>59</ele>
        <time>2024-04-10T17:11:04.910Z</time>
      </trkpt>
      <trkpt lat="48.00127" lon="-4.04596">
        <ele>59</ele>
        <time>2024-04-10T17:11:06.545Z</time>
      </trkpt>
      <trkpt lat="48.00129" lon="-4.04589">
        <ele>59</ele>
        <time>2024-04-10T17:11:07.371Z</time>
      </trkpt>
      <trkpt lat="48.00137" lon="-4.04578">
        <ele>59</ele>
        <time>2024-04-10T17:11:09.134Z</time>
      </trkpt>
      <trkpt lat="48.00144" lon="-4.04562">
        <ele>59</ele>
        <time>2024-04-10T17:11:11.208Z</time>
      </trkpt>
      <trkpt lat="48.00153" lon="-4.0454">
        <ele>59.3</ele>
        <time>2024-04-10T17:11:14.540Z</time>
      </trkpt>
      <trkpt lat="48.00164" lon="-4.04526">
        <ele>59.2</ele>
        <time>2024-04-10T17:11:16.737Z</time>
      </trkpt>
      <trkpt lat="48.00213" lon="-4.04445">
        <ele>60</ele>
        <time>2024-04-10T17:11:29.933Z</time>
      </trkpt>
      <trkpt lat="48.00225" lon="-4.04417">
        <ele>60</ele>
        <time>2024-04-10T17:11:33.541Z</time>
      </trkpt>
      <trkpt lat="48.00239" lon="-4.04377">
        <ele>61</ele>
        <time>2024-04-10T17:11:40.491Z</time>
      </trkpt>
      <trkpt lat="48.00261" lon="-4.04288">
        <ele>61.3</ele>
        <time>2024-04-10T17:11:51.265Z</time>
      </trkpt>
      <trkpt lat="48.00282" lon="-4.04191">
        <ele>61.2</ele>
        <time>2024-04-10T17:12:02.174Z</time>
      </trkpt>
      <trkpt lat="48.00299" lon="-4.04099">
        <ele>61.8</ele>
        <time>2024-04-10T17:12:13.527Z</time>
      </trkpt>
      <trkpt lat="48.00314" lon="-4.03994">
        <ele>63</ele>
        <time>2024-04-10T17:12:27.302Z</time>
      </trkpt>
      <trkpt lat="48.00318" lon="-4.03946">
        <ele>63</ele>
        <time>2024-04-10T17:12:32.550Z</time>
      </trkpt>
      <trkpt lat="48.00324" lon="-4.03845">
        <ele>63.7</ele>
        <time>2024-04-10T17:12:44.725Z</time>
      </trkpt>
      <trkpt lat="48.00323" lon="-4.03829">
        <ele>64</ele>
        <time>2024-04-10T17:12:47.055Z</time>
      </trkpt>
      <trkpt lat="48.0032" lon="-4.03821">
        <ele>64</ele>
        <time>2024-04-10T17:12:48.050Z</time>
      </trkpt>
      <trkpt lat="48.00318" lon="-4.03807">
        <ele>64</ele>
        <time>2024-04-10T17:12:49.603Z</time>
      </trkpt>
      <trkpt lat="48.0032" lon="-4.03791">
        <ele>64</ele>
        <time>2024-04-10T17:12:51.369Z</time>
      </trkpt>
      <trkpt lat="48.00324" lon="-4.03718">
        <ele>63.3</ele>
        <time>2024-04-10T17:12:58.349Z</time>
      </trkpt>
      <trkpt lat="48.00326" lon="-4.03668">
        <ele>64.9</ele>
        <time>2024-04-10T17:13:07.561Z</time>
      </trkpt>
      <trkpt lat="48.00325" lon="-4.03628">
        <ele>65.3</ele>
        <time>2024-04-10T17:13:12.602Z</time>
      </trkpt>
      <trkpt lat="48.00307" lon="-4.03501">
        <ele>66.9</ele>
        <time>2024-04-10T17:13:29.564Z</time>
      </trkpt>
      <trkpt lat="48.00285" lon="-4.03404">
        <ele>68.7</ele>
        <time>2024-04-10T17:13:44.146Z</time>
      </trkpt>
      <trkpt lat="48.00267" lon="-4.03324">
        <ele>69.6</ele>
        <time>2024-04-10T17:13:54.887Z</time>
      </trkpt>
      <trkpt lat="48.00265" lon="-4.03304">
        <ele>69.5</ele>
        <time>2024-04-10T17:13:56.936Z</time>
      </trkpt>
      <trkpt lat="48.00263" lon="-4.0328">
        <ele>69</ele>
        <time>2024-04-10T17:13:58.948Z</time>
      </trkpt>
      <trkpt lat="48.00263" lon="-4.03266">
        <ele>68.9</ele>
        <time>2024-04-10T17:14:00.325Z</time>
      </trkpt>
      <trkpt lat="48.00255" lon="-4.03154">
        <ele>70.3</ele>
        <time>2024-04-10T17:14:15.066Z</time>
      </trkpt>
      <trkpt lat="48.00252" lon="-4.03125">
        <ele>70.6</ele>
        <time>2024-04-10T17:14:18.775Z</time>
      </trkpt>
      <trkpt lat="48.00246" lon="-4.0308">
        <ele>71.1</ele>
        <time>2024-04-10T17:14:24.636Z</time>
      </trkpt>
      <trkpt lat="48.00242" lon="-4.03062">
        <ele>71.8</ele>
        <time>2024-04-10T17:14:28.472Z</time>
      </trkpt>
      <trkpt lat="48.00241" lon="-4.03048">
        <ele>72.3</ele>
        <time>2024-04-10T17:14:31.244Z</time>
      </trkpt>
      <trkpt lat="48.00239" lon="-4.03045">
        <ele>72.4</ele>
        <time>2024-04-10T17:14:31.913Z</time>
      </trkpt>
      <trkpt lat="48.00238" lon="-4.03037">
        <ele>72.7</ele>
        <time>2024-04-10T17:14:33.557Z</time>
      </trkpt>
      <trkpt lat="48.00241" lon="-4.0303">
        <ele>72.9</ele>
        <time>2024-04-10T17:14:34.881Z</time>
      </trkpt>
      <trkpt lat="48.00246" lon="-4.03028">
        <ele>73</ele>
        <time>2024-04-10T17:14:35.901Z</time>
      </trkpt>
      <trkpt lat="48.00251" lon="-4.03007">
        <ele>73</ele>
        <time>2024-04-10T17:14:38.320Z</time>
      </trkpt>
      <trkpt lat="48.00252" lon="-4.0297">
        <ele>73</ele>
        <time>2024-04-10T17:14:42.337Z</time>
      </trkpt>
      <trkpt lat="48.0025" lon="-4.02907">
        <ele>73</ele>
        <time>2024-04-10T17:14:49.180Z</time>
      </trkpt>
      <trkpt lat="48.0025" lon="-4.02868">
        <ele>73</ele>
        <time>2024-04-10T17:14:53.411Z</time>
      </trkpt>
      <trkpt lat="48.00246" lon="-4.02772">
        <ele>72.5</ele>
        <time>2024-04-10T17:15:03.121Z</time>
      </trkpt>
      <trkpt lat="48.00243" lon="-4.02711">
        <ele>73.3</ele>
        <time>2024-04-10T17:15:11.210Z</time>
      </trkpt>
      <trkpt lat="48.00243" lon="-4.0266">
        <ele>73.6</ele>
        <time>2024-04-10T17:15:17.240Z</time>
      </trkpt>
      <trkpt lat="48.00246" lon="-4.02634">
        <ele>73.6</ele>
        <time>2024-04-10T17:15:20.102Z</time>
      </trkpt>
      <trkpt lat="48.00252" lon="-4.02599">
        <ele>74.3</ele>
        <time>2024-04-10T17:15:25.405Z</time>
      </trkpt>
      <trkpt lat="48.00254" lon="-4.02591">
        <ele>74.5</ele>
        <time>2024-04-10T17:15:26.750Z</time>
      </trkpt>
      <trkpt lat="48.00271" lon="-4.02539">
        <ele>74.2</ele>
        <time>2024-04-10T17:15:32.593Z</time>
      </trkpt>
      <trkpt lat="48.00277" lon="-4.02524">
        <ele>74</ele>
        <time>2024-04-10T17:15:34.219Z</time>
      </trkpt>
      <trkpt lat="48.00286" lon="-4.02506">
        <ele>73.7</ele>
        <time>2024-04-10T17:15:36.260Z</time>
      </trkpt>
      <trkpt lat="48.003" lon="-4.02472">
        <ele>72.6</ele>
        <time>2024-04-10T17:15:39.335Z</time>
      </trkpt>
      <trkpt lat="48.00324" lon="-4.02392">
        <ele>71.1</ele>
        <time>2024-04-10T17:15:46.940Z</time>
      </trkpt>
      <trkpt lat="48.00326" lon="-4.02379">
        <ele>70.5</ele>
        <time>2024-04-10T17:15:47.809Z</time>
      </trkpt>
      <trkpt lat="48.00323" lon="-4.02376">
        <ele>70.8</ele>
        <time>2024-04-10T17:15:49.398Z</time>
      </trkpt>
      <trkpt lat="48.00322" lon="-4.0237">
        <ele>70.8</ele>
        <time>2024-04-10T17:15:50.069Z</time>
      </trkpt>
      <trkpt lat="48.00326" lon="-4.02363">
        <ele>70.1</ele>
        <time>2024-04-10T17:15:50.668Z</time>
      </trkpt>
      <trkpt lat="48.00331" lon="-4.02365">
        <ele>69.5</ele>
        <time>2024-04-10T17:15:51.172Z</time>
      </trkpt>
      <trkpt lat="48.00333" lon="-4.02371">
        <ele>69.4</ele>
        <time>2024-04-10T17:15:51.769Z</time>
      </trkpt>
      <trkpt lat="48.0035" lon="-4.02372">
        <ele>69.4</ele>
        <time>2024-04-10T17:15:54.528Z</time>
      </trkpt>
      <trkpt lat="48.0038" lon="-4.02381">
        <ele>69.2</ele>
        <time>2024-04-10T17:15:59.196Z</time>
      </trkpt>
      <trkpt lat="48.00428" lon="-4.024">
        <ele>68.8</ele>
        <time>2024-04-10T17:16:06.668Z</time>
      </trkpt>
      <trkpt lat="48.00462" lon="-4.02411">
        <ele>67.7</ele>
        <time>2024-04-10T17:16:10.969Z</time>
      </trkpt>
      <trkpt lat="48.0051" lon="-4.02415">
        <ele>68.5</ele>
        <time>2024-04-10T17:16:20.181Z</time>
      </trkpt>
      <trkpt lat="48.00638" lon="-4.02408">
        <ele>77.2</ele>
        <time>2024-04-10T17:17:06.065Z</time>
      </trkpt>
      <trkpt lat="48.0069" lon="-4.02404">
        <ele>81.6</ele>
        <time>2024-04-10T17:17:29.432Z</time>
      </trkpt>
      <trkpt lat="48.00711" lon="-4.02399">
        <ele>82.6</ele>
        <time>2024-04-10T17:17:35.225Z</time>
      </trkpt>
      <trkpt lat="48.00797" lon="-4.02371">
        <ele>87.4</ele>
        <time>2024-04-10T17:18:01.616Z</time>
      </trkpt>
      <trkpt lat="48.0081" lon="-4.02349">
        <ele>88.1</ele>
        <time>2024-04-10T17:18:06.272Z</time>
      </trkpt>
      <trkpt lat="48.0081" lon="-4.02339">
        <ele>88.1</ele>
        <time>2024-04-10T17:18:07.357Z</time>
      </trkpt>
      <trkpt lat="48.00812" lon="-4.02336">
        <ele>88.2</ele>
        <time>2024-04-10T17:18:08.026Z</time>
      </trkpt>
      <trkpt lat="48.00817" lon="-4.0233">
        <ele>88.4</ele>
        <time>2024-04-10T17:18:09.469Z</time>
      </trkpt>
      <trkpt lat="48.0082" lon="-4.0233">
        <ele>88.5</ele>
        <time>2024-04-10T17:18:10.161Z</time>
      </trkpt>
      <trkpt lat="48.00826" lon="-4.02334">
        <ele>88.7</ele>
        <time>2024-04-10T17:18:11.627Z</time>
      </trkpt>
      <trkpt lat="48.00839" lon="-4.02328">
        <ele>89</ele>
        <time>2024-04-10T17:18:14.390Z</time>
      </trkpt>
      <trkpt lat="48.00853" lon="-4.02305">
        <ele>89.7</ele>
        <time>2024-04-10T17:18:19.208Z</time>
      </trkpt>
      <trkpt lat="48.00885" lon="-4.02256">
        <ele>90</ele>
        <time>2024-04-10T17:18:27.124Z</time>
      </trkpt>
      <trkpt lat="48.00923" lon="-4.02203">
        <ele>91.8</ele>
        <time>2024-04-10T17:18:39.300Z</time>
      </trkpt>
      <trkpt lat="48.0093" lon="-4.02184">
        <ele>92</ele>
        <time>2024-04-10T17:18:41.998Z</time>
      </trkpt>
      <trkpt lat="48.00936" lon="-4.02157">
        <ele>92.2</ele>
        <time>2024-04-10T17:18:45.421Z</time>
      </trkpt>
      <trkpt lat="48.00954" lon="-4.02065">
        <ele>94.2</ele>
        <time>2024-04-10T17:18:59.853Z</time>
      </trkpt>
      <trkpt lat="48.00961" lon="-4.02045">
        <ele>94.7</ele>
        <time>2024-04-10T17:19:03.328Z</time>
      </trkpt>
      <trkpt lat="48.00976" lon="-4.02019">
        <ele>95</ele>
        <time>2024-04-10T17:19:07.567Z</time>
      </trkpt>
      <trkpt lat="48.01059" lon="-4.01871">
        <ele>96.5</ele>
        <time>2024-04-10T17:19:31.061Z</time>
      </trkpt>
      <trkpt lat="48.01073" lon="-4.01842">
        <ele>96.8</ele>
        <time>2024-04-10T17:19:35.453Z</time>
      </trkpt>
      <trkpt lat="48.01086" lon="-4.01819">
        <ele>97</ele>
        <time>2024-04-10T17:19:39.053Z</time>
      </trkpt>
      <trkpt lat="48.01102" lon="-4.01797">
        <ele>97</ele>
        <time>2024-04-10T17:19:42.578Z</time>
      </trkpt>
      <trkpt lat="48.01137" lon="-4.01745">
        <ele>98</ele>
        <time>2024-04-10T17:19:52.408Z</time>
      </trkpt>
      <trkpt lat="48.01141" lon="-4.01736">
        <ele>97.8</ele>
        <time>2024-04-10T17:19:53.329Z</time>
      </trkpt>
      <trkpt lat="48.01166" lon="-4.0165">
        <ele>98</ele>
        <time>2024-04-10T17:20:03.817Z</time>
      </trkpt>
      <trkpt lat="48.01175" lon="-4.01597">
        <ele>97.9</ele>
        <time>2024-04-10T17:20:09.597Z</time>
      </trkpt>
      <trkpt lat="48.01176" lon="-4.01579">
        <ele>98.1</ele>
        <time>2024-04-10T17:20:11.910Z</time>
      </trkpt>
      <trkpt lat="48.01177" lon="-4.01575">
        <ele>98.2</ele>
        <time>2024-04-10T17:20:12.583Z</time>
      </trkpt>
      <trkpt lat="48.01183" lon="-4.01505">
        <ele>98.4</ele>
        <time>2024-04-10T17:20:20.557Z</time>
      </trkpt>
      <trkpt lat="48.01184" lon="-4.01479">
        <ele>99.1</ele>
        <time>2024-04-10T17:20:24.918Z</time>
      </trkpt>
      <trkpt lat="48.01187" lon="-4.01441">
        <ele>99.5</ele>
        <time>2024-04-10T17:20:29.771Z</time>
      </trkpt>
      <trkpt lat="48.012" lon="-4.01406">
        <ele>99.4</ele>
        <time>2024-04-10T17:20:33.963Z</time>
      </trkpt>
      <trkpt lat="48.01198" lon="-4.01396">
        <ele>99.7</ele>
        <time>2024-04-10T17:20:35.772Z</time>
      </trkpt>
      <trkpt lat="48.01198" lon="-4.01386">
        <ele>100</ele>
        <time>2024-04-10T17:20:37.545Z</time>
      </trkpt>
      <trkpt lat="48.012" lon="-4.01376">
        <ele>100</ele>
        <time>2024-04-10T17:20:38.677Z</time>
      </trkpt>
      <trkpt lat="48.01203" lon="-4.01367">
        <ele>100</ele>
        <time>2024-04-10T17:20:39.768Z</time>
      </trkpt>
      <trkpt lat="48.01209" lon="-4.0136">
        <ele>100</ele>
        <time>2024-04-10T17:20:41.002Z</time>
      </trkpt>
      <trkpt lat="48.01215" lon="-4.01356">
        <ele>99.9</ele>
        <time>2024-04-10T17:20:41.930Z</time>
      </trkpt>
      <trkpt lat="48.01222" lon="-4.01355">
        <ele>99.8</ele>
        <time>2024-04-10T17:20:42.932Z</time>
      </trkpt>
      <trkpt lat="48.01229" lon="-4.01356">
        <ele>99.4</ele>
        <time>2024-04-10T17:20:43.660Z</time>
      </trkpt>
      <trkpt lat="48.01246" lon="-4.01341">
        <ele>98.8</ele>
        <time>2024-04-10T17:20:46.123Z</time>
      </trkpt>
      <trkpt lat="48.01255" lon="-4.01328">
        <ele>99</ele>
        <time>2024-04-10T17:20:48.505Z</time>
      </trkpt>
      <trkpt lat="48.01275" lon="-4.0129">
        <ele>98.7</ele>
        <time>2024-04-10T17:20:53.319Z</time>
      </trkpt>
      <trkpt lat="48.01276" lon="-4.01288">
        <ele>98.7</ele>
        <time>2024-04-10T17:20:53.590Z</time>
      </trkpt>
      <trkpt lat="48.01316" lon="-4.01173">
        <ele>100.9</ele>
        <time>2024-04-10T17:21:11.858Z</time>
      </trkpt>
      <trkpt lat="48.01342" lon="-4.01087">
        <ele>102.2</ele>
        <time>2024-04-10T17:21:24.478Z</time>
      </trkpt>
      <trkpt lat="48.01369" lon="-4.00986">
        <ele>104.5</ele>
        <time>2024-04-10T17:21:40.933Z</time>
      </trkpt>
      <trkpt lat="48.01393" lon="-4.00879">
        <ele>107</ele>
        <time>2024-04-10T17:21:58.307Z</time>
      </trkpt>
      <trkpt lat="48.01409" lon="-4.00807">
        <ele>107</ele>
        <time>2024-04-10T17:22:06.536Z</time>
      </trkpt>
      <trkpt lat="48.01429" lon="-4.00724">
        <ele>107</ele>
        <time>2024-04-10T17:22:16.105Z</time>
      </trkpt>
      <trkpt lat="48.01454" lon="-4.00635">
        <ele>106</ele>
        <time>2024-04-10T17:22:25.207Z</time>
      </trkpt>
      <trkpt lat="48.01464" lon="-4.00599">
        <ele>106</ele>
        <time>2024-04-10T17:22:29.435Z</time>
      </trkpt>
      <trkpt lat="48.01478" lon="-4.00549">
        <ele>105.4</ele>
        <time>2024-04-10T17:22:34.500Z</time>
      </trkpt>
      <trkpt lat="48.01504" lon="-4.00469">
        <ele>104.9</ele>
        <time>2024-04-10T17:22:43.426Z</time>
      </trkpt>
      <trkpt lat="48.01545" lon="-4.0036">
        <ele>105.4</ele>
        <time>2024-04-10T17:22:57.798Z</time>
      </trkpt>
      <trkpt lat="48.01585" lon="-4.00268">
        <ele>107</ele>
        <time>2024-04-10T17:23:12.664Z</time>
      </trkpt>
      <trkpt lat="48.01636" lon="-4.00179">
        <ele>107.7</ele>
        <time>2024-04-10T17:23:26.536Z</time>
      </trkpt>
      <trkpt lat="48.01688" lon="-4.00104">
        <ele>108.1</ele>
        <time>2024-04-10T17:23:38.897Z</time>
      </trkpt>
      <trkpt lat="48.01828" lon="-3.99934">
        <ele>105.2</ele>
        <time>2024-04-10T17:24:04.192Z</time>
      </trkpt>
      <trkpt lat="48.01853" lon="-3.99906">
        <ele>104.2</ele>
        <time>2024-04-10T17:24:08.042Z</time>
      </trkpt>
      <trkpt lat="48.0188" lon="-3.99875">
        <ele>103.2</ele>
        <time>2024-04-10T17:24:12.325Z</time>
      </trkpt>
      <trkpt lat="48.01915" lon="-3.99835">
        <ele>103.9</ele>
        <time>2024-04-10T17:24:20.700Z</time>
      </trkpt>
      <trkpt lat="48.01941" lon="-3.99804">
        <ele>103</ele>
        <time>2024-04-10T17:24:24.960Z</time>
      </trkpt>
      <trkpt lat="48.01979" lon="-3.99761">
        <ele>103.6</ele>
        <time>2024-04-10T17:24:33.714Z</time>
      </trkpt>
      <trkpt lat="48.02061" lon="-3.99659">
        <ele>106.2</ele>
        <time>2024-04-10T17:24:55.939Z</time>
      </trkpt>
      <trkpt lat="48.02164" lon="-3.99519">
        <ele>109.9</ele>
        <time>2024-04-10T17:25:25.665Z</time>
      </trkpt>
      <trkpt lat="48.02177" lon="-3.99497">
        <ele>110.3</ele>
        <time>2024-04-10T17:25:29.581Z</time>
      </trkpt>
      <trkpt lat="48.0221" lon="-3.99436">
        <ele>110.4</ele>
        <time>2024-04-10T17:25:38.246Z</time>
      </trkpt>
      <trkpt lat="48.02326" lon="-3.9917">
        <ele>110.8</ele>
        <time>2024-04-10T17:26:13.309Z</time>
      </trkpt>
      <trkpt lat="48.02347" lon="-3.99112">
        <ele>111</ele>
        <time>2024-04-10T17:26:20.782Z</time>
        <extensions>
          <visugpx:TrkExtension xmlns:visugpx="https://www.visugpx.com/editgpx/">
            <visugpx:node>3</visugpx:node>
            </visugpx:TrkExtension>
        </extensions>
      </trkpt>
      <trkpt lat="48.02368" lon="-3.99057">
        <ele>111.2</ele>
        <time>2024-04-10T17:26:27.970Z</time>
      </trkpt>
      <trkpt lat="48.02379" lon="-3.99015">
        <ele>111.3</ele>
        <time>2024-04-10T17:26:33.020Z</time>
      </trkpt>
      <trkpt lat="48.02391" lon="-3.99009">
        <ele>111.4</ele>
        <time>2024-04-10T17:26:35.236Z</time>
      </trkpt>
      <trkpt lat="48.02405" lon="-3.99008">
        <ele>111.7</ele>
        <time>2024-04-10T17:26:38.063Z</time>
      </trkpt>
      <trkpt lat="48.02423" lon="-3.99001">
        <ele>112</ele>
        <time>2024-04-10T17:26:41.607Z</time>
      </trkpt>
      <trkpt lat="48.02447" lon="-3.98983">
        <ele>112.1</ele>
        <time>2024-04-10T17:26:46.120Z</time>
      </trkpt>
      <trkpt lat="48.02508" lon="-3.9895">
        <ele>113</ele>
        <time>2024-04-10T17:26:58.194Z</time>
      </trkpt>
      <trkpt lat="48.02532" lon="-3.98931">
        <ele>113</ele>
        <time>2024-04-10T17:27:02.598Z</time>
      </trkpt>
      <trkpt lat="48.0255" lon="-3.9891">
        <ele>113</ele>
        <time>2024-04-10T17:27:06.300Z</time>
      </trkpt>
      <trkpt lat="48.02589" lon="-3.98862">
        <ele>113.2</ele>
        <time>2024-04-10T17:27:14.808Z</time>
      </trkpt>
      <trkpt lat="48.02628" lon="-3.98818">
        <ele>113.8</ele>
        <time>2024-04-10T17:27:23.754Z</time>
      </trkpt>
      <trkpt lat="48.02686" lon="-3.98759">
        <ele>114.7</ele>
        <time>2024-04-10T17:27:36.671Z</time>
      </trkpt>
      <trkpt lat="48.02746" lon="-3.98688">
        <ele>115.5</ele>
        <time>2024-04-10T17:27:50.421Z</time>
      </trkpt>
      <trkpt lat="48.02782" lon="-3.98647">
        <ele>116.4</ele>
        <time>2024-04-10T17:27:59.398Z</time>
      </trkpt>
      <trkpt lat="48.0282" lon="-3.98599">
        <ele>117.1</ele>
        <time>2024-04-10T17:28:08.677Z</time>
      </trkpt>
      <trkpt lat="48.02944" lon="-3.98418">
        <ele>116.1</ele>
        <time>2024-04-10T17:28:35.301Z</time>
      </trkpt>
      <trkpt lat="48.02955" lon="-3.98394">
        <ele>114.5</ele>
        <time>2024-04-10T17:28:37.194Z</time>
      </trkpt>
      <trkpt lat="48.02963" lon="-3.98367">
        <ele>112.3</ele>
        <time>2024-04-10T17:28:39.115Z</time>
      </trkpt>
      <trkpt lat="48.02971" lon="-3.9832">
        <ele>108.3</ele>
        <time>2024-04-10T17:28:42.271Z</time>
      </trkpt>
      <trkpt lat="48.02986" lon="-3.98194">
        <ele>101.5</ele>
        <time>2024-04-10T17:28:50.597Z</time>
      </trkpt>
      <trkpt lat="48.0299" lon="-3.98168">
        <ele>100.8</ele>
        <time>2024-04-10T17:28:52.680Z</time>
      </trkpt>
      <trkpt lat="48.02995" lon="-3.98152">
        <ele>100</ele>
        <time>2024-04-10T17:28:53.829Z</time>
      </trkpt>
      <trkpt lat="48.03014" lon="-3.98105">
        <ele>98.6</ele>
        <time>2024-04-10T17:28:58.153Z</time>
      </trkpt>
      <trkpt lat="48.03029" lon="-3.98075">
        <ele>96.5</ele>
        <time>2024-04-10T17:29:00.590Z</time>
      </trkpt>
      <trkpt lat="48.03042" lon="-3.98058">
        <ele>95.9</ele>
        <time>2024-04-10T17:29:02.675Z</time>
      </trkpt>
      <trkpt lat="48.03092" lon="-3.98005">
        <ele>94.1</ele>
        <time>2024-04-10T17:29:10.385Z</time>
      </trkpt>
      <trkpt lat="48.0312" lon="-3.97983">
        <ele>92.1</ele>
        <time>2024-04-10T17:29:13.528Z</time>
      </trkpt>
      <trkpt lat="48.03136" lon="-3.97981">
        <ele>90.9</ele>
        <time>2024-04-10T17:29:15.090Z</time>
      </trkpt>
      <trkpt lat="48.03231" lon="-3.97992">
        <ele>87.6</ele>
        <time>2024-04-10T17:29:26.602Z</time>
      </trkpt>
      <trkpt lat="48.03276" lon="-3.97994">
        <ele>84.7</ele>
        <time>2024-04-10T17:29:31.043Z</time>
      </trkpt>
      <trkpt lat="48.03298" lon="-3.97989">
        <ele>83.9</ele>
        <time>2024-04-10T17:29:33.705Z</time>
      </trkpt>
      <trkpt lat="48.0333" lon="-3.97976">
        <ele>82.2</ele>
        <time>2024-04-10T17:29:37.264Z</time>
      </trkpt>
      <trkpt lat="48.03418" lon="-3.97925">
        <ele>78.6</ele>
        <time>2024-04-10T17:29:48.372Z</time>
      </trkpt>
      <trkpt lat="48.03443" lon="-3.97913">
        <ele>76.9</ele>
        <time>2024-04-10T17:29:50.957Z</time>
      </trkpt>
      <trkpt lat="48.0349" lon="-3.97898">
        <ele>76.6</ele>
        <time>2024-04-10T17:29:58.309Z</time>
      </trkpt>
      <trkpt lat="48.03561" lon="-3.97879">
        <ele>74.1</ele>
        <time>2024-04-10T17:30:07.022Z</time>
      </trkpt>
      <trkpt lat="48.03578" lon="-3.97874">
        <ele>73.1</ele>
        <time>2024-04-10T17:30:08.805Z</time>
      </trkpt>
      <trkpt lat="48.0361" lon="-3.97862">
        <ele>71.1</ele>
        <time>2024-04-10T17:30:12.136Z</time>
      </trkpt>
      <trkpt lat="48.03632" lon="-3.97846">
        <ele>69.4</ele>
        <time>2024-04-10T17:30:14.516Z</time>
      </trkpt>
      <trkpt lat="48.03649" lon="-3.9783">
        <ele>68.6</ele>
        <time>2024-04-10T17:30:16.852Z</time>
      </trkpt>
      <trkpt lat="48.0367" lon="-3.97811">
        <ele>68.2</ele>
        <time>2024-04-10T17:30:20.287Z</time>
      </trkpt>
      <trkpt lat="48.03732" lon="-3.97752">
        <ele>72.4</ele>
        <time>2024-04-10T17:30:43.088Z</time>
      </trkpt>
      <trkpt lat="48.0374" lon="-3.97742">
        <ele>73.2</ele>
        <time>2024-04-10T17:30:47.298Z</time>
      </trkpt>
      <trkpt lat="48.03752" lon="-3.97716">
        <ele>74.4</ele>
        <time>2024-04-10T17:30:53.823Z</time>
      </trkpt>
      <trkpt lat="48.03781" lon="-3.97634">
        <ele>77.5</ele>
        <time>2024-04-10T17:31:11.362Z</time>
      </trkpt>
      <trkpt lat="48.03812" lon="-3.97551">
        <ele>81.3</ele>
        <time>2024-04-10T17:31:31.780Z</time>
      </trkpt>
      <trkpt lat="48.03826" lon="-3.97525">
        <ele>81.7</ele>
        <time>2024-04-10T17:31:36.115Z</time>
      </trkpt>
      <trkpt lat="48.03834" lon="-3.97516">
        <ele>82.5</ele>
        <time>2024-04-10T17:31:40.337Z</time>
      </trkpt>
      <trkpt lat="48.03871" lon="-3.97484">
        <ele>85.6</ele>
        <time>2024-04-10T17:31:56.637Z</time>
      </trkpt>
      <trkpt lat="48.03951" lon="-3.97423">
        <ele>91</ele>
        <time>2024-04-10T17:32:25.616Z</time>
      </trkpt>
      <trkpt lat="48.04002" lon="-3.97392">
        <ele>92.5</ele>
        <time>2024-04-10T17:32:37.461Z</time>
      </trkpt>
      <trkpt lat="48.04103" lon="-3.97335">
        <ele>96.2</ele>
        <time>2024-04-10T17:33:02.645Z</time>
      </trkpt>
      <trkpt lat="48.04126" lon="-3.97332">
        <ele>97.5</ele>
        <time>2024-04-10T17:33:09.729Z</time>
      </trkpt>
      <trkpt lat="48.0414" lon="-3.97333">
        <ele>98.1</ele>
        <time>2024-04-10T17:33:13.352Z</time>
      </trkpt>
      <trkpt lat="48.04164" lon="-3.97338">
        <ele>100.1</ele>
        <time>2024-04-10T17:33:23.942Z</time>
      </trkpt>
      <trkpt lat="48.0419" lon="-3.97349">
        <ele>102.3</ele>
        <time>2024-04-10T17:33:35.573Z</time>
      </trkpt>
      <trkpt lat="48.04232" lon="-3.97375">
        <ele>105.4</ele>
        <time>2024-04-10T17:33:51.917Z</time>
      </trkpt>
      <trkpt lat="48.04271" lon="-3.97382">
        <ele>107.1</ele>
        <time>2024-04-10T17:34:02.130Z</time>
      </trkpt>
      <trkpt lat="48.0429" lon="-3.97381">
        <ele>107.7</ele>
        <time>2024-04-10T17:34:06.427Z</time>
      </trkpt>
      <trkpt lat="48.04299" lon="-3.9738">
        <ele>108</ele>
        <time>2024-04-10T17:34:08.507Z</time>
      </trkpt>
      <trkpt lat="48.04309" lon="-3.97378">
        <ele>108.5</ele>
        <time>2024-04-10T17:34:11.345Z</time>
      </trkpt>
      <trkpt lat="48.04331" lon="-3.97368">
        <ele>110</ele>
        <time>2024-04-10T17:34:19.289Z</time>
      </trkpt>
      <trkpt lat="48.04365" lon="-3.97349">
        <ele>111.8</ele>
        <time>2024-04-10T17:34:29.502Z</time>
      </trkpt>
      <trkpt lat="48.04416" lon="-3.9731">
        <ele>114.1</ele>
        <time>2024-04-10T17:34:43.836Z</time>
      </trkpt>
      <trkpt lat="48.04475" lon="-3.9727">
        <ele>116.9</ele>
        <time>2024-04-10T17:35:00.667Z</time>
      </trkpt>
      <trkpt lat="48.04538" lon="-3.9724">
        <ele>119.6</ele>
        <time>2024-04-10T17:35:17.351Z</time>
      </trkpt>
      <trkpt lat="48.04558" lon="-3.97225">
        <ele>120.3</ele>
        <time>2024-04-10T17:35:22.391Z</time>
      </trkpt>
      <trkpt lat="48.04597" lon="-3.97178">
        <ele>121.4</ele>
        <time>2024-04-10T17:35:32.553Z</time>
      </trkpt>
      <trkpt lat="48.04631" lon="-3.97144">
        <ele>122.5</ele>
        <time>2024-04-10T17:35:41.318Z</time>
        <extensions>
          <visugpx:TrkExtension xmlns:visugpx="https://www.visugpx.com/editgpx/">
            <visugpx:node>4</visugpx:node>
            </visugpx:TrkExtension>
        </extensions>
      </trkpt>
      <trkpt lat="48.04656" lon="-3.97119">
        <ele>123.3</ele>
        <time>2024-04-10T17:35:47.742Z</time>
      </trkpt>
      <trkpt lat="48.04674" lon="-3.97107">
        <ele>124.1</ele>
        <time>2024-04-10T17:35:52.700Z</time>
      </trkpt>
      <trkpt lat="48.04695" lon="-3.97098">
        <ele>124.5</ele>
        <time>2024-04-10T17:35:56.961Z</time>
      </trkpt>
      <trkpt lat="48.04742" lon="-3.97083">
        <ele>125</ele>
        <time>2024-04-10T17:36:05.592Z</time>
      </trkpt>
      <trkpt lat="48.04752" lon="-3.97077">
        <ele>124.8</ele>
        <time>2024-04-10T17:36:07.072Z</time>
      </trkpt>
      <trkpt lat="48.04774" lon="-3.97072">
        <ele>124.6</ele>
        <time>2024-04-10T17:36:10.393Z</time>
      </trkpt>
      <trkpt lat="48.04788" lon="-3.97063">
        <ele>124</ele>
        <time>2024-04-10T17:36:12.170Z</time>
      </trkpt>
      <trkpt lat="48.04797" lon="-3.97055">
        <ele>123.3</ele>
        <time>2024-04-10T17:36:13.189Z</time>
      </trkpt>
      <trkpt lat="48.04813" lon="-3.97033">
        <ele>123.1</ele>
        <time>2024-04-10T17:36:16.426Z</time>
      </trkpt>
      <trkpt lat="48.04827" lon="-3.97005">
        <ele>121.5</ele>
        <time>2024-04-10T17:36:18.700Z</time>
      </trkpt>
      <trkpt lat="48.04864" lon="-3.96907">
        <ele>118.4</ele>
        <time>2024-04-10T17:36:27.360Z</time>
      </trkpt>
      <trkpt lat="48.04875" lon="-3.96875">
        <ele>117.5</ele>
        <time>2024-04-10T17:36:30.207Z</time>
      </trkpt>
      <trkpt lat="48.049" lon="-3.96787">
        <ele>116.4</ele>
        <time>2024-04-10T17:36:39.085Z</time>
      </trkpt>
      <trkpt lat="48.04906" lon="-3.96757">
        <ele>116.1</ele>
        <time>2024-04-10T17:36:42.066Z</time>
      </trkpt>
      <trkpt lat="48.04935" lon="-3.96522">
        <ele>122.3</ele>
        <time>2024-04-10T17:37:21.400Z</time>
      </trkpt>
      <trkpt lat="48.04949" lon="-3.96453">
        <ele>123.4</ele>
        <time>2024-04-10T17:37:31.272Z</time>
      </trkpt>
      <trkpt lat="48.04959" lon="-3.96423">
        <ele>124</ele>
        <time>2024-04-10T17:37:36.068Z</time>
      </trkpt>
      <trkpt lat="48.04965" lon="-3.96393">
        <ele>123.6</ele>
        <time>2024-04-10T17:37:38.930Z</time>
      </trkpt>
      <trkpt lat="48.04985" lon="-3.96279">
        <ele>123.9</ele>
        <time>2024-04-10T17:37:52.182Z</time>
      </trkpt>
      <trkpt lat="48.04996" lon="-3.96203">
        <ele>124.8</ele>
        <time>2024-04-10T17:38:02.213Z</time>
      </trkpt>
      <trkpt lat="48.05001" lon="-3.96152">
        <ele>125.6</ele>
        <time>2024-04-10T17:38:09.302Z</time>
      </trkpt>
      <trkpt lat="48.05001" lon="-3.96118">
        <ele>126.1</ele>
        <time>2024-04-10T17:38:13.915Z</time>
      </trkpt>
      <trkpt lat="48.04998" lon="-3.96063">
        <ele>126.9</ele>
        <time>2024-04-10T17:38:21.377Z</time>
      </trkpt>
      <trkpt lat="48.04996" lon="-3.96054">
        <ele>127</ele>
        <time>2024-04-10T17:38:22.581Z</time>
      </trkpt>
      <trkpt lat="48.04987" lon="-3.95985">
        <ele>129.3</ele>
        <time>2024-04-10T17:38:35.696Z</time>
      </trkpt>
      <trkpt lat="48.04986" lon="-3.95965">
        <ele>129.6</ele>
        <time>2024-04-10T17:38:38.429Z</time>
      </trkpt>
      <trkpt lat="48.04987" lon="-3.95938">
        <ele>130.1</ele>
        <time>2024-04-10T17:38:42.336Z</time>
      </trkpt>
      <trkpt lat="48.04996" lon="-3.95772">
        <ele>131.9</ele>
        <time>2024-04-10T17:39:03.563Z</time>
      </trkpt>
      <trkpt lat="48.05001" lon="-3.95667">
        <ele>132</ele>
        <time>2024-04-10T17:39:15.129Z</time>
      </trkpt>
      <trkpt lat="48.05013" lon="-3.9556">
        <ele>132.5</ele>
        <time>2024-04-10T17:39:27.704Z</time>
      </trkpt>
      <trkpt lat="48.05023" lon="-3.95486">
        <ele>131.4</ele>
        <time>2024-04-10T17:39:34.450Z</time>
      </trkpt>
      <trkpt lat="48.05035" lon="-3.95427">
        <ele>131.1</ele>
        <time>2024-04-10T17:39:40.698Z</time>
      </trkpt>
      <trkpt lat="48.05053" lon="-3.95364">
        <ele>130.2</ele>
        <time>2024-04-10T17:39:46.930Z</time>
      </trkpt>
      <trkpt lat="48.05073" lon="-3.95305">
        <ele>129.4</ele>
        <time>2024-04-10T17:39:53.027Z</time>
      </trkpt>
      <trkpt lat="48.05083" lon="-3.95281">
        <ele>129</ele>
        <time>2024-04-10T17:39:55.568Z</time>
      </trkpt>
      <trkpt lat="48.05094" lon="-3.9526">
        <ele>128.6</ele>
        <time>2024-04-10T17:39:57.939Z</time>
      </trkpt>
      <trkpt lat="48.05132" lon="-3.95198">
        <ele>127.5</ele>
        <time>2024-04-10T17:40:05.597Z</time>
      </trkpt>
      <trkpt lat="48.0519" lon="-3.95111">
        <ele>127</ele>
        <time>2024-04-10T17:40:18.180Z</time>
      </trkpt>
      <trkpt lat="48.05247" lon="-3.95005">
        <ele>127.8</ele>
        <time>2024-04-10T17:40:34.250Z</time>
      </trkpt>
      <trkpt lat="48.05267" lon="-3.94959">
        <ele>129.2</ele>
        <time>2024-04-10T17:40:43.212Z</time>
      </trkpt>
      <trkpt lat="48.05285" lon="-3.94923">
        <ele>129.8</ele>
        <time>2024-04-10T17:40:49.178Z</time>
      </trkpt>
      <trkpt lat="48.05301" lon="-3.949">
        <ele>130.1</ele>
        <time>2024-04-10T17:40:53.294Z</time>
      </trkpt>
      <trkpt lat="48.05319" lon="-3.94877">
        <ele>130.2</ele>
        <time>2024-04-10T17:40:57.291Z</time>
      </trkpt>
      <trkpt lat="48.05361" lon="-3.94833">
        <ele>131</ele>
        <time>2024-04-10T17:41:07.009Z</time>
      </trkpt>
      <trkpt lat="48.05428" lon="-3.94769">
        <ele>132.4</ele>
        <time>2024-04-10T17:41:22.399Z</time>
      </trkpt>
      <trkpt lat="48.05469" lon="-3.94721">
        <ele>133.8</ele>
        <time>2024-04-10T17:41:33.556Z</time>
      </trkpt>
      <trkpt lat="48.05489" lon="-3.94684">
        <ele>133.6</ele>
        <time>2024-04-10T17:41:38.419Z</time>
      </trkpt>
      <trkpt lat="48.05507" lon="-3.94653">
        <ele>134.6</ele>
        <time>2024-04-10T17:41:44.988Z</time>
      </trkpt>
      <trkpt lat="48.05522" lon="-3.94622">
        <ele>135</ele>
        <time>2024-04-10T17:41:49.838Z</time>
      </trkpt>
      <trkpt lat="48.05532" lon="-3.94593">
        <ele>135.2</ele>
        <time>2024-04-10T17:41:53.707Z</time>
      </trkpt>
      <trkpt lat="48.05539" lon="-3.94571">
        <ele>135.8</ele>
        <time>2024-04-10T17:41:57.623Z</time>
      </trkpt>
      <trkpt lat="48.05546" lon="-3.94533">
        <ele>136.7</ele>
        <time>2024-04-10T17:42:03.762Z</time>
      </trkpt>
      <trkpt lat="48.05554" lon="-3.94507">
        <ele>136.9</ele>
        <time>2024-04-10T17:42:07.200Z</time>
      </trkpt>
      <trkpt lat="48.05566" lon="-3.94482">
        <ele>136.4</ele>
        <time>2024-04-10T17:42:09.894Z</time>
      </trkpt>
      <trkpt lat="48.0559" lon="-3.94451">
        <ele>136</ele>
        <time>2024-04-10T17:42:14.476Z</time>
      </trkpt>
      <trkpt lat="48.05598" lon="-3.94443">
        <ele>136</ele>
        <time>2024-04-10T17:42:16.036Z</time>
      </trkpt>
      <trkpt lat="48.05651" lon="-3.94382">
        <ele>132.8</ele>
        <time>2024-04-10T17:42:23.381Z</time>
      </trkpt>
      <trkpt lat="48.05678" lon="-3.94353">
        <ele>131.4</ele>
        <time>2024-04-10T17:42:27.182Z</time>
      </trkpt>
      <trkpt lat="48.05804" lon="-3.94263">
        <ele>128.1</ele>
        <time>2024-04-10T17:42:45.568Z</time>
      </trkpt>
      <trkpt lat="48.05904" lon="-3.94167">
        <ele>123.6</ele>
        <time>2024-04-10T17:42:59.581Z</time>
      </trkpt>
      <trkpt lat="48.05953" lon="-3.94105">
        <ele>122.3</ele>
        <time>2024-04-10T17:43:08.269Z</time>
      </trkpt>
      <trkpt lat="48.06077" lon="-3.93955">
        <ele>123.2</ele>
        <time>2024-04-10T17:43:35.577Z</time>
      </trkpt>
      <trkpt lat="48.06094" lon="-3.93926">
        <ele>123.1</ele>
        <time>2024-04-10T17:43:39.607Z</time>
      </trkpt>
      <trkpt lat="48.06105" lon="-3.93899">
        <ele>123.3</ele>
        <time>2024-04-10T17:43:43.367Z</time>
      </trkpt>
      <trkpt lat="48.06157" lon="-3.93779">
        <ele>123.3</ele>
        <time>2024-04-10T17:43:58.866Z</time>
      </trkpt>
      <trkpt lat="48.06187" lon="-3.93693">
        <ele>125.4</ele>
        <time>2024-04-10T17:44:13.661Z</time>
      </trkpt>
      <trkpt lat="48.06201" lon="-3.93666">
        <ele>125.7</ele>
        <time>2024-04-10T17:44:17.880Z</time>
      </trkpt>
      <trkpt lat="48.06225" lon="-3.93628">
        <ele>127.3</ele>
        <time>2024-04-10T17:44:27.253Z</time>
      </trkpt>
      <trkpt lat="48.06272" lon="-3.93553">
        <ele>129.5</ele>
        <time>2024-04-10T17:44:42.866Z</time>
      </trkpt>
      <trkpt lat="48.06305" lon="-3.93494">
        <ele>132.2</ele>
        <time>2024-04-10T17:44:57.885Z</time>
      </trkpt>
      <trkpt lat="48.06334" lon="-3.93433">
        <ele>134.5</ele>
        <time>2024-04-10T17:45:11.335Z</time>
      </trkpt>
      <trkpt lat="48.06394" lon="-3.93288">
        <ele>138.4</ele>
        <time>2024-04-10T17:45:37.906Z</time>
      </trkpt>
      <trkpt lat="48.06441" lon="-3.93151">
        <ele>135.6</ele>
        <time>2024-04-10T17:45:51.075Z</time>
      </trkpt>
      <trkpt lat="48.06461" lon="-3.93087">
        <ele>135.8</ele>
        <time>2024-04-10T17:45:59.050Z</time>
      </trkpt>
      <trkpt lat="48.06475" lon="-3.93028">
        <ele>138.1</ele>
        <time>2024-04-10T17:46:11.667Z</time>
      </trkpt>
      <trkpt lat="48.0649" lon="-3.92925">
        <ele>142.8</ele>
        <time>2024-04-10T17:46:36.495Z</time>
      </trkpt>
      <trkpt lat="48.06505" lon="-3.92872">
        <ele>144.6</ele>
        <time>2024-04-10T17:46:46.943Z</time>
      </trkpt>
      <trkpt lat="48.06537" lon="-3.92778">
        <ele>148</ele>
        <time>2024-04-10T17:47:06.441Z</time>
      </trkpt>
      <trkpt lat="48.06542" lon="-3.92758">
        <ele>148.7</ele>
        <time>2024-04-10T17:47:10.429Z</time>
      </trkpt>
      <trkpt lat="48.0655" lon="-3.92712">
        <ele>149.8</ele>
        <time>2024-04-10T17:47:17.870Z</time>
      </trkpt>
      <trkpt lat="48.06558" lon="-3.92686">
        <ele>150.1</ele>
        <time>2024-04-10T17:47:21.499Z</time>
      </trkpt>
      <trkpt lat="48.06584" lon="-3.92635">
        <ele>151</ele>
        <time>2024-04-10T17:47:30.105Z</time>
      </trkpt>
      <trkpt lat="48.06608" lon="-3.92601">
        <ele>151.8</ele>
        <time>2024-04-10T17:47:36.979Z</time>
      </trkpt>
      <trkpt lat="48.06704" lon="-3.92496">
        <ele>153.9</ele>
        <time>2024-04-10T17:48:00.011Z</time>
      </trkpt>
      <trkpt lat="48.06753" lon="-3.92439">
        <ele>153</ele>
        <time>2024-04-10T17:48:08.834Z</time>
      </trkpt>
      <trkpt lat="48.06763" lon="-3.92424">
        <ele>153</ele>
        <time>2024-04-10T17:48:11.130Z</time>
      </trkpt>
      <trkpt lat="48.0677" lon="-3.92408">
        <ele>153</ele>
        <time>2024-04-10T17:48:13.202Z</time>
      </trkpt>
      <trkpt lat="48.06785" lon="-3.92355">
        <ele>151.9</ele>
        <time>2024-04-10T17:48:18.070Z</time>
      </trkpt>
      <trkpt lat="48.068" lon="-3.92312">
        <ele>151.2</ele>
        <time>2024-04-10T17:48:22.411Z</time>
      </trkpt>
      <trkpt lat="48.06836" lon="-3.92243">
        <ele>147.9</ele>
        <time>2024-04-10T17:48:28.479Z</time>
      </trkpt>
      <trkpt lat="48.06882" lon="-3.92126">
        <ele>144.8</ele>
        <time>2024-04-10T17:48:39.477Z</time>
      </trkpt>
      <trkpt lat="48.06891" lon="-3.92111">
        <ele>144.8</ele>
        <time>2024-04-10T17:48:41.662Z</time>
      </trkpt>
      <trkpt lat="48.06905" lon="-3.92098">
        <ele>144.1</ele>
        <time>2024-04-10T17:48:43.541Z</time>
      </trkpt>
      <trkpt lat="48.06915" lon="-3.92085">
        <ele>144</ele>
        <time>2024-04-10T17:48:45.543Z</time>
      </trkpt>
      <trkpt lat="48.06916" lon="-3.92079">
        <ele>144</ele>
        <time>2024-04-10T17:48:46.213Z</time>
      </trkpt>
      <trkpt lat="48.06915" lon="-3.92065">
        <ele>144.1</ele>
        <time>2024-04-10T17:48:47.907Z</time>
      </trkpt>
      <trkpt lat="48.06908" lon="-3.92017">
        <ele>144.6</ele>
        <time>2024-04-10T17:48:54.105Z</time>
      </trkpt>
      <trkpt lat="48.06873" lon="-3.919">
        <ele>142.1</ele>
        <time>2024-04-10T17:49:04.897Z</time>
      </trkpt>
      <trkpt lat="48.06867" lon="-3.91867">
        <ele>140.6</ele>
        <time>2024-04-10T17:49:07.135Z</time>
      </trkpt>
      <trkpt lat="48.06864" lon="-3.91811">
        <ele>138.1</ele>
        <time>2024-04-10T17:49:10.790Z</time>
      </trkpt>
      <trkpt lat="48.06859" lon="-3.91775">
        <ele>137.9</ele>
        <time>2024-04-10T17:49:14.485Z</time>
      </trkpt>
      <trkpt lat="48.06838" lon="-3.91688">
        <ele>140.3</ele>
        <time>2024-04-10T17:49:29.707Z</time>
      </trkpt>
      <trkpt lat="48.06828" lon="-3.91662">
        <ele>141.2</ele>
        <time>2024-04-10T17:49:35.025Z</time>
      </trkpt>
      <trkpt lat="48.06818" lon="-3.91642">
        <ele>141.9</ele>
        <time>2024-04-10T17:49:39.294Z</time>
      </trkpt>
      <trkpt lat="48.06765" lon="-3.91576">
        <ele>144.1</ele>
        <time>2024-04-10T17:49:54.941Z</time>
      </trkpt>
      <trkpt lat="48.06758" lon="-3.91565">
        <ele>144.2</ele>
        <time>2024-04-10T17:49:56.754Z</time>
      </trkpt>
      <trkpt lat="48.06748" lon="-3.91543">
        <ele>144.5</ele>
        <time>2024-04-10T17:50:00.169Z</time>
      </trkpt>
      <trkpt lat="48.06738" lon="-3.9151">
        <ele>145</ele>
        <time>2024-04-10T17:50:05.012Z</time>
      </trkpt>
      <trkpt lat="48.06729" lon="-3.91474">
        <ele>145.2</ele>
        <time>2024-04-10T17:50:09.506Z</time>
        <extensions>
          <visugpx:TrkExtension xmlns:visugpx="https://www.visugpx.com/editgpx/">
            <visugpx:node>5</visugpx:node>
            </visugpx:TrkExtension>
        </extensions>
      </trkpt>
      <trkpt lat="48.06709" lon="-3.91388">
        <ele>145.1</ele>
        <time>2024-04-10T17:50:19.220Z</time>
      </trkpt>
      <trkpt lat="48.06702" lon="-3.91361">
        <ele>145.5</ele>
        <time>2024-04-10T17:50:23.092Z</time>
      </trkpt>
      <trkpt lat="48.06688" lon="-3.91319">
        <ele>145.2</ele>
        <time>2024-04-10T17:50:27.748Z</time>
      </trkpt>
      <trkpt lat="48.06673" lon="-3.91287">
        <ele>144.6</ele>
        <time>2024-04-10T17:50:31.207Z</time>
      </trkpt>
      <trkpt lat="48.06664" lon="-3.91276">
        <ele>143.9</ele>
        <time>2024-04-10T17:50:32.383Z</time>
      </trkpt>
      <trkpt lat="48.06626" lon="-3.91224">
        <ele>141.5</ele>
        <time>2024-04-10T17:50:38.088Z</time>
      </trkpt>
      <trkpt lat="48.06571" lon="-3.91146">
        <ele>137.9</ele>
        <time>2024-04-10T17:50:46.432Z</time>
      </trkpt>
      <trkpt lat="48.06555" lon="-3.91132">
        <ele>137.2</ele>
        <time>2024-04-10T17:50:48.619Z</time>
      </trkpt>
      <trkpt lat="48.06523" lon="-3.9111">
        <ele>136.8</ele>
        <time>2024-04-10T17:50:53.765Z</time>
      </trkpt>
      <trkpt lat="48.06494" lon="-3.91095">
        <ele>136.6</ele>
        <time>2024-04-10T17:50:58.447Z</time>
      </trkpt>
      <trkpt lat="48.0646" lon="-3.9108">
        <ele>137.1</ele>
        <time>2024-04-10T17:51:05.061Z</time>
      </trkpt>
      <trkpt lat="48.06434" lon="-3.91076">
        <ele>137.2</ele>
        <time>2024-04-10T17:51:09.458Z</time>
      </trkpt>
      <trkpt lat="48.06424" lon="-3.91077">
        <ele>137.1</ele>
        <time>2024-04-10T17:51:10.940Z</time>
      </trkpt>
      <trkpt lat="48.0641" lon="-3.91087">
        <ele>137.1</ele>
        <time>2024-04-10T17:51:13.456Z</time>
      </trkpt>
      <trkpt lat="48.06398" lon="-3.911">
        <ele>137.2</ele>
        <time>2024-04-10T17:51:16.021Z</time>
      </trkpt>
      <trkpt lat="48.06314" lon="-3.9123">
        <ele>134.7</ele>
        <time>2024-04-10T17:51:32.324Z</time>
      </trkpt>
      <trkpt lat="48.06308" lon="-3.91235">
        <ele>134.5</ele>
        <time>2024-04-10T17:51:33.190Z</time>
      </trkpt>
      <trkpt lat="48.06299" lon="-3.9124">
        <ele>134.4</ele>
        <time>2024-04-10T17:51:34.605Z</time>
      </trkpt>
      <trkpt lat="48.06153" lon="-3.91283">
        <ele>128.1</ele>
        <time>2024-04-10T17:51:51.594Z</time>
      </trkpt>
      <trkpt lat="48.06137" lon="-3.91284">
        <ele>127.1</ele>
        <time>2024-04-10T17:51:53.193Z</time>
      </trkpt>
      <trkpt lat="48.06124" lon="-3.91278">
        <ele>126.5</ele>
        <time>2024-04-10T17:51:54.727Z</time>
      </trkpt>
      <trkpt lat="48.06111" lon="-3.91263">
        <ele>125.5</ele>
        <time>2024-04-10T17:51:56.382Z</time>
      </trkpt>
      <trkpt lat="48.06104" lon="-3.91241">
        <ele>124.5</ele>
        <time>2024-04-10T17:51:58.018Z</time>
      </trkpt>
      <trkpt lat="48.061" lon="-3.91214">
        <ele>123.9</ele>
        <time>2024-04-10T17:52:00.289Z</time>
      </trkpt>
      <trkpt lat="48.06108" lon="-3.91085">
        <ele>118.9</ele>
        <time>2024-04-10T17:52:09.195Z</time>
      </trkpt>
      <trkpt lat="48.06115" lon="-3.90997">
        <ele>115.3</ele>
        <time>2024-04-10T17:52:15.171Z</time>
      </trkpt>
      <trkpt lat="48.06124" lon="-3.90956">
        <ele>114.5</ele>
        <time>2024-04-10T17:52:18.846Z</time>
      </trkpt>
      <trkpt lat="48.06126" lon="-3.90945">
        <ele>114.1</ele>
        <time>2024-04-10T17:52:19.657Z</time>
      </trkpt>
      <trkpt lat="48.06132" lon="-3.90923">
        <ele>112.8</ele>
        <time>2024-04-10T17:52:21.202Z</time>
      </trkpt>
      <trkpt lat="48.0614" lon="-3.90902">
        <ele>112</ele>
        <time>2024-04-10T17:52:22.956Z</time>
      </trkpt>
      <trkpt lat="48.06151" lon="-3.90881">
        <ele>111.5</ele>
        <time>2024-04-10T17:52:25.223Z</time>
      </trkpt>
      <trkpt lat="48.06173" lon="-3.90849">
        <ele>110.1</ele>
        <time>2024-04-10T17:52:28.646Z</time>
      </trkpt>
      <trkpt lat="48.06351" lon="-3.9066">
        <ele>99</ele>
        <time>2024-04-10T17:52:52.135Z</time>
      </trkpt>
      <trkpt lat="48.06375" lon="-3.90634">
        <ele>96.7</ele>
        <time>2024-04-10T17:52:55.018Z</time>
      </trkpt>
      <trkpt lat="48.06379" lon="-3.90626">
        <ele>96.4</ele>
        <time>2024-04-10T17:52:55.766Z</time>
      </trkpt>
      <trkpt lat="48.06388" lon="-3.90608">
        <ele>95.8</ele>
        <time>2024-04-10T17:52:57.512Z</time>
      </trkpt>
      <trkpt lat="48.06395" lon="-3.90569">
        <ele>95.3</ele>
        <time>2024-04-10T17:53:01.219Z</time>
      </trkpt>
      <trkpt lat="48.06408" lon="-3.90448">
        <ele>93.6</ele>
        <time>2024-04-10T17:53:12.262Z</time>
      </trkpt>
      <trkpt lat="48.06414" lon="-3.90392">
        <ele>91.4</ele>
        <time>2024-04-10T17:53:16.153Z</time>
      </trkpt>
      <trkpt lat="48.0645" lon="-3.90086">
        <ele>83.5</ele>
        <time>2024-04-10T17:53:40.610Z</time>
      </trkpt>
      <trkpt lat="48.06451" lon="-3.90069">
        <ele>83.3</ele>
        <time>2024-04-10T17:53:42.190Z</time>
      </trkpt>
      <trkpt lat="48.0645" lon="-3.90054">
        <ele>82.8</ele>
        <time>2024-04-10T17:53:43.283Z</time>
      </trkpt>
      <trkpt lat="48.06445" lon="-3.90028">
        <ele>83</ele>
        <time>2024-04-10T17:53:46.553Z</time>
      </trkpt>
      <trkpt lat="48.06431" lon="-3.90001">
        <ele>80.6</ele>
        <time>2024-04-10T17:53:48.775Z</time>
      </trkpt>
      <trkpt lat="48.06413" lon="-3.89977">
        <ele>80.6</ele>
        <time>2024-04-10T17:53:52.684Z</time>
      </trkpt>
      <trkpt lat="48.0639" lon="-3.89945">
        <ele>81.8</ele>
        <time>2024-04-10T17:54:00.361Z</time>
      </trkpt>
      <trkpt lat="48.06352" lon="-3.89894">
        <ele>79.7</ele>
        <time>2024-04-10T17:54:06.239Z</time>
      </trkpt>
      <trkpt lat="48.06334" lon="-3.89865">
        <ele>80.7</ele>
        <time>2024-04-10T17:54:12.674Z</time>
      </trkpt>
      <trkpt lat="48.0632" lon="-3.89828">
        <ele>79.5</ele>
        <time>2024-04-10T17:54:15.921Z</time>
      </trkpt>
      <trkpt lat="48.06316" lon="-3.89796">
        <ele>79.6</ele>
        <time>2024-04-10T17:54:19.609Z</time>
      </trkpt>
      <trkpt lat="48.06318" lon="-3.89763">
        <ele>79.8</ele>
        <time>2024-04-10T17:54:23.531Z</time>
      </trkpt>
      <trkpt lat="48.06326" lon="-3.89708">
        <ele>82.7</ele>
        <time>2024-04-10T17:54:38.798Z</time>
      </trkpt>
      <trkpt lat="48.06331" lon="-3.89688">
        <ele>83.2</ele>
        <time>2024-04-10T17:54:42.157Z</time>
      </trkpt>
      <trkpt lat="48.06338" lon="-3.89667">
        <ele>83.3</ele>
        <time>2024-04-10T17:54:44.863Z</time>
      </trkpt>
      <trkpt lat="48.06349" lon="-3.89642">
        <ele>84.3</ele>
        <time>2024-04-10T17:54:50.520Z</time>
      </trkpt>
      <trkpt lat="48.06422" lon="-3.89499">
        <ele>89.2</ele>
        <time>2024-04-10T17:55:20.832Z</time>
      </trkpt>
      <trkpt lat="48.06501" lon="-3.89355">
        <ele>96.3</ele>
        <time>2024-04-10T17:55:59.397Z</time>
      </trkpt>
      <trkpt lat="48.06541" lon="-3.8928">
        <ele>99.4</ele>
        <time>2024-04-10T17:56:17.158Z</time>
      </trkpt>
      <trkpt lat="48.06613" lon="-3.89125">
        <ele>106.5</ele>
        <time>2024-04-10T17:56:55.854Z</time>
      </trkpt>
      <trkpt lat="48.06619" lon="-3.89107">
        <ele>107</ele>
        <time>2024-04-10T17:56:59.100Z</time>
      </trkpt>
      <trkpt lat="48.06627" lon="-3.89062">
        <ele>106.8</ele>
        <time>2024-04-10T17:57:03.853Z</time>
      </trkpt>
      <trkpt lat="48.06652" lon="-3.88794">
        <ele>118.4</ele>
        <time>2024-04-10T17:58:05.419Z</time>
      </trkpt>
      <trkpt lat="48.06652" lon="-3.88779">
        <ele>118.7</ele>
        <time>2024-04-10T17:58:07.642Z</time>
      </trkpt>
      <trkpt lat="48.06648" lon="-3.88752">
        <ele>119.1</ele>
        <time>2024-04-10T17:58:11.379Z</time>
      </trkpt>
      <trkpt lat="48.06586" lon="-3.88623">
        <ele>125.9</ele>
        <time>2024-04-10T17:58:47.478Z</time>
      </trkpt>
      <trkpt lat="48.06577" lon="-3.88597">
        <ele>127</ele>
        <time>2024-04-10T17:58:53.475Z</time>
      </trkpt>
      <trkpt lat="48.06574" lon="-3.8857">
        <ele>128</ele>
        <time>2024-04-10T17:58:58.969Z</time>
      </trkpt>
      <trkpt lat="48.06579" lon="-3.88542">
        <ele>129.1</ele>
        <time>2024-04-10T17:59:04.950Z</time>
      </trkpt>
      <trkpt lat="48.06594" lon="-3.88493">
        <ele>131.1</ele>
        <time>2024-04-10T17:59:15.890Z</time>
      </trkpt>
      <trkpt lat="48.06641" lon="-3.88365">
        <ele>135.4</ele>
        <time>2024-04-10T17:59:41.512Z</time>
      </trkpt>
      <trkpt lat="48.0665" lon="-3.88333">
        <ele>135.8</ele>
        <time>2024-04-10T17:59:45.986Z</time>
      </trkpt>
      <trkpt lat="48.06668" lon="-3.88247">
        <ele>140</ele>
        <time>2024-04-10T18:00:08.098Z</time>
      </trkpt>
      <trkpt lat="48.06671" lon="-3.88207">
        <ele>141.9</ele>
        <time>2024-04-10T18:00:18.095Z</time>
      </trkpt>
      <trkpt lat="48.06671" lon="-3.88188">
        <ele>142.6</ele>
        <time>2024-04-10T18:00:21.931Z</time>
      </trkpt>
      <trkpt lat="48.06636" lon="-3.8795">
        <ele>148.9</ele>
        <time>2024-04-10T18:01:01.969Z</time>
      </trkpt>
      <trkpt lat="48.06632" lon="-3.87902">
        <ele>149</ele>
        <time>2024-04-10T18:01:07.368Z</time>
      </trkpt>
      <trkpt lat="48.06634" lon="-3.87855">
        <ele>149</ele>
        <time>2024-04-10T18:01:12.471Z</time>
      </trkpt>
      <trkpt lat="48.06636" lon="-3.87836">
        <ele>148.9</ele>
        <time>2024-04-10T18:01:14.410Z</time>
      </trkpt>
      <trkpt lat="48.06649" lon="-3.8768">
        <ele>148.7</ele>
        <time>2024-04-10T18:01:31.141Z</time>
      </trkpt>
      <trkpt lat="48.06674" lon="-3.87473">
        <ele>148.3</ele>
        <time>2024-04-10T18:01:53.331Z</time>
      </trkpt>
      <trkpt lat="48.06695" lon="-3.87283">
        <ele>149</ele>
        <time>2024-04-10T18:02:15.326Z</time>
      </trkpt>
      <trkpt lat="48.06697" lon="-3.8725">
        <ele>150.1</ele>
        <time>2024-04-10T18:02:21.564Z</time>
      </trkpt>
      <trkpt lat="48.06715" lon="-3.86961">
        <ele>160</ele>
        <time>2024-04-10T18:03:17.161Z</time>
      </trkpt>
      <trkpt lat="48.06724" lon="-3.86826">
        <ele>163.3</ele>
        <time>2024-04-10T18:03:38.849Z</time>
      </trkpt>
      <trkpt lat="48.06745" lon="-3.86658">
        <ele>166.1</ele>
        <time>2024-04-10T18:04:02.683Z</time>
      </trkpt>
      <trkpt lat="48.06749" lon="-3.86614">
        <ele>166</ele>
        <time>2024-04-10T18:04:07.344Z</time>
      </trkpt>
      <trkpt lat="48.0675" lon="-3.86574">
        <ele>167</ele>
        <time>2024-04-10T18:04:13.819Z</time>
      </trkpt>
      <trkpt lat="48.06758" lon="-3.86506">
        <ele>167.6</ele>
        <time>2024-04-10T18:04:22.330Z</time>
      </trkpt>
      <trkpt lat="48.06787" lon="-3.86286">
        <ele>170.5</ele>
        <time>2024-04-10T18:04:51.886Z</time>
      </trkpt>
      <trkpt lat="48.06789" lon="-3.86246">
        <ele>171</ele>
        <time>2024-04-10T18:04:57.133Z</time>
      </trkpt>
      <trkpt lat="48.06788" lon="-3.8621">
        <ele>171.3</ele>
        <time>2024-04-10T18:05:01.550Z</time>
      </trkpt>
      <trkpt lat="48.06782" lon="-3.8612">
        <ele>172.6</ele>
        <time>2024-04-10T18:05:13.753Z</time>
      </trkpt>
      <trkpt lat="48.06783" lon="-3.86089">
        <ele>173</ele>
        <time>2024-04-10T18:05:17.840Z</time>
      </trkpt>
      <trkpt lat="48.06789" lon="-3.86013">
        <ele>173.6</ele>
        <time>2024-04-10T18:05:27.151Z</time>
      </trkpt>
      <trkpt lat="48.0679" lon="-3.85975">
        <ele>174.1</ele>
        <time>2024-04-10T18:05:32.181Z</time>
      </trkpt>
      <trkpt lat="48.06786" lon="-3.85871">
        <ele>175.7</ele>
        <time>2024-04-10T18:05:46.465Z</time>
      </trkpt>
      <trkpt lat="48.0678" lon="-3.85813">
        <ele>177</ele>
        <time>2024-04-10T18:05:55.494Z</time>
      </trkpt>
      <trkpt lat="48.06775" lon="-3.85783">
        <ele>177.1</ele>
        <time>2024-04-10T18:05:59.005Z</time>
      </trkpt>
      <trkpt lat="48.06768" lon="-3.85757">
        <ele>178.1</ele>
        <time>2024-04-10T18:06:04.538Z</time>
      </trkpt>
      <trkpt lat="48.06758" lon="-3.85731">
        <ele>178.2</ele>
        <time>2024-04-10T18:06:07.949Z</time>
      </trkpt>
      <trkpt lat="48.06724" lon="-3.85668">
        <ele>179</ele>
        <time>2024-04-10T18:06:18.118Z</time>
      </trkpt>
      <trkpt lat="48.06657" lon="-3.85523">
        <ele>181.2</ele>
        <time>2024-04-10T18:06:41.185Z</time>
      </trkpt>
      <trkpt lat="48.06622" lon="-3.85423">
        <ele>182.9</ele>
        <time>2024-04-10T18:06:56.588Z</time>
      </trkpt>
      <trkpt lat="48.06614" lon="-3.85387">
        <ele>183</ele>
        <time>2024-04-10T18:07:00.858Z</time>
      </trkpt>
      <trkpt lat="48.06608" lon="-3.85358">
        <ele>183.1</ele>
        <time>2024-04-10T18:07:04.308Z</time>
      </trkpt>
      <trkpt lat="48.06604" lon="-3.85311">
        <ele>184</ele>
        <time>2024-04-10T18:07:11.211Z</time>
      </trkpt>
      <trkpt lat="48.06603" lon="-3.85262">
        <ele>184.7</ele>
        <time>2024-04-10T18:07:17.815Z</time>
      </trkpt>
      <trkpt lat="48.06607" lon="-3.84985">
        <ele>187.1</ele>
        <time>2024-04-10T18:07:51.956Z</time>
      </trkpt>
      <trkpt lat="48.06609" lon="-3.84914">
        <ele>188</ele>
        <time>2024-04-10T18:08:01.282Z</time>
      </trkpt>
      <trkpt lat="48.06608" lon="-3.84635">
        <ele>188.3</ele>
        <time>2024-04-10T18:08:31.982Z</time>
      </trkpt>
      <trkpt lat="48.06609" lon="-3.84521">
        <ele>189.1</ele>
        <time>2024-04-10T18:08:45.681Z</time>
      </trkpt>
      <trkpt lat="48.06612" lon="-3.84461">
        <ele>189.9</ele>
        <time>2024-04-10T18:08:53.658Z</time>
      </trkpt>
      <trkpt lat="48.06612" lon="-3.84432">
        <ele>189.9</ele>
        <time>2024-04-10T18:08:56.800Z</time>
      </trkpt>
      <trkpt lat="48.06611" lon="-3.84372">
        <ele>191</ele>
        <time>2024-04-10T18:09:05.447Z</time>
      </trkpt>
      <trkpt lat="48.06603" lon="-3.84297">
        <ele>192.5</ele>
        <time>2024-04-10T18:09:16.657Z</time>
      </trkpt>
      <trkpt lat="48.06577" lon="-3.84142">
        <ele>196.2</ele>
        <time>2024-04-10T18:09:41.680Z</time>
      </trkpt>
      <trkpt lat="48.06575" lon="-3.84126">
        <ele>197.1</ele>
        <time>2024-04-10T18:09:46.447Z</time>
      </trkpt>
      <trkpt lat="48.06562" lon="-3.84007">
        <ele>201.7</ele>
        <time>2024-04-10T18:10:11.427Z</time>
      </trkpt>
      <trkpt lat="48.06547" lon="-3.83835">
        <ele>206.9</ele>
        <time>2024-04-10T18:10:42.161Z</time>
      </trkpt>
      <trkpt lat="48.06544" lon="-3.83815">
        <ele>207.4</ele>
        <time>2024-04-10T18:10:45.442Z</time>
      </trkpt>
      <trkpt lat="48.06535" lon="-3.83768">
        <ele>208.1</ele>
        <time>2024-04-10T18:10:52.032Z</time>
      </trkpt>
      <trkpt lat="48.06518" lon="-3.83717">
        <ele>208.8</ele>
        <time>2024-04-10T18:10:59.466Z</time>
      </trkpt>
      <trkpt lat="48.06496" lon="-3.83667">
        <ele>209.8</ele>
        <time>2024-04-10T18:11:07.860Z</time>
      </trkpt>
      <trkpt lat="48.06444" lon="-3.83564">
        <ele>210.7</ele>
        <time>2024-04-10T18:11:23.359Z</time>
      </trkpt>
      <trkpt lat="48.06409" lon="-3.83481">
        <ele>210.6</ele>
        <time>2024-04-10T18:11:33.841Z</time>
      </trkpt>
      <trkpt lat="48.06396" lon="-3.83459">
        <ele>209.4</ele>
        <time>2024-04-10T18:11:35.817Z</time>
        <extensions>
          <visugpx:TrkExtension xmlns:visugpx="https://www.visugpx.com/editgpx/">
            <visugpx:node>6</visugpx:node>
            </visugpx:TrkExtension>
        </extensions>
      </trkpt>
      <trkpt lat="48.06372" lon="-3.83419">
        <ele>207.5</ele>
        <time>2024-04-10T18:11:39.631Z</time>
      </trkpt>
      <trkpt lat="48.06343" lon="-3.8336">
        <ele>204.7</ele>
        <time>2024-04-10T18:11:44.683Z</time>
      </trkpt>
      <trkpt lat="48.06319" lon="-3.83317">
        <ele>205.1</ele>
        <time>2024-04-10T18:11:51.427Z</time>
      </trkpt>
      <trkpt lat="48.06313" lon="-3.83308">
        <ele>205.6</ele>
        <time>2024-04-10T18:11:54.123Z</time>
      </trkpt>
      <trkpt lat="48.06279" lon="-3.83275">
        <ele>208.1</ele>
        <time>2024-04-10T18:12:07.474Z</time>
      </trkpt>
      <trkpt lat="48.0623" lon="-3.83246">
        <ele>213</ele>
        <time>2024-04-10T18:12:33.921Z</time>
      </trkpt>
      <trkpt lat="48.06184" lon="-3.83222">
        <ele>215.4</ele>
        <time>2024-04-10T18:12:47.573Z</time>
      </trkpt>
      <trkpt lat="48.06167" lon="-3.83213">
        <ele>216.3</ele>
        <time>2024-04-10T18:12:52.667Z</time>
      </trkpt>
      <trkpt lat="48.06145" lon="-3.83197">
        <ele>217.1</ele>
        <time>2024-04-10T18:12:58.270Z</time>
      </trkpt>
      <trkpt lat="48.06124" lon="-3.8318">
        <ele>218.6</ele>
        <time>2024-04-10T18:13:06.256Z</time>
      </trkpt>
      <trkpt lat="48.06116" lon="-3.83171">
        <ele>218.9</ele>
        <time>2024-04-10T18:13:08.477Z</time>
      </trkpt>
      <trkpt lat="48.06109" lon="-3.83157">
        <ele>219.3</ele>
        <time>2024-04-10T18:13:11.202Z</time>
      </trkpt>
      <trkpt lat="48.061" lon="-3.83129">
        <ele>220.4</ele>
        <time>2024-04-10T18:13:17.304Z</time>
      </trkpt>
      <trkpt lat="48.06093" lon="-3.83109">
        <ele>221.1</ele>
        <time>2024-04-10T18:13:21.382Z</time>
      </trkpt>
      <trkpt lat="48.061" lon="-3.831">
        <ele>221.4</ele>
        <time>2024-04-10T18:13:23.491Z</time>
      </trkpt>
      <trkpt lat="48.06104" lon="-3.83083">
        <ele>222</ele>
        <time>2024-04-10T18:13:26.890Z</time>
      </trkpt>
      <trkpt lat="48.06109" lon="-3.83055">
        <ele>223</ele>
        <time>2024-04-10T18:13:32.483Z</time>
      </trkpt>
      <trkpt lat="48.06107" lon="-3.83052">
        <ele>223.1</ele>
        <time>2024-04-10T18:13:33.152Z</time>
      </trkpt>
      <trkpt lat="48.06107" lon="-3.83047">
        <ele>223.3</ele>
        <time>2024-04-10T18:13:34.227Z</time>
      </trkpt>
      <trkpt lat="48.06097" lon="-3.83042">
        <ele>223.5</ele>
        <time>2024-04-10T18:13:36.298Z</time>
      </trkpt>
      <trkpt lat="48.06077" lon="-3.83038">
        <ele>223.5</ele>
        <time>2024-04-10T18:13:39.569Z</time>
      </trkpt>
      <trkpt lat="48.0607" lon="-3.83037">
        <ele>223.5</ele>
        <time>2024-04-10T18:13:40.709Z</time>
      </trkpt>
      <trkpt lat="48.06067" lon="-3.83036">
        <ele>223.5</ele>
        <time>2024-04-10T18:13:41.208Z</time>
      </trkpt>
      <trkpt lat="48.0606" lon="-3.83035">
        <ele>223.5</ele>
        <time>2024-04-10T18:13:42.348Z</time>
      </trkpt>
      <trkpt lat="48.06051" lon="-3.83032">
        <ele>223.7</ele>
        <time>2024-04-10T18:13:44.213Z</time>
      </trkpt>
      <trkpt lat="48.06005" lon="-3.83005">
        <ele>224.8</ele>
        <time>2024-04-10T18:13:54.272Z</time>
      </trkpt>
      <trkpt lat="48.05977" lon="-3.82985">
        <ele>225.1</ele>
        <time>2024-04-10T18:13:59.803Z</time>
      </trkpt>
      <trkpt lat="48.05952" lon="-3.82965">
        <ele>225</ele>
        <time>2024-04-10T18:14:04.250Z</time>
      </trkpt>
      <trkpt lat="48.05922" lon="-3.82937">
        <ele>225.1</ele>
        <time>2024-04-10T18:14:10.141Z</time>
      </trkpt>
      <trkpt lat="48.05897" lon="-3.82907">
        <ele>224.8</ele>
        <time>2024-04-10T18:14:14.907Z</time>
      </trkpt>
      <trkpt lat="48.05878" lon="-3.82885">
        <ele>223.9</ele>
        <time>2024-04-10T18:14:17.750Z</time>
      </trkpt>
      <trkpt lat="48.05855" lon="-3.82854">
        <ele>222.7</ele>
        <time>2024-04-10T18:14:21.377Z</time>
      </trkpt>
      <trkpt lat="48.05829" lon="-3.82816">
        <ele>221.5</ele>
        <time>2024-04-10T18:14:25.822Z</time>
      </trkpt>
      <trkpt lat="48.058" lon="-3.82767">
        <ele>219.7</ele>
        <time>2024-04-10T18:14:30.859Z</time>
      </trkpt>
      <trkpt lat="48.05783" lon="-3.82748">
        <ele>218.1</ele>
        <time>2024-04-10T18:14:32.924Z</time>
      </trkpt>
      <trkpt lat="48.05777" lon="-3.82748">
        <ele>217.9</ele>
        <time>2024-04-10T18:14:33.656Z</time>
      </trkpt>
      <trkpt lat="48.05773" lon="-3.82743">
        <ele>217.7</ele>
        <time>2024-04-10T18:14:34.268Z</time>
      </trkpt>
      <trkpt lat="48.05771" lon="-3.82737">
        <ele>217.4</ele>
        <time>2024-04-10T18:14:34.704Z</time>
      </trkpt>
      <trkpt lat="48.05762" lon="-3.82729">
        <ele>216.8</ele>
        <time>2024-04-10T18:14:35.784Z</time>
      </trkpt>
      <trkpt lat="48.05729" lon="-3.82709">
        <ele>214.9</ele>
        <time>2024-04-10T18:14:39.552Z</time>
      </trkpt>
      <trkpt lat="48.05692" lon="-3.82705">
        <ele>211.8</ele>
        <time>2024-04-10T18:14:43.161Z</time>
      </trkpt>
      <trkpt lat="48.05578" lon="-3.82725">
        <ele>207.4</ele>
        <time>2024-04-10T18:14:56.652Z</time>
      </trkpt>
      <trkpt lat="48.05543" lon="-3.82726">
        <ele>208.2</ele>
        <time>2024-04-10T18:15:03.825Z</time>
      </trkpt>
      <trkpt lat="48.05522" lon="-3.82724">
        <ele>208.1</ele>
        <time>2024-04-10T18:15:07.088Z</time>
      </trkpt>
      <trkpt lat="48.05503" lon="-3.8272">
        <ele>207.8</ele>
        <time>2024-04-10T18:15:09.789Z</time>
      </trkpt>
      <trkpt lat="48.05173" lon="-3.82638">
        <ele>210</ele>
        <time>2024-04-10T18:16:07.608Z</time>
      </trkpt>
      <trkpt lat="48.05018" lon="-3.82602">
        <ele>207.6</ele>
        <time>2024-04-10T18:16:29.754Z</time>
      </trkpt>
      <trkpt lat="48.04981" lon="-3.82602">
        <ele>206.3</ele>
        <time>2024-04-10T18:16:34.208Z</time>
      </trkpt>
      <trkpt lat="48.04932" lon="-3.82616">
        <ele>205</ele>
        <time>2024-04-10T18:16:40.650Z</time>
      </trkpt>
      <trkpt lat="48.04794" lon="-3.82662">
        <ele>201.9</ele>
        <time>2024-04-10T18:16:59.530Z</time>
      </trkpt>
      <trkpt lat="48.04762" lon="-3.82666">
        <ele>201.4</ele>
        <time>2024-04-10T18:17:04.053Z</time>
      </trkpt>
      <trkpt lat="48.04678" lon="-3.82663">
        <ele>199.9</ele>
        <time>2024-04-10T18:17:15.661Z</time>
      </trkpt>
      <trkpt lat="48.04558" lon="-3.82645">
        <ele>199.2</ele>
        <time>2024-04-10T18:17:34.185Z</time>
      </trkpt>
      <trkpt lat="48.04522" lon="-3.82636">
        <ele>199</ele>
        <time>2024-04-10T18:17:39.808Z</time>
      </trkpt>
      <trkpt lat="48.0445" lon="-3.82615">
        <ele>199.8</ele>
        <time>2024-04-10T18:17:53.051Z</time>
      </trkpt>
      <trkpt lat="48.04397" lon="-3.82596">
        <ele>200</ele>
        <time>2024-04-10T18:18:02.206Z</time>
      </trkpt>
      <trkpt lat="48.04371" lon="-3.82583">
        <ele>200</ele>
        <time>2024-04-10T18:18:06.651Z</time>
      </trkpt>
      <trkpt lat="48.04346" lon="-3.82566">
        <ele>200.5</ele>
        <time>2024-04-10T18:18:12.001Z</time>
      </trkpt>
      <trkpt lat="48.04317" lon="-3.82551">
        <ele>200.9</ele>
        <time>2024-04-10T18:18:17.663Z</time>
      </trkpt>
      <trkpt lat="48.04292" lon="-3.82541">
        <ele>201</ele>
        <time>2024-04-10T18:18:22.018Z</time>
      </trkpt>
      <trkpt lat="48.04198" lon="-3.82525">
        <ele>200</ele>
        <time>2024-04-10T18:18:35.939Z</time>
      </trkpt>
      <trkpt lat="48.04136" lon="-3.82525">
        <ele>200</ele>
        <time>2024-04-10T18:18:45.992Z</time>
      </trkpt>
      <trkpt lat="48.04064" lon="-3.82528">
        <ele>200</ele>
        <time>2024-04-10T18:18:57.671Z</time>
      </trkpt>
      <trkpt lat="48.03991" lon="-3.8252">
        <ele>200</ele>
        <time>2024-04-10T18:19:09.539Z</time>
      </trkpt>
      <trkpt lat="48.03926" lon="-3.82506">
        <ele>199.3</ele>
        <time>2024-04-10T18:19:19.194Z</time>
      </trkpt>
      <trkpt lat="48.03874" lon="-3.82476">
        <ele>199</ele>
        <time>2024-04-10T18:19:27.788Z</time>
      </trkpt>
      <trkpt lat="48.03839" lon="-3.82452">
        <ele>198.1</ele>
        <time>2024-04-10T18:19:32.869Z</time>
      </trkpt>
      <trkpt lat="48.0381" lon="-3.82439">
        <ele>197.1</ele>
        <time>2024-04-10T18:19:36.571Z</time>
      </trkpt>
      <trkpt lat="48.0378" lon="-3.82428">
        <ele>196.5</ele>
        <time>2024-04-10T18:19:40.783Z</time>
      </trkpt>
      <trkpt lat="48.03757" lon="-3.82425">
        <ele>195.6</ele>
        <time>2024-04-10T18:19:43.483Z</time>
      </trkpt>
      <trkpt lat="48.03504" lon="-3.82424">
        <ele>192.4</ele>
        <time>2024-04-10T18:20:20.034Z</time>
      </trkpt>
      <trkpt lat="48.0344" lon="-3.82433">
        <ele>191.5</ele>
        <time>2024-04-10T18:20:29.213Z</time>
      </trkpt>
      <trkpt lat="48.03394" lon="-3.82443">
        <ele>191</ele>
        <time>2024-04-10T18:20:36.041Z</time>
      </trkpt>
      <trkpt lat="48.03346" lon="-3.82457">
        <ele>190.2</ele>
        <time>2024-04-10T18:20:42.883Z</time>
      </trkpt>
      <trkpt lat="48.03331" lon="-3.82462">
        <ele>190</ele>
        <time>2024-04-10T18:20:45.096Z</time>
      </trkpt>
      <trkpt lat="48.03219" lon="-3.82509">
        <ele>189</ele>
        <time>2024-04-10T18:21:02.517Z</time>
      </trkpt>
      <trkpt lat="48.03188" lon="-3.82519">
        <ele>188.8</ele>
        <time>2024-04-10T18:21:07.366Z</time>
      </trkpt>
      <trkpt lat="48.03136" lon="-3.82529">
        <ele>188</ele>
        <time>2024-04-10T18:21:14.770Z</time>
      </trkpt>
      <trkpt lat="48.03111" lon="-3.82529">
        <ele>188</ele>
        <time>2024-04-10T18:21:18.824Z</time>
      </trkpt>
      <trkpt lat="48.03096" lon="-3.82526">
        <ele>187.4</ele>
        <time>2024-04-10T18:21:20.586Z</time>
      </trkpt>
      <trkpt lat="48.03079" lon="-3.82521">
        <ele>186.8</ele>
        <time>2024-04-10T18:21:22.679Z</time>
      </trkpt>
      <trkpt lat="48.03038" lon="-3.82502">
        <ele>185.4</ele>
        <time>2024-04-10T18:21:27.945Z</time>
      </trkpt>
      <trkpt lat="48.02972" lon="-3.82471">
        <ele>182</ele>
        <time>2024-04-10T18:21:35.477Z</time>
      </trkpt>
      <trkpt lat="48.02937" lon="-3.82463">
        <ele>180.4</ele>
        <time>2024-04-10T18:21:39.439Z</time>
      </trkpt>
      <trkpt lat="48.02897" lon="-3.82467">
        <ele>178.4</ele>
        <time>2024-04-10T18:21:43.781Z</time>
      </trkpt>
      <trkpt lat="48.0286" lon="-3.82478">
        <ele>178.2</ele>
        <time>2024-04-10T18:21:49.602Z</time>
      </trkpt>
      <trkpt lat="48.02852" lon="-3.82479">
        <ele>178.2</ele>
        <time>2024-04-10T18:21:50.904Z</time>
      </trkpt>
      <trkpt lat="48.02852" lon="-3.82483">
        <ele>178.3</ele>
        <time>2024-04-10T18:21:51.552Z</time>
      </trkpt>
      <trkpt lat="48.0285" lon="-3.82492">
        <ele>178.4</ele>
        <time>2024-04-10T18:21:52.756Z</time>
      </trkpt>
      <trkpt lat="48.02843" lon="-3.82501">
        <ele>178.4</ele>
        <time>2024-04-10T18:21:54.253Z</time>
      </trkpt>
      <trkpt lat="48.02836" lon="-3.825">
        <ele>178.1</ele>
        <time>2024-04-10T18:21:55.054Z</time>
      </trkpt>
      <trkpt lat="48.02832" lon="-3.82498">
        <ele>177.9</ele>
        <time>2024-04-10T18:21:55.518Z</time>
      </trkpt>
      <trkpt lat="48.0283" lon="-3.82494">
        <ele>177.9</ele>
        <time>2024-04-10T18:21:56.060Z</time>
      </trkpt>
      <trkpt lat="48.02827" lon="-3.82485">
        <ele>177.6</ele>
        <time>2024-04-10T18:21:56.815Z</time>
      </trkpt>
      <trkpt lat="48.02799" lon="-3.82488">
        <ele>176.4</ele>
        <time>2024-04-10T18:22:00.011Z</time>
      </trkpt>
      <trkpt lat="48.02741" lon="-3.82487">
        <ele>175.2</ele>
        <time>2024-04-10T18:22:07.836Z</time>
      </trkpt>
      <trkpt lat="48.02707" lon="-3.82486">
        <ele>174.5</ele>
        <time>2024-04-10T18:22:12.428Z</time>
      </trkpt>
      <trkpt lat="48.02683" lon="-3.82487">
        <ele>174.5</ele>
        <time>2024-04-10T18:22:16.321Z</time>
      </trkpt>
      <trkpt lat="48.02673" lon="-3.82488">
        <ele>174.6</ele>
        <time>2024-04-10T18:22:18.113Z</time>
        <extensions>
          <visugpx:TrkExtension xmlns:visugpx="https://www.visugpx.com/editgpx/">
            <visugpx:node>7</visugpx:node>
            </visugpx:TrkExtension>
        </extensions>
      </trkpt>
      <trkpt lat="48.02668" lon="-3.82488">
        <ele>174.6</ele>
        <time>2024-04-10T18:22:18.924Z</time>
      </trkpt>
      <trkpt lat="48.02639" lon="-3.82495">
        <ele>175.8</ele>
        <time>2024-04-10T18:22:26.338Z</time>
      </trkpt>
      <trkpt lat="48.0261" lon="-3.82503">
        <ele>176</ele>
        <time>2024-04-10T18:22:31.445Z</time>
      </trkpt>
      <trkpt lat="48.02592" lon="-3.82505">
        <ele>176.1</ele>
        <time>2024-04-10T18:22:34.533Z</time>
      </trkpt>
      <trkpt lat="48.02563" lon="-3.82503">
        <ele>176.8</ele>
        <time>2024-04-10T18:22:40.564Z</time>
      </trkpt>
      <trkpt lat="48.02546" lon="-3.82507">
        <ele>176.7</ele>
        <time>2024-04-10T18:22:43.208Z</time>
      </trkpt>
      <trkpt lat="48.02515" lon="-3.82519">
        <ele>176.2</ele>
        <time>2024-04-10T18:22:47.716Z</time>
      </trkpt>
      <trkpt lat="48.02495" lon="-3.82521">
        <ele>175.4</ele>
        <time>2024-04-10T18:22:50.045Z</time>
      </trkpt>
      <trkpt lat="48.02486" lon="-3.82522">
        <ele>174.9</ele>
        <time>2024-04-10T18:22:50.988Z</time>
      </trkpt>
      <trkpt lat="48.02481" lon="-3.82522">
        <ele>174.6</ele>
        <time>2024-04-10T18:22:51.495Z</time>
      </trkpt>
      <trkpt lat="48.02462" lon="-3.82527">
        <ele>173.6</ele>
        <time>2024-04-10T18:22:53.557Z</time>
      </trkpt>
      <trkpt lat="48.02425" lon="-3.82547">
        <ele>172.8</ele>
        <time>2024-04-10T18:22:58.881Z</time>
      </trkpt>
      <trkpt lat="48.02409" lon="-3.82551">
        <ele>172.6</ele>
        <time>2024-04-10T18:23:01.231Z</time>
      </trkpt>
      <trkpt lat="48.02399" lon="-3.82552">
        <ele>172.2</ele>
        <time>2024-04-10T18:23:02.396Z</time>
      </trkpt>
      <trkpt lat="48.02396" lon="-3.8262">
        <ele>173.4</ele>
        <time>2024-04-10T18:23:12.101Z</time>
      </trkpt>
      <trkpt lat="48.02387" lon="-3.82664">
        <ele>174.8</ele>
        <time>2024-04-10T18:23:20.325Z</time>
      </trkpt>
      <trkpt lat="48.0238" lon="-3.82686">
        <ele>174.9</ele>
        <time>2024-04-10T18:23:23.129Z</time>
      </trkpt>
      <trkpt lat="48.02371" lon="-3.82707">
        <ele>175.2</ele>
        <time>2024-04-10T18:23:26.372Z</time>
      </trkpt>
      <trkpt lat="48.02339" lon="-3.82764">
        <ele>175.7</ele>
        <time>2024-04-10T18:23:35.279Z</time>
      </trkpt>
      <trkpt lat="48.02319" lon="-3.82801">
        <ele>175.9</ele>
        <time>2024-04-10T18:23:40.763Z</time>
      </trkpt>
      <trkpt lat="48.02234" lon="-3.82969">
        <ele>177.4</ele>
        <time>2024-04-10T18:24:06.132Z</time>
      </trkpt>
      <trkpt lat="48.022" lon="-3.8302">
        <ele>177</ele>
        <time>2024-04-10T18:24:13.363Z</time>
      </trkpt>
      <trkpt lat="48.02171" lon="-3.83048">
        <ele>176</ele>
        <time>2024-04-10T18:24:17.720Z</time>
      </trkpt>
      <trkpt lat="48.02157" lon="-3.83057">
        <ele>176</ele>
        <time>2024-04-10T18:24:20.190Z</time>
      </trkpt>
      <trkpt lat="48.02117" lon="-3.83079">
        <ele>175</ele>
        <time>2024-04-10T18:24:25.811Z</time>
      </trkpt>
      <trkpt lat="48.02057" lon="-3.83107">
        <ele>174</ele>
        <time>2024-04-10T18:24:34.639Z</time>
      </trkpt>
      <trkpt lat="48.02013" lon="-3.83136">
        <ele>173</ele>
        <time>2024-04-10T18:24:41.120Z</time>
      </trkpt>
      <trkpt lat="48.01991" lon="-3.83156">
        <ele>173</ele>
        <time>2024-04-10T18:24:45.295Z</time>
      </trkpt>
      <trkpt lat="48.01963" lon="-3.83192">
        <ele>173</ele>
        <time>2024-04-10T18:24:51.283Z</time>
      </trkpt>
      <trkpt lat="48.0194" lon="-3.83227">
        <ele>172</ele>
        <time>2024-04-10T18:24:55.376Z</time>
      </trkpt>
      <trkpt lat="48.01903" lon="-3.8329">
        <ele>170.6</ele>
        <time>2024-04-10T18:25:02.682Z</time>
      </trkpt>
      <trkpt lat="48.0188" lon="-3.83344">
        <ele>169.2</ele>
        <time>2024-04-10T18:25:07.932Z</time>
      </trkpt>
      <trkpt lat="48.01869" lon="-3.8336">
        <ele>169</ele>
        <time>2024-04-10T18:25:10.142Z</time>
      </trkpt>
      <trkpt lat="48.01813" lon="-3.83426">
        <ele>167.4</ele>
        <time>2024-04-10T18:25:19.625Z</time>
      </trkpt>
      <trkpt lat="48.01789" lon="-3.83447">
        <ele>167.5</ele>
        <time>2024-04-10T18:25:24.292Z</time>
      </trkpt>
      <trkpt lat="48.01717" lon="-3.83502">
        <ele>168.2</ele>
        <time>2024-04-10T18:25:38.561Z</time>
      </trkpt>
      <trkpt lat="48.01705" lon="-3.83523">
        <ele>169.1</ele>
        <time>2024-04-10T18:25:43.702Z</time>
      </trkpt>
      <trkpt lat="48.01648" lon="-3.83634">
        <ele>175.1</ele>
        <time>2024-04-10T18:26:15.550Z</time>
      </trkpt>
      <trkpt lat="48.0159" lon="-3.83754">
        <ele>179</ele>
        <time>2024-04-10T18:26:40.102Z</time>
      </trkpt>
      <trkpt lat="48.01577" lon="-3.83786">
        <ele>179.2</ele>
        <time>2024-04-10T18:26:44.492Z</time>
      </trkpt>
      <trkpt lat="48.0156" lon="-3.83841">
        <ele>178.7</ele>
        <time>2024-04-10T18:26:50.363Z</time>
      </trkpt>
      <trkpt lat="48.01509" lon="-3.84058">
        <ele>175.9</ele>
        <time>2024-04-10T18:27:11.556Z</time>
      </trkpt>
      <trkpt lat="48.01486" lon="-3.84152">
        <ele>174.5</ele>
        <time>2024-04-10T18:27:20.572Z</time>
      </trkpt>
      <trkpt lat="48.01475" lon="-3.84186">
        <ele>174.1</ele>
        <time>2024-04-10T18:27:24.123Z</time>
      </trkpt>
      <trkpt lat="48.01461" lon="-3.84222">
        <ele>173.2</ele>
        <time>2024-04-10T18:27:27.548Z</time>
      </trkpt>
      <trkpt lat="48.01405" lon="-3.84345">
        <ele>169.4</ele>
        <time>2024-04-10T18:27:39.260Z</time>
      </trkpt>
      <trkpt lat="48.01376" lon="-3.84398">
        <ele>168.1</ele>
        <time>2024-04-10T18:27:45.067Z</time>
      </trkpt>
      <trkpt lat="48.01338" lon="-3.84442">
        <ele>165.4</ele>
        <time>2024-04-10T18:27:50.061Z</time>
      </trkpt>
      <trkpt lat="48.01306" lon="-3.84471">
        <ele>164.1</ele>
        <time>2024-04-10T18:27:54.579Z</time>
      </trkpt>
      <trkpt lat="48.01275" lon="-3.84491">
        <ele>163.3</ele>
        <time>2024-04-10T18:27:59.023Z</time>
      </trkpt>
      <trkpt lat="48.01138" lon="-3.84564">
        <ele>161.3</ele>
        <time>2024-04-10T18:28:19.834Z</time>
      </trkpt>
      <trkpt lat="48.01042" lon="-3.84612">
        <ele>163</ele>
        <time>2024-04-10T18:28:39.263Z</time>
      </trkpt>
      <trkpt lat="48.0104" lon="-3.84614">
        <ele>162.9</ele>
        <time>2024-04-10T18:28:39.539Z</time>
      </trkpt>
      <trkpt lat="48.00959" lon="-3.84656">
        <ele>163.3</ele>
        <time>2024-04-10T18:28:54.081Z</time>
      </trkpt>
      <trkpt lat="48.0092" lon="-3.84673">
        <ele>163.3</ele>
        <time>2024-04-10T18:29:00.668Z</time>
      </trkpt>
      <trkpt lat="48.00858" lon="-3.84693">
        <ele>164.9</ele>
        <time>2024-04-10T18:29:14.009Z</time>
      </trkpt>
      <trkpt lat="48.00821" lon="-3.84705">
        <ele>164.7</ele>
        <time>2024-04-10T18:29:19.852Z</time>
      </trkpt>
      <trkpt lat="48.00729" lon="-3.84729">
        <ele>164.4</ele>
        <time>2024-04-10T18:29:34.544Z</time>
      </trkpt>
      <trkpt lat="48.0069" lon="-3.84731">
        <ele>163.8</ele>
        <time>2024-04-10T18:29:40.050Z</time>
      </trkpt>
      <trkpt lat="48.00658" lon="-3.84724">
        <ele>163</ele>
        <time>2024-04-10T18:29:44.271Z</time>
      </trkpt>
      <trkpt lat="48.00581" lon="-3.84688">
        <ele>160.8</ele>
        <time>2024-04-10T18:29:54.590Z</time>
      </trkpt>
      <trkpt lat="48.0052" lon="-3.84653">
        <ele>159.2</ele>
        <time>2024-04-10T18:30:03.135Z</time>
      </trkpt>
      <trkpt lat="48.005" lon="-3.84644">
        <ele>159.2</ele>
        <time>2024-04-10T18:30:06.521Z</time>
      </trkpt>
      <trkpt lat="48.00473" lon="-3.84635">
        <ele>158.9</ele>
        <time>2024-04-10T18:30:10.582Z</time>
      </trkpt>
      <trkpt lat="48.00438" lon="-3.84632">
        <ele>158.8</ele>
        <time>2024-04-10T18:30:16.115Z</time>
      </trkpt>
      <trkpt lat="48.00328" lon="-3.84624">
        <ele>156.4</ele>
        <time>2024-04-10T18:30:30.838Z</time>
      </trkpt>
      <trkpt lat="48.00307" lon="-3.84619">
        <ele>156</ele>
        <time>2024-04-10T18:30:33.752Z</time>
      </trkpt>
      <trkpt lat="48.0025" lon="-3.84598">
        <ele>154</ele>
        <time>2024-04-10T18:30:40.875Z</time>
      </trkpt>
      <trkpt lat="48.00214" lon="-3.84577">
        <ele>152.5</ele>
        <time>2024-04-10T18:30:45.402Z</time>
      </trkpt>
      <trkpt lat="48.00201" lon="-3.84666">
        <ele>151.2</ele>
        <time>2024-04-10T18:30:53.581Z</time>
      </trkpt>
      <trkpt lat="48.002" lon="-3.84762">
        <ele>149</ele>
        <time>2024-04-10T18:31:01.366Z</time>
      </trkpt>
      <trkpt lat="48.00201" lon="-3.84791">
        <ele>148.4</ele>
        <time>2024-04-10T18:31:03.781Z</time>
      </trkpt>
      <trkpt lat="48.00214" lon="-3.84879">
        <ele>149.4</ele>
        <time>2024-04-10T18:31:15.329Z</time>
      </trkpt>
      <trkpt lat="48.0024" lon="-3.84999">
        <ele>152.3</ele>
        <time>2024-04-10T18:31:35.038Z</time>
      </trkpt>
      <trkpt lat="48.00241" lon="-3.85014">
        <ele>152</ele>
        <time>2024-04-10T18:31:36.303Z</time>
      </trkpt>
      <trkpt lat="48.0024" lon="-3.85028">
        <ele>151.6</ele>
        <time>2024-04-10T18:31:37.377Z</time>
      </trkpt>
      <trkpt lat="48.00229" lon="-3.85078">
        <ele>151.2</ele>
        <time>2024-04-10T18:31:42.523Z</time>
      </trkpt>
      <trkpt lat="48.00223" lon="-3.85115">
        <ele>150.1</ele>
        <time>2024-04-10T18:31:45.414Z</time>
      </trkpt>
      <trkpt lat="48.0022" lon="-3.85148">
        <ele>149.5</ele>
        <time>2024-04-10T18:31:48.272Z</time>
      </trkpt>
      <trkpt lat="48.00216" lon="-3.85164">
        <ele>148.6</ele>
        <time>2024-04-10T18:31:49.384Z</time>
      </trkpt>
      <trkpt lat="48.00204" lon="-3.85192">
        <ele>147.7</ele>
        <time>2024-04-10T18:31:51.959Z</time>
      </trkpt>
      <trkpt lat="48.002" lon="-3.85212">
        <ele>146.8</ele>
        <time>2024-04-10T18:31:53.336Z</time>
      </trkpt>
      <trkpt lat="48.0021" lon="-3.85346">
        <ele>141.9</ele>
        <time>2024-04-10T18:32:02.825Z</time>
      </trkpt>
      <trkpt lat="48.0021" lon="-3.85364">
        <ele>141.6</ele>
        <time>2024-04-10T18:32:04.395Z</time>
      </trkpt>
      <trkpt lat="48.00207" lon="-3.8538">
        <ele>140.7</ele>
        <time>2024-04-10T18:32:05.476Z</time>
      </trkpt>
      <trkpt lat="48.002" lon="-3.85403">
        <ele>139.5</ele>
        <time>2024-04-10T18:32:07.121Z</time>
      </trkpt>
      <trkpt lat="48.00176" lon="-3.85473">
        <ele>137</ele>
        <time>2024-04-10T18:32:12.916Z</time>
      </trkpt>
      <trkpt lat="48.00108" lon="-3.85594">
        <ele>131.4</ele>
        <time>2024-04-10T18:32:24.135Z</time>
      </trkpt>
      <trkpt lat="48.00088" lon="-3.85611">
        <ele>130.2</ele>
        <time>2024-04-10T18:32:26.590Z</time>
      </trkpt>
      <trkpt lat="48.00079" lon="-3.85624">
        <ele>129.4</ele>
        <time>2024-04-10T18:32:27.829Z</time>
      </trkpt>
      <trkpt lat="48.00068" lon="-3.85665">
        <ele>127.5</ele>
        <time>2024-04-10T18:32:30.747Z</time>
      </trkpt>
      <trkpt lat="48.00034" lon="-3.85844">
        <ele>119.8</ele>
        <time>2024-04-10T18:32:43.226Z</time>
      </trkpt>
      <trkpt lat="48.00014" lon="-3.85898">
        <ele>117.8</ele>
        <time>2024-04-10T18:32:47.745Z</time>
      </trkpt>
      <trkpt lat="47.99983" lon="-3.85957">
        <ele>114.7</ele>
        <time>2024-04-10T18:32:52.778Z</time>
      </trkpt>
      <trkpt lat="47.99971" lon="-3.85977">
        <ele>112.9</ele>
        <time>2024-04-10T18:32:54.527Z</time>
      </trkpt>
      <trkpt lat="47.99962" lon="-3.85998">
        <ele>112.6</ele>
        <time>2024-04-10T18:32:56.830Z</time>
      </trkpt>
      <trkpt lat="47.99947" lon="-3.86052">
        <ele>111.1</ele>
        <time>2024-04-10T18:33:01.428Z</time>
      </trkpt>
      <trkpt lat="47.99914" lon="-3.862">
        <ele>109.9</ele>
        <time>2024-04-10T18:33:16.662Z</time>
      </trkpt>
      <trkpt lat="47.99901" lon="-3.86275">
        <ele>112.7</ele>
        <time>2024-04-10T18:33:32.101Z</time>
      </trkpt>
      <trkpt lat="47.999" lon="-3.86289">
        <ele>114.2</ele>
        <time>2024-04-10T18:33:38.648Z</time>
      </trkpt>
      <trkpt lat="47.99903" lon="-3.86354">
        <ele>119.5</ele>
        <time>2024-04-10T18:34:07.800Z</time>
      </trkpt>
      <trkpt lat="47.99902" lon="-3.86367">
        <ele>120.2</ele>
        <time>2024-04-10T18:34:11.494Z</time>
      </trkpt>
      <trkpt lat="47.999" lon="-3.8638">
        <ele>120.7</ele>
        <time>2024-04-10T18:34:14.223Z</time>
      </trkpt>
      <trkpt lat="47.99891" lon="-3.86403">
        <ele>121.8</ele>
        <time>2024-04-10T18:34:20.097Z</time>
      </trkpt>
      <trkpt lat="47.99877" lon="-3.86432">
        <ele>122.9</ele>
        <time>2024-04-10T18:34:26.530Z</time>
      </trkpt>
      <trkpt lat="47.99816" lon="-3.86529">
        <ele>119.9</ele>
        <time>2024-04-10T18:34:37.369Z</time>
      </trkpt>
      <trkpt lat="47.99808" lon="-3.86545">
        <ele>118.8</ele>
        <time>2024-04-10T18:34:38.669Z</time>
      </trkpt>
      <trkpt lat="47.99799" lon="-3.86566">
        <ele>117.9</ele>
        <time>2024-04-10T18:34:40.429Z</time>
      </trkpt>
      <trkpt lat="47.99792" lon="-3.8659">
        <ele>117.9</ele>
        <time>2024-04-10T18:34:43.270Z</time>
      </trkpt>
      <trkpt lat="47.99772" lon="-3.86674">
        <ele>119.5</ele>
        <time>2024-04-10T18:34:56.044Z</time>
      </trkpt>
      <trkpt lat="47.99759" lon="-3.86719">
        <ele>120.4</ele>
        <time>2024-04-10T18:35:03.117Z</time>
      </trkpt>
      <trkpt lat="47.9975" lon="-3.86741">
        <ele>120.3</ele>
        <time>2024-04-10T18:35:05.767Z</time>
      </trkpt>
      <trkpt lat="47.99734" lon="-3.8677">
        <ele>119.9</ele>
        <time>2024-04-10T18:35:09.300Z</time>
      </trkpt>
      <trkpt lat="47.99721" lon="-3.86804">
        <ele>119.1</ele>
        <time>2024-04-10T18:35:12.566Z</time>
      </trkpt>
      <trkpt lat="47.99709" lon="-3.8685">
        <ele>118.7</ele>
        <time>2024-04-10T18:35:17.362Z</time>
      </trkpt>
      <trkpt lat="47.99674" lon="-3.87023">
        <ele>118.3</ele>
        <time>2024-04-10T18:35:36.371Z</time>
      </trkpt>
      <trkpt lat="47.99659" lon="-3.87081">
        <ele>118</ele>
        <time>2024-04-10T18:35:42.681Z</time>
      </trkpt>
      <trkpt lat="47.99641" lon="-3.87137">
        <ele>118.9</ele>
        <time>2024-04-10T18:35:51.087Z</time>
      </trkpt>
      <trkpt lat="47.99632" lon="-3.87163">
        <ele>119</ele>
        <time>2024-04-10T18:35:54.424Z</time>
      </trkpt>
      <trkpt lat="47.99603" lon="-3.87218">
        <ele>118.7</ele>
        <time>2024-04-10T18:36:01.582Z</time>
      </trkpt>
      <trkpt lat="47.99583" lon="-3.87252">
        <ele>118</ele>
        <time>2024-04-10T18:36:05.588Z</time>
      </trkpt>
      <trkpt lat="47.99567" lon="-3.8727">
        <ele>118</ele>
        <time>2024-04-10T18:36:08.836Z</time>
      </trkpt>
      <trkpt lat="47.99557" lon="-3.87316">
        <ele>117.6</ele>
        <time>2024-04-10T18:36:13.524Z</time>
      </trkpt>
      <trkpt lat="47.99545" lon="-3.87357">
        <ele>117</ele>
        <time>2024-04-10T18:36:17.586Z</time>
      </trkpt>
      <trkpt lat="47.99524" lon="-3.87431">
        <ele>114.7</ele>
        <time>2024-04-10T18:36:23.708Z</time>
      </trkpt>
      <trkpt lat="47.99521" lon="-3.87446">
        <ele>114.3</ele>
        <time>2024-04-10T18:36:24.941Z</time>
        <extensions>
          <visugpx:TrkExtension xmlns:visugpx="https://www.visugpx.com/editgpx/">
            <visugpx:node>8</visugpx:node>
            </visugpx:TrkExtension>
        </extensions>
      </trkpt>
      <trkpt lat="47.99486" lon="-3.87597">
        <ele>114</ele>
        <time>2024-04-10T18:36:41.828Z</time>
      </trkpt>
      <trkpt lat="47.9947" lon="-3.87674">
        <ele>116</ele>
        <time>2024-04-10T18:36:54.839Z</time>
      </trkpt>
      <trkpt lat="47.99461" lon="-3.87714">
        <ele>116.7</ele>
        <time>2024-04-10T18:37:00.750Z</time>
      </trkpt>
      <trkpt lat="47.99429" lon="-3.87838">
        <ele>116</ele>
        <time>2024-04-10T18:37:14.156Z</time>
      </trkpt>
      <trkpt lat="47.99365" lon="-3.8802">
        <ele>116</ele>
        <time>2024-04-10T18:37:36.465Z</time>
      </trkpt>
      <trkpt lat="47.99354" lon="-3.8806">
        <ele>115.7</ele>
        <time>2024-04-10T18:37:40.731Z</time>
      </trkpt>
      <trkpt lat="47.99349" lon="-3.88091">
        <ele>115.6</ele>
        <time>2024-04-10T18:37:44.042Z</time>
      </trkpt>
      <trkpt lat="47.99342" lon="-3.88157">
        <ele>114.6</ele>
        <time>2024-04-10T18:37:49.993Z</time>
      </trkpt>
      <trkpt lat="47.99338" lon="-3.88229">
        <ele>114.3</ele>
        <time>2024-04-10T18:37:57.392Z</time>
      </trkpt>
      <trkpt lat="47.99333" lon="-3.88351">
        <ele>113</ele>
        <time>2024-04-10T18:38:08.882Z</time>
      </trkpt>
      <trkpt lat="47.99325" lon="-3.88528">
        <ele>110.3</ele>
        <time>2024-04-10T18:38:24.630Z</time>
      </trkpt>
      <trkpt lat="47.99324" lon="-3.88547">
        <ele>109.6</ele>
        <time>2024-04-10T18:38:25.966Z</time>
      </trkpt>
      <trkpt lat="47.99316" lon="-3.88567">
        <ele>109.5</ele>
        <time>2024-04-10T18:38:28.348Z</time>
      </trkpt>
      <trkpt lat="47.99328" lon="-3.88588">
        <ele>108.4</ele>
        <time>2024-04-10T18:38:30.227Z</time>
      </trkpt>
      <trkpt lat="47.99336" lon="-3.88604">
        <ele>108</ele>
        <time>2024-04-10T18:38:31.902Z</time>
      </trkpt>
      <trkpt lat="47.99333" lon="-3.88609">
        <ele>108</ele>
        <time>2024-04-10T18:38:32.630Z</time>
      </trkpt>
      <trkpt lat="47.99328" lon="-3.88631">
        <ele>107.5</ele>
        <time>2024-04-10T18:38:34.545Z</time>
      </trkpt>
      <trkpt lat="47.99323" lon="-3.88643">
        <ele>107.4</ele>
        <time>2024-04-10T18:38:35.937Z</time>
      </trkpt>
      <trkpt lat="47.99321" lon="-3.88658">
        <ele>107.4</ele>
        <time>2024-04-10T18:38:37.596Z</time>
      </trkpt>
      <trkpt lat="47.99316" lon="-3.88821">
        <ele>103.9</ele>
        <time>2024-04-10T18:38:51.051Z</time>
      </trkpt>
      <trkpt lat="47.99316" lon="-3.88872">
        <ele>103.1</ele>
        <time>2024-04-10T18:38:55.552Z</time>
      </trkpt>
      <trkpt lat="47.99319" lon="-3.88911">
        <ele>101.7</ele>
        <time>2024-04-10T18:38:58.334Z</time>
      </trkpt>
      <trkpt lat="47.99327" lon="-3.8896">
        <ele>99.7</ele>
        <time>2024-04-10T18:39:01.773Z</time>
      </trkpt>
      <trkpt lat="47.99341" lon="-3.89016">
        <ele>97.7</ele>
        <time>2024-04-10T18:39:06.103Z</time>
      </trkpt>
      <trkpt lat="47.9938" lon="-3.89158">
        <ele>89.4</ele>
        <time>2024-04-10T18:39:16.097Z</time>
      </trkpt>
      <trkpt lat="47.994" lon="-3.89241">
        <ele>87.2</ele>
        <time>2024-04-10T18:39:23.090Z</time>
      </trkpt>
      <trkpt lat="47.99404" lon="-3.89265">
        <ele>87.5</ele>
        <time>2024-04-10T18:39:26.312Z</time>
      </trkpt>
      <trkpt lat="47.99413" lon="-3.8932">
        <ele>87</ele>
        <time>2024-04-10T18:39:31.760Z</time>
      </trkpt>
      <trkpt lat="47.99416" lon="-3.89361">
        <ele>85.9</ele>
        <time>2024-04-10T18:39:34.969Z</time>
      </trkpt>
      <trkpt lat="47.99417" lon="-3.89431">
        <ele>83.6</ele>
        <time>2024-04-10T18:39:40.072Z</time>
      </trkpt>
      <trkpt lat="47.99414" lon="-3.89513">
        <ele>79.9</ele>
        <time>2024-04-10T18:39:45.419Z</time>
      </trkpt>
      <trkpt lat="47.99402" lon="-3.89618">
        <ele>74</ele>
        <time>2024-04-10T18:39:52.354Z</time>
      </trkpt>
      <trkpt lat="47.9939" lon="-3.89706">
        <ele>74</ele>
        <time>2024-04-10T18:40:02.099Z</time>
      </trkpt>
      <trkpt lat="47.99377" lon="-3.89803">
        <ele>68</ele>
        <time>2024-04-10T18:40:08.539Z</time>
      </trkpt>
      <trkpt lat="47.99371" lon="-3.89846">
        <ele>68.7</ele>
        <time>2024-04-10T18:40:14.626Z</time>
      </trkpt>
      <trkpt lat="47.99366" lon="-3.89888">
        <ele>74.8</ele>
        <time>2024-04-10T18:40:34.464Z</time>
      </trkpt>
      <trkpt lat="47.9935" lon="-3.90017">
        <ele>83.6</ele>
        <time>2024-04-10T18:41:22.663Z</time>
      </trkpt>
      <trkpt lat="47.99336" lon="-3.90091">
        <ele>87</ele>
        <time>2024-04-10T18:41:40.642Z</time>
      </trkpt>
      <trkpt lat="47.99321" lon="-3.90138">
        <ele>91.8</ele>
        <time>2024-04-10T18:42:04.857Z</time>
      </trkpt>
      <trkpt lat="47.99303" lon="-3.9018">
        <ele>95.6</ele>
        <time>2024-04-10T18:42:25.963Z</time>
      </trkpt>
      <trkpt lat="47.99276" lon="-3.90234">
        <ele>100</ele>
        <time>2024-04-10T18:42:49.936Z</time>
      </trkpt>
      <trkpt lat="47.99259" lon="-3.90279">
        <ele>104</ele>
        <time>2024-04-10T18:43:12.135Z</time>
      </trkpt>
      <trkpt lat="47.99246" lon="-3.90326">
        <ele>104.8</ele>
        <time>2024-04-10T18:43:19.158Z</time>
      </trkpt>
      <trkpt lat="47.99241" lon="-3.90384">
        <ele>108.4</ele>
        <time>2024-04-10T18:43:38.548Z</time>
      </trkpt>
      <trkpt lat="47.99236" lon="-3.90499">
        <ele>109.5</ele>
        <time>2024-04-10T18:43:52.962Z</time>
      </trkpt>
      <trkpt lat="47.99244" lon="-3.90971">
        <ele>110.6</ele>
        <time>2024-04-10T18:44:45.940Z</time>
      </trkpt>
      <trkpt lat="47.99247" lon="-3.91115">
        <ele>113.9</ele>
        <time>2024-04-10T18:45:08.420Z</time>
      </trkpt>
      <trkpt lat="47.99249" lon="-3.91231">
        <ele>115.3</ele>
        <time>2024-04-10T18:45:23.521Z</time>
      </trkpt>
      <trkpt lat="47.99243" lon="-3.91385">
        <ele>118.5</ele>
        <time>2024-04-10T18:45:46.704Z</time>
      </trkpt>
      <trkpt lat="47.99236" lon="-3.91442">
        <ele>120.5</ele>
        <time>2024-04-10T18:45:57.896Z</time>
      </trkpt>
      <trkpt lat="47.99224" lon="-3.9151">
        <ele>122</ele>
        <time>2024-04-10T18:46:08.572Z</time>
      </trkpt>
      <trkpt lat="47.99212" lon="-3.9157">
        <ele>121.2</ele>
        <time>2024-04-10T18:46:14.301Z</time>
      </trkpt>
      <trkpt lat="47.99181" lon="-3.91691">
        <ele>117.6</ele>
        <time>2024-04-10T18:46:24.260Z</time>
      </trkpt>
      <trkpt lat="47.99142" lon="-3.91827">
        <ele>112.2</ele>
        <time>2024-04-10T18:46:34.659Z</time>
      </trkpt>
      <trkpt lat="47.99113" lon="-3.91992">
        <ele>108.5</ele>
        <time>2024-04-10T18:46:48.688Z</time>
      </trkpt>
      <trkpt lat="47.99106" lon="-3.92048">
        <ele>109.3</ele>
        <time>2024-04-10T18:46:56.341Z</time>
      </trkpt>
      <trkpt lat="47.99094" lon="-3.92146">
        <ele>110</ele>
        <time>2024-04-10T18:47:08.329Z</time>
      </trkpt>
      <trkpt lat="47.99055" lon="-3.92537">
        <ele>119.3</ele>
        <time>2024-04-10T18:48:10.690Z</time>
      </trkpt>
      <trkpt lat="47.99041" lon="-3.92701">
        <ele>120.2</ele>
        <time>2024-04-10T18:48:30.114Z</time>
      </trkpt>
      <trkpt lat="47.99032" lon="-3.92839">
        <ele>118.3</ele>
        <time>2024-04-10T18:48:42.655Z</time>
      </trkpt>
      <trkpt lat="47.99034" lon="-3.9293">
        <ele>118.4</ele>
        <time>2024-04-10T18:48:52.691Z</time>
      </trkpt>
      <trkpt lat="47.99049" lon="-3.93286">
        <ele>123</ele>
        <time>2024-04-10T18:49:39.735Z</time>
      </trkpt>
      <trkpt lat="47.9905" lon="-3.93351">
        <ele>122.3</ele>
        <time>2024-04-10T18:49:45.837Z</time>
      </trkpt>
      <trkpt lat="47.99049" lon="-3.93423">
        <ele>121.8</ele>
        <time>2024-04-10T18:49:52.941Z</time>
      </trkpt>
      <trkpt lat="47.99031" lon="-3.93873">
        <ele>127.9</ele>
        <time>2024-04-10T18:50:53.006Z</time>
      </trkpt>
      <trkpt lat="47.99021" lon="-3.93966">
        <ele>128.6</ele>
        <time>2024-04-10T18:51:04.410Z</time>
      </trkpt>
      <trkpt lat="47.98998" lon="-3.94089">
        <ele>128.9</ele>
        <time>2024-04-10T18:51:18.744Z</time>
      </trkpt>
      <trkpt lat="47.98977" lon="-3.94184">
        <ele>128.3</ele>
        <time>2024-04-10T18:51:28.739Z</time>
      </trkpt>
      <trkpt lat="47.98953" lon="-3.94336">
        <ele>127.7</ele>
        <time>2024-04-10T18:51:44.802Z</time>
      </trkpt>
      <trkpt lat="47.9894" lon="-3.94414">
        <ele>127.2</ele>
        <time>2024-04-10T18:51:52.808Z</time>
      </trkpt>
      <trkpt lat="47.98927" lon="-3.94506">
        <ele>127.5</ele>
        <time>2024-04-10T18:52:03.493Z</time>
      </trkpt>
      <trkpt lat="47.98904" lon="-3.94632">
        <ele>127</ele>
        <time>2024-04-10T18:52:16.929Z</time>
      </trkpt>
      <trkpt lat="47.98851" lon="-3.94913">
        <ele>127.4</ele>
        <time>2024-04-10T18:52:49.237Z</time>
      </trkpt>
      <trkpt lat="47.98821" lon="-3.95066">
        <ele>127.6</ele>
        <time>2024-04-10T18:53:06.852Z</time>
        <extensions>
          <visugpx:TrkExtension xmlns:visugpx="https://www.visugpx.com/editgpx/">
            <visugpx:node>9</visugpx:node>
            </visugpx:TrkExtension>
        </extensions>
      </trkpt>
      <trkpt lat="47.98817" lon="-3.95088">
        <ele>127.3</ele>
        <time>2024-04-10T18:53:08.928Z</time>
      </trkpt>
      <trkpt lat="47.98804" lon="-3.9517">
        <ele>126.9</ele>
        <time>2024-04-10T18:53:17.490Z</time>
      </trkpt>
      <trkpt lat="47.98799" lon="-3.9524">
        <ele>126.3</ele>
        <time>2024-04-10T18:53:24.292Z</time>
      </trkpt>
      <trkpt lat="47.9879" lon="-3.95572">
        <ele>125</ele>
        <time>2024-04-10T18:53:58.436Z</time>
      </trkpt>
      <trkpt lat="47.98784" lon="-3.95625">
        <ele>125.2</ele>
        <time>2024-04-10T18:54:04.592Z</time>
      </trkpt>
      <trkpt lat="47.98776" lon="-3.95679">
        <ele>125.9</ele>
        <time>2024-04-10T18:54:11.859Z</time>
      </trkpt>
      <trkpt lat="47.9877" lon="-3.95712">
        <ele>125.9</ele>
        <time>2024-04-10T18:54:15.569Z</time>
      </trkpt>
      <trkpt lat="47.98745" lon="-3.95835">
        <ele>127</ele>
        <time>2024-04-10T18:54:31.404Z</time>
      </trkpt>
      <trkpt lat="47.98742" lon="-3.95862">
        <ele>127</ele>
        <time>2024-04-10T18:54:34.375Z</time>
      </trkpt>
      <trkpt lat="47.9874" lon="-3.95924">
        <ele>126.9</ele>
        <time>2024-04-10T18:54:40.959Z</time>
      </trkpt>
      <trkpt lat="47.98742" lon="-3.95956">
        <ele>126.4</ele>
        <time>2024-04-10T18:54:43.801Z</time>
      </trkpt>
      <trkpt lat="47.98749" lon="-3.96008">
        <ele>126</ele>
        <time>2024-04-10T18:54:48.992Z</time>
      </trkpt>
      <trkpt lat="47.98808" lon="-3.96285">
        <ele>123.8</ele>
        <time>2024-04-10T18:55:17.433Z</time>
      </trkpt>
      <trkpt lat="47.98825" lon="-3.9634">
        <ele>123.5</ele>
        <time>2024-04-10T18:55:23.571Z</time>
      </trkpt>
      <trkpt lat="47.98863" lon="-3.9645">
        <ele>122.1</ele>
        <time>2024-04-10T18:55:35.109Z</time>
      </trkpt>
      <trkpt lat="47.98886" lon="-3.96523">
        <ele>122.1</ele>
        <time>2024-04-10T18:55:43.865Z</time>
      </trkpt>
      <trkpt lat="47.98904" lon="-3.96591">
        <ele>122.4</ele>
        <time>2024-04-10T18:55:52.287Z</time>
      </trkpt>
      <trkpt lat="47.98921" lon="-3.96675">
        <ele>122.2</ele>
        <time>2024-04-10T18:56:01.510Z</time>
      </trkpt>
      <trkpt lat="47.98929" lon="-3.96731">
        <ele>122.3</ele>
        <time>2024-04-10T18:56:07.881Z</time>
      </trkpt>
      <trkpt lat="47.98935" lon="-3.96813">
        <ele>121.4</ele>
        <time>2024-04-10T18:56:15.609Z</time>
      </trkpt>
      <trkpt lat="47.98935" lon="-3.96826">
        <ele>120.9</ele>
        <time>2024-04-10T18:56:16.506Z</time>
      </trkpt>
      <trkpt lat="47.98944" lon="-3.9703">
        <ele>119</ele>
        <time>2024-04-10T18:56:36.061Z</time>
      </trkpt>
      <trkpt lat="47.98952" lon="-3.97265">
        <ele>116.6</ele>
        <time>2024-04-10T18:56:58.307Z</time>
      </trkpt>
      <trkpt lat="47.98965" lon="-3.97557">
        <ele>112.4</ele>
        <time>2024-04-10T18:57:24.565Z</time>
      </trkpt>
      <trkpt lat="47.98973" lon="-3.97771">
        <ele>109</ele>
        <time>2024-04-10T18:57:43.444Z</time>
      </trkpt>
      <trkpt lat="47.98973" lon="-3.9786">
        <ele>107.1</ele>
        <time>2024-04-10T18:57:50.792Z</time>
      </trkpt>
      <trkpt lat="47.98969" lon="-3.9794">
        <ele>105.9</ele>
        <time>2024-04-10T18:57:57.937Z</time>
      </trkpt>
      <trkpt lat="47.98952" lon="-3.98142">
        <ele>100.3</ele>
        <time>2024-04-10T18:58:13.633Z</time>
      </trkpt>
      <trkpt lat="47.98944" lon="-3.9823">
        <ele>97.7</ele>
        <time>2024-04-10T18:58:20.351Z</time>
      </trkpt>
      <trkpt lat="47.98942" lon="-3.98286">
        <ele>95.3</ele>
        <time>2024-04-10T18:58:24.065Z</time>
      </trkpt>
      <trkpt lat="47.98941" lon="-3.98321">
        <ele>93.8</ele>
        <time>2024-04-10T18:58:26.384Z</time>
      </trkpt>
      <trkpt lat="47.98946" lon="-3.98391">
        <ele>92.1</ele>
        <time>2024-04-10T18:58:32.015Z</time>
      </trkpt>
      <trkpt lat="47.98976" lon="-3.98678">
        <ele>90.7</ele>
        <time>2024-04-10T18:59:01.497Z</time>
      </trkpt>
      <trkpt lat="47.98979" lon="-3.98701">
        <ele>90</ele>
        <time>2024-04-10T18:59:03.259Z</time>
      </trkpt>
      <trkpt lat="47.98985" lon="-3.98733">
        <ele>89.1</ele>
        <time>2024-04-10T18:59:05.833Z</time>
      </trkpt>
      <trkpt lat="47.98992" lon="-3.98765">
        <ele>87.8</ele>
        <time>2024-04-10T18:59:08.151Z</time>
      </trkpt>
      <trkpt lat="47.99007" lon="-3.98806">
        <ele>86</ele>
        <time>2024-04-10T18:59:11.371Z</time>
      </trkpt>
      <trkpt lat="47.99023" lon="-3.9884">
        <ele>84.8</ele>
        <time>2024-04-10T18:59:14.529Z</time>
      </trkpt>
      <trkpt lat="47.99063" lon="-3.98926">
        <ele>81.9</ele>
        <time>2024-04-10T18:59:22.587Z</time>
      </trkpt>
      <trkpt lat="47.99072" lon="-3.9895">
        <ele>81.2</ele>
        <time>2024-04-10T18:59:24.756Z</time>
      </trkpt>
      <trkpt lat="47.9909" lon="-3.99011">
        <ele>77.5</ele>
        <time>2024-04-10T18:59:29.097Z</time>
      </trkpt>
      <trkpt lat="47.99098" lon="-3.99051">
        <ele>75</ele>
        <time>2024-04-10T18:59:31.815Z</time>
      </trkpt>
      <trkpt lat="47.99104" lon="-3.9909">
        <ele>73.2</ele>
        <time>2024-04-10T18:59:34.421Z</time>
      </trkpt>
      <trkpt lat="47.99108" lon="-3.99136">
        <ele>72.3</ele>
        <time>2024-04-10T18:59:38.338Z</time>
      </trkpt>
      <trkpt lat="47.99109" lon="-3.99177">
        <ele>72.8</ele>
        <time>2024-04-10T18:59:43.687Z</time>
      </trkpt>
      <trkpt lat="47.99109" lon="-3.99211">
        <ele>73.6</ele>
        <time>2024-04-10T18:59:49.051Z</time>
      </trkpt>
      <trkpt lat="47.99106" lon="-3.99261">
        <ele>76.4</ele>
        <time>2024-04-10T19:00:03.894Z</time>
      </trkpt>
      <trkpt lat="47.99096" lon="-3.99324">
        <ele>78.2</ele>
        <time>2024-04-10T19:00:14.923Z</time>
      </trkpt>
      <trkpt lat="47.99068" lon="-3.99454">
        <ele>77.9</ele>
        <time>2024-04-10T19:00:29.291Z</time>
      </trkpt>
      <trkpt lat="47.99034" lon="-3.99598">
        <ele>76.1</ele>
        <time>2024-04-10T19:00:43.438Z</time>
      </trkpt>
      <trkpt lat="47.99003" lon="-3.99692">
        <ele>74.9</ele>
        <time>2024-04-10T19:00:53.188Z</time>
      </trkpt>
      <trkpt lat="47.98983" lon="-3.99746">
        <ele>73.8</ele>
        <time>2024-04-10T19:00:58.498Z</time>
      </trkpt>
      <trkpt lat="47.98963" lon="-3.99808">
        <ele>74.5</ele>
        <time>2024-04-10T19:01:07.191Z</time>
      </trkpt>
      <trkpt lat="47.98892" lon="-4.00004">
        <ele>71.4</ele>
        <time>2024-04-10T19:01:27.298Z</time>
      </trkpt>
      <trkpt lat="47.98891" lon="-4.00007">
        <ele>71.3</ele>
        <time>2024-04-10T19:01:27.550Z</time>
        <extensions>
          <visugpx:TrkExtension xmlns:visugpx="https://www.visugpx.com/editgpx/">
            <visugpx:node>10</visugpx:node>
            </visugpx:TrkExtension>
        </extensions>
      </trkpt>
      <trkpt lat="47.98881" lon="-4.00039">
        <ele>70.8</ele>
        <time>2024-04-10T19:01:30.726Z</time>
      </trkpt>
      <trkpt lat="47.98868" lon="-4.00091">
        <ele>70.5</ele>
        <time>2024-04-10T19:01:36.316Z</time>
      </trkpt>
      <trkpt lat="47.9886" lon="-4.0013">
        <ele>69.7</ele>
        <time>2024-04-10T19:01:39.752Z</time>
      </trkpt>
      <trkpt lat="47.98855" lon="-4.00169">
        <ele>68.5</ele>
        <time>2024-04-10T19:01:42.727Z</time>
      </trkpt>
      <trkpt lat="47.98849" lon="-4.00293">
        <ele>65.1</ele>
        <time>2024-04-10T19:01:52.328Z</time>
      </trkpt>
      <trkpt lat="47.9885" lon="-4.0035">
        <ele>62.8</ele>
        <time>2024-04-10T19:01:56.191Z</time>
      </trkpt>
      <trkpt lat="47.98853" lon="-4.00434">
        <ele>58.8</ele>
        <time>2024-04-10T19:02:01.668Z</time>
      </trkpt>
      <trkpt lat="47.98874" lon="-4.00831">
        <ele>35.3</ele>
        <time>2024-04-10T19:02:27.598Z</time>
      </trkpt>
      <trkpt lat="47.9888" lon="-4.00929">
        <ele>28.1</ele>
        <time>2024-04-10T19:02:34.006Z</time>
      </trkpt>
      <trkpt lat="47.98886" lon="-4.01061">
        <ele>23.4</ele>
        <time>2024-04-10T19:02:43.395Z</time>
      </trkpt>
      <trkpt lat="47.98887" lon="-4.01077">
        <ele>23</ele>
        <time>2024-04-10T19:02:44.670Z</time>
      </trkpt>
      <trkpt lat="47.98888" lon="-4.01087">
        <ele>22.8</ele>
        <time>2024-04-10T19:02:45.520Z</time>
      </trkpt>
      <trkpt lat="47.98889" lon="-4.01119">
        <ele>21.7</ele>
        <time>2024-04-10T19:02:47.820Z</time>
      </trkpt>
      <trkpt lat="47.98894" lon="-4.01165">
        <ele>21</ele>
        <time>2024-04-10T19:02:51.968Z</time>
      </trkpt>
      <trkpt lat="47.98902" lon="-4.0122">
        <ele>20.5</ele>
        <time>2024-04-10T19:02:57.380Z</time>
      </trkpt>
      <trkpt lat="47.98912" lon="-4.0127">
        <ele>20.8</ele>
        <time>2024-04-10T19:03:03.539Z</time>
      </trkpt>
      <trkpt lat="47.98924" lon="-4.01321">
        <ele>21.8</ele>
        <time>2024-04-10T19:03:11.358Z</time>
      </trkpt>
      <trkpt lat="47.9896" lon="-4.01428">
        <ele>23.3</ele>
        <time>2024-04-10T19:03:27.059Z</time>
      </trkpt>
      <trkpt lat="47.98992" lon="-4.015">
        <ele>22.1</ele>
        <time>2024-04-10T19:03:34.859Z</time>
      </trkpt>
      <trkpt lat="47.99046" lon="-4.01609">
        <ele>22.3</ele>
        <time>2024-04-10T19:03:49.890Z</time>
      </trkpt>
      <trkpt lat="47.99065" lon="-4.0165">
        <ele>23.5</ele>
        <time>2024-04-10T19:03:57.832Z</time>
      </trkpt>
      <trkpt lat="47.99078" lon="-4.01681">
        <ele>22.8</ele>
        <time>2024-04-10T19:04:00.930Z</time>
      </trkpt>
      <trkpt lat="47.99123" lon="-4.01808">
        <ele>21.8</ele>
        <time>2024-04-10T19:04:15.103Z</time>
      </trkpt>
      <trkpt lat="47.99139" lon="-4.01862">
        <ele>22</ele>
        <time>2024-04-10T19:04:21.832Z</time>
      </trkpt>
      <trkpt lat="47.99161" lon="-4.01947">
        <ele>22.7</ele>
        <time>2024-04-10T19:04:32.908Z</time>
      </trkpt>
      <trkpt lat="47.99176" lon="-4.02018">
        <ele>22.8</ele>
        <time>2024-04-10T19:04:41.144Z</time>
      </trkpt>
      <trkpt lat="47.99195" lon="-4.02136">
        <ele>20.4</ele>
        <time>2024-04-10T19:04:51.348Z</time>
      </trkpt>
      <trkpt lat="47.99209" lon="-4.0226">
        <ele>22.8</ele>
        <time>2024-04-10T19:05:09.717Z</time>
      </trkpt>
      <trkpt lat="47.99224" lon="-4.0248">
        <ele>19.4</ele>
        <time>2024-04-10T19:05:29.311Z</time>
      </trkpt>
      <trkpt lat="47.9923" lon="-4.0255">
        <ele>19.4</ele>
        <time>2024-04-10T19:05:36.969Z</time>
      </trkpt>
      <trkpt lat="47.99243" lon="-4.02649">
        <ele>19.2</ele>
        <time>2024-04-10T19:05:47.615Z</time>
      </trkpt>
      <trkpt lat="47.9925" lon="-4.0269">
        <ele>20</ele>
        <time>2024-04-10T19:05:53.777Z</time>
      </trkpt>
      <trkpt lat="47.99268" lon="-4.0277">
        <ele>20.4</ele>
        <time>2024-04-10T19:06:03.589Z</time>
      </trkpt>
      <trkpt lat="47.99282" lon="-4.02822">
        <ele>20.1</ele>
        <time>2024-04-10T19:06:09.237Z</time>
      </trkpt>
      <trkpt lat="47.99301" lon="-4.02904">
        <ele>19</ele>
        <time>2024-04-10T19:06:17.186Z</time>
      </trkpt>
      <trkpt lat="47.99308" lon="-4.02937">
        <ele>19.2</ele>
        <time>2024-04-10T19:06:21.273Z</time>
      </trkpt>
      <trkpt lat="47.99311" lon="-4.02961">
        <ele>19.1</ele>
        <time>2024-04-10T19:06:23.776Z</time>
      </trkpt>
      <trkpt lat="47.99314" lon="-4.02987">
        <ele>18.8</ele>
        <time>2024-04-10T19:06:26.233Z</time>
      </trkpt>
      <trkpt lat="47.99318" lon="-4.03039">
        <ele>19.5</ele>
        <time>2024-04-10T19:06:33.189Z</time>
      </trkpt>
      <trkpt lat="47.99321" lon="-4.03522">
        <ele>17.1</ele>
        <time>2024-04-10T19:07:22.111Z</time>
      </trkpt>
      <trkpt lat="47.99322" lon="-4.03546">
        <ele>17.2</ele>
        <time>2024-04-10T19:07:24.883Z</time>
      </trkpt>
      <trkpt lat="47.9932" lon="-4.03593">
        <ele>17.7</ele>
        <time>2024-04-10T19:07:30.873Z</time>
      </trkpt>
      <trkpt lat="47.99319" lon="-4.03657">
        <ele>18.3</ele>
        <time>2024-04-10T19:07:38.858Z</time>
      </trkpt>
      <trkpt lat="47.99316" lon="-4.03696">
        <ele>18.6</ele>
        <time>2024-04-10T19:07:43.626Z</time>
      </trkpt>
      <trkpt lat="47.99312" lon="-4.03781">
        <ele>18.7</ele>
        <time>2024-04-10T19:07:53.028Z</time>
      </trkpt>
      <trkpt lat="47.99314" lon="-4.03912">
        <ele>18.4</ele>
        <time>2024-04-10T19:08:06.797Z</time>
      </trkpt>
      <trkpt lat="47.99331" lon="-4.04278">
        <ele>15</ele>
        <time>2024-04-10T19:08:41.899Z</time>
      </trkpt>
      <trkpt lat="47.9934" lon="-4.04424">
        <ele>14.1</ele>
        <time>2024-04-10T19:08:56.517Z</time>
      </trkpt>
      <trkpt lat="47.99352" lon="-4.04531">
        <ele>17.2</ele>
        <time>2024-04-10T19:09:15.259Z</time>
      </trkpt>
      <trkpt lat="47.99404" lon="-4.04876">
        <ele>14.5</ele>
        <time>2024-04-10T19:09:49.824Z</time>
      </trkpt>
      <trkpt lat="47.99433" lon="-4.05071">
        <ele>14.2</ele>
        <time>2024-04-10T19:10:11.045Z</time>
      </trkpt>
      <trkpt lat="47.99437" lon="-4.05122">
        <ele>13.7</ele>
        <time>2024-04-10T19:10:15.928Z</time>
      </trkpt>
      <trkpt lat="47.99438" lon="-4.05159">
        <ele>13.8</ele>
        <time>2024-04-10T19:10:20.105Z</time>
      </trkpt>
      <trkpt lat="47.99437" lon="-4.05196">
        <ele>14.7</ele>
        <time>2024-04-10T19:10:26.028Z</time>
      </trkpt>
      <trkpt lat="47.99425" lon="-4.05293">
        <ele>15</ele>
        <time>2024-04-10T19:10:37.211Z</time>
      </trkpt>
      <trkpt lat="47.99419" lon="-4.05337">
        <ele>15.3</ele>
        <time>2024-04-10T19:10:42.586Z</time>
      </trkpt>
      <trkpt lat="47.99416" lon="-4.0538">
        <ele>15</ele>
        <time>2024-04-10T19:10:46.850Z</time>
      </trkpt>
      <trkpt lat="47.99416" lon="-4.05393">
        <ele>15</ele>
        <time>2024-04-10T19:10:48.261Z</time>
      </trkpt>
      <trkpt lat="47.99414" lon="-4.05472">
        <ele>14.8</ele>
        <time>2024-04-10T19:10:56.540Z</time>
      </trkpt>
      <trkpt lat="47.99417" lon="-4.05522">
        <ele>14</ele>
        <time>2024-04-10T19:11:00.957Z</time>
      </trkpt>
      <trkpt lat="47.99424" lon="-4.05572">
        <ele>13.5</ele>
        <time>2024-04-10T19:11:05.812Z</time>
      </trkpt>
      <trkpt lat="47.99425" lon="-4.05585">
        <ele>13.6</ele>
        <time>2024-04-10T19:11:07.401Z</time>
      </trkpt>
      <trkpt lat="47.99429" lon="-4.05652">
        <ele>14.1</ele>
        <time>2024-04-10T19:11:15.545Z</time>
      </trkpt>
      <trkpt lat="47.9944" lon="-4.05747">
        <ele>12.9</ele>
        <time>2024-04-10T19:11:24.402Z</time>
      </trkpt>
      <trkpt lat="47.99457" lon="-4.05818">
        <ele>12.9</ele>
        <time>2024-04-10T19:11:32.584Z</time>
      </trkpt>
      <trkpt lat="47.99464" lon="-4.05838">
        <ele>13</ele>
        <time>2024-04-10T19:11:35.196Z</time>
      </trkpt>
      <trkpt lat="47.99493" lon="-4.05902">
        <ele>14.6</ele>
        <time>2024-04-10T19:11:46.802Z</time>
      </trkpt>
      <trkpt lat="47.99509" lon="-4.05947">
        <ele>15.6</ele>
        <time>2024-04-10T19:11:54.314Z</time>
      </trkpt>
      <trkpt lat="47.99522" lon="-4.06004">
        <ele>17.2</ele>
        <time>2024-04-10T19:12:04.344Z</time>
      </trkpt>
      <trkpt lat="47.99527" lon="-4.06033">
        <ele>17.9</ele>
        <time>2024-04-10T19:12:09.056Z</time>
      </trkpt>
      <trkpt lat="47.99532" lon="-4.06075">
        <ele>19.2</ele>
        <time>2024-04-10T19:12:16.689Z</time>
      </trkpt>
      <trkpt lat="47.99535" lon="-4.06116">
        <ele>20.8</ele>
        <time>2024-04-10T19:12:25.345Z</time>
      </trkpt>
      <trkpt lat="47.99535" lon="-4.06125">
        <ele>20.8</ele>
        <time>2024-04-10T19:12:26.321Z</time>
        <extensions>
          <visugpx:TrkExtension xmlns:visugpx="https://www.visugpx.com/editgpx/">
            <visugpx:node>11</visugpx:node>
            </visugpx:TrkExtension>
        </extensions>
      </trkpt>
      <trkpt lat="47.99535" lon="-4.06125">
        <ele>20.8</ele>
        <time>2024-04-10T19:12:26.321Z</time>
      </trkpt>
      <trkpt lat="47.99535" lon="-4.06158">
        <ele>20.6</ele>
        <time>2024-04-10T19:12:29.615Z</time>
      </trkpt>
      <trkpt lat="47.99533" lon="-4.0619">
        <ele>21</ele>
        <time>2024-04-10T19:12:33.823Z</time>
      </trkpt>
      <trkpt lat="47.99526" lon="-4.06248">
        <ele>21.7</ele>
        <time>2024-04-10T19:12:41.469Z</time>
      </trkpt>
      <trkpt lat="47.9952" lon="-4.06279">
        <ele>22.5</ele>
        <time>2024-04-10T19:12:46.675Z</time>
      </trkpt>
      <trkpt lat="47.9951" lon="-4.06317">
        <ele>23.8</ele>
        <time>2024-04-10T19:12:54.170Z</time>
      </trkpt>
      <trkpt lat="47.99485" lon="-4.06407">
        <ele>25.4</ele>
        <time>2024-04-10T19:13:07.782Z</time>
      </trkpt>
      <trkpt lat="47.99482" lon="-4.06434">
        <ele>26.1</ele>
        <time>2024-04-10T19:13:12.259Z</time>
      </trkpt>
      <trkpt lat="47.99481" lon="-4.06449">
        <ele>26.7</ele>
        <time>2024-04-10T19:13:15.487Z</time>
      </trkpt>
      <trkpt lat="47.99473" lon="-4.06494">
        <ele>25.3</ele>
        <time>2024-04-10T19:13:18.979Z</time>
      </trkpt>
      <trkpt lat="47.99459" lon="-4.06531">
        <ele>23.6</ele>
        <time>2024-04-10T19:13:21.868Z</time>
      </trkpt>
      <trkpt lat="47.99434" lon="-4.06596">
        <ele>19</ele>
        <time>2024-04-10T19:13:26.749Z</time>
      </trkpt>
      <trkpt lat="47.99421" lon="-4.06635">
        <ele>17.5</ele>
        <time>2024-04-10T19:13:29.874Z</time>
      </trkpt>
      <trkpt lat="47.99409" lon="-4.06676">
        <ele>15.3</ele>
        <time>2024-04-10T19:13:32.788Z</time>
      </trkpt>
      <trkpt lat="47.99406" lon="-4.06691">
        <ele>15.2</ele>
        <time>2024-04-10T19:13:34.343Z</time>
      </trkpt>
      <trkpt lat="47.99405" lon="-4.06702">
        <ele>14.7</ele>
        <time>2024-04-10T19:13:35.066Z</time>
      </trkpt>
      <trkpt lat="47.99409" lon="-4.06716">
        <ele>14.1</ele>
        <time>2024-04-10T19:13:36.106Z</time>
      </trkpt>
      <trkpt lat="47.99408" lon="-4.06727">
        <ele>13.5</ele>
        <time>2024-04-10T19:13:36.829Z</time>
      </trkpt>
      <trkpt lat="47.99407" lon="-4.06731">
        <ele>13.3</ele>
        <time>2024-04-10T19:13:37.107Z</time>
      </trkpt>
      <trkpt lat="47.99411" lon="-4.0681">
        <ele>8.3</ele>
        <time>2024-04-10T19:13:42.265Z</time>
      </trkpt>
      <trkpt lat="47.99413" lon="-4.06841">
        <ele>8.2</ele>
        <time>2024-04-10T19:13:45.496Z</time>
      </trkpt>
      <trkpt lat="47.99433" lon="-4.07084">
        <ele>8.4</ele>
        <time>2024-04-10T19:14:12.373Z</time>
      </trkpt>
      <trkpt lat="47.99437" lon="-4.0711">
        <ele>8.3</ele>
        <time>2024-04-10T19:14:15.120Z</time>
      </trkpt>
      <trkpt lat="47.99443" lon="-4.07136">
        <ele>8.1</ele>
        <time>2024-04-10T19:14:17.821Z</time>
      </trkpt>
      <trkpt lat="47.99455" lon="-4.07177">
        <ele>9</ele>
        <time>2024-04-10T19:14:24.474Z</time>
      </trkpt>
      <trkpt lat="47.99475" lon="-4.07225">
        <ele>9</ele>
        <time>2024-04-10T19:14:30.609Z</time>
      </trkpt>
      <trkpt lat="47.9948" lon="-4.07233">
        <ele>9</ele>
        <time>2024-04-10T19:14:31.797Z</time>
      </trkpt>
      <trkpt lat="47.99488" lon="-4.07241">
        <ele>9</ele>
        <time>2024-04-10T19:14:33.358Z</time>
      </trkpt>
      <trkpt lat="47.995" lon="-4.07244">
        <ele>9</ele>
        <time>2024-04-10T19:14:35.330Z</time>
      </trkpt>
      <trkpt lat="47.99509" lon="-4.07251">
        <ele>9</ele>
        <time>2024-04-10T19:14:36.975Z</time>
      </trkpt>
      <trkpt lat="47.99516" lon="-4.07265">
        <ele>9.2</ele>
        <time>2024-04-10T19:14:39.227Z</time>
      </trkpt>
      <trkpt lat="47.99519" lon="-4.07275">
        <ele>9.3</ele>
        <time>2024-04-10T19:14:40.589Z</time>
      </trkpt>
      <trkpt lat="47.99519" lon="-4.07295">
        <ele>9.7</ele>
        <time>2024-04-10T19:14:43.556Z</time>
      </trkpt>
      <trkpt lat="47.99514" lon="-4.07311">
        <ele>9.9</ele>
        <time>2024-04-10T19:14:45.827Z</time>
      </trkpt>
      <trkpt lat="47.99511" lon="-4.07317">
        <ele>9.8</ele>
        <time>2024-04-10T19:14:46.508Z</time>
      </trkpt>
      <trkpt lat="47.99508" lon="-4.07344">
        <ele>9.4</ele>
        <time>2024-04-10T19:14:48.955Z</time>
      </trkpt>
      <trkpt lat="47.99506" lon="-4.07367">
        <ele>9</ele>
        <time>2024-04-10T19:14:50.964Z</time>
      </trkpt>
      <trkpt lat="47.99511" lon="-4.07461">
        <ele>8</ele>
        <time>2024-04-10T19:14:59.832Z</time>
      </trkpt>
      <trkpt lat="47.99517" lon="-4.07523">
        <ele>8</ele>
        <time>2024-04-10T19:15:06.629Z</time>
      </trkpt>
      <trkpt lat="47.99519" lon="-4.07533">
        <ele>8</ele>
        <time>2024-04-10T19:15:07.762Z</time>
      </trkpt>
      <trkpt lat="47.99523" lon="-4.07542">
        <ele>8</ele>
        <time>2024-04-10T19:15:08.934Z</time>
      </trkpt>
      <trkpt lat="47.99528" lon="-4.07547">
        <ele>8</ele>
        <time>2024-04-10T19:15:09.909Z</time>
      </trkpt>
      <trkpt lat="47.99535" lon="-4.07549">
        <ele>8.3</ele>
        <time>2024-04-10T19:15:11.736Z</time>
      </trkpt>
      <trkpt lat="47.99584" lon="-4.07534">
        <ele>8.8</ele>
        <time>2024-04-10T19:15:20.682Z</time>
      </trkpt>
      <trkpt lat="47.99592" lon="-4.07537">
        <ele>8.8</ele>
        <time>2024-04-10T19:15:22.020Z</time>
      </trkpt>
      <trkpt lat="47.99598" lon="-4.07545">
        <ele>8.7</ele>
        <time>2024-04-10T19:15:23.184Z</time>
      </trkpt>
      <trkpt lat="47.996" lon="-4.07552">
        <ele>8.7</ele>
        <time>2024-04-10T19:15:24.010Z</time>
      </trkpt>
      <trkpt lat="47.99601" lon="-4.07565">
        <ele>8.5</ele>
        <time>2024-04-10T19:15:25.170Z</time>
      </trkpt>
      <trkpt lat="47.996" lon="-4.07675">
        <ele>7.6</ele>
        <time>2024-04-10T19:15:35.845Z</time>
      </trkpt>
      <trkpt lat="47.99599" lon="-4.08087">
        <ele>7</ele>
        <time>2024-04-10T19:16:19.640Z</time>
      </trkpt>
      <trkpt lat="47.99599" lon="-4.08181">
        <ele>6.6</ele>
        <time>2024-04-10T19:16:29.253Z</time>
        <extensions>
          <visugpx:TrkExtension xmlns:visugpx="https://www.visugpx.com/editgpx/">
            <visugpx:node>12</visugpx:node>
            </visugpx:TrkExtension>
        </extensions>
      </trkpt>
      <trkpt lat="47.99599" lon="-4.08189">
        <ele>6.6</ele>
        <time>2024-04-10T19:16:30.121Z</time>
      </trkpt>
      <trkpt lat="47.99602" lon="-4.08215">
        <ele>6.7</ele>
        <time>2024-04-10T19:16:33.145Z</time>
      </trkpt>
      <trkpt lat="47.99605" lon="-4.08223">
        <ele>6.8</ele>
        <time>2024-04-10T19:16:34.316Z</time>
      </trkpt>
      <trkpt lat="47.99609" lon="-4.08232">
        <ele>6.6</ele>
        <time>2024-04-10T19:16:35.238Z</time>
      </trkpt>
      <trkpt lat="47.99609" lon="-4.08236">
        <ele>6.5</ele>
        <time>2024-04-10T19:16:35.555Z</time>
      </trkpt>
      <trkpt lat="47.99607" lon="-4.08243">
        <ele>6.2</ele>
        <time>2024-04-10T19:16:36.075Z</time>
      </trkpt>
      <trkpt lat="47.99605" lon="-4.08245">
        <ele>6.1</ele>
        <time>2024-04-10T19:16:36.352Z</time>
      </trkpt>
      <trkpt lat="47.99598" lon="-4.08247">
        <ele>6.1</ele>
        <time>2024-04-10T19:16:37.507Z</time>
      </trkpt>
      <trkpt lat="47.99594" lon="-4.0825">
        <ele>6</ele>
        <time>2024-04-10T19:16:38.103Z</time>
      </trkpt>
      <trkpt lat="47.99587" lon="-4.08262">
        <ele>6.1</ele>
        <time>2024-04-10T19:16:39.997Z</time>
      </trkpt>
      <trkpt lat="47.99567" lon="-4.08321">
        <ele>6</ele>
        <time>2024-04-10T19:16:47.021Z</time>
      </trkpt>
      <trkpt lat="47.99558" lon="-4.08364">
        <ele>6</ele>
        <time>2024-04-10T19:16:51.910Z</time>
      </trkpt>
      <trkpt lat="47.99553" lon="-4.08417">
        <ele>6</ele>
        <time>2024-04-10T19:16:57.718Z</time>
      </trkpt>
      <trkpt lat="47.99551" lon="-4.08432">
        <ele>6</ele>
        <time>2024-04-10T19:16:59.377Z</time>
      </trkpt>
      <trkpt lat="47.9955" lon="-4.08457">
        <ele>5.6</ele>
        <time>2024-04-10T19:17:01.580Z</time>
      </trkpt>
      <trkpt lat="47.99551" lon="-4.08486">
        <ele>5.2</ele>
        <time>2024-04-10T19:17:04.204Z</time>
      </trkpt>
      <trkpt lat="47.99548" lon="-4.08515">
        <ele>5.7</ele>
        <time>2024-04-10T19:17:08.345Z</time>
      </trkpt>
      <trkpt lat="47.99547" lon="-4.08521">
        <ele>5.8</ele>
        <time>2024-04-10T19:17:09.205Z</time>
      </trkpt>
      <trkpt lat="47.99545" lon="-4.08548">
        <ele>5.5</ele>
        <time>2024-04-10T19:17:11.745Z</time>
      </trkpt>
      <trkpt lat="47.99543" lon="-4.08615">
        <ele>5.5</ele>
        <time>2024-04-10T19:17:19.023Z</time>
      </trkpt>
      <trkpt lat="47.99549" lon="-4.08691">
        <ele>5.2</ele>
        <time>2024-04-10T19:17:26.885Z</time>
      </trkpt>
      <trkpt lat="47.9955" lon="-4.08733">
        <ele>5</ele>
        <time>2024-04-10T19:17:31.153Z</time>
      </trkpt>
      <trkpt lat="47.99549" lon="-4.08787">
        <ele>4.8</ele>
        <time>2024-04-10T19:17:36.719Z</time>
      </trkpt>
      <trkpt lat="47.99559" lon="-4.08821">
        <ele>4.5</ele>
        <time>2024-04-10T19:17:40.328Z</time>
      </trkpt>
      <trkpt lat="47.99576" lon="-4.08854">
        <ele>4.7</ele>
        <time>2024-04-10T19:17:45.174Z</time>
      </trkpt>
      <trkpt lat="47.99585" lon="-4.08885">
        <ele>4.8</ele>
        <time>2024-04-10T19:17:49.000Z</time>
      </trkpt>
      <trkpt lat="47.99588" lon="-4.08912">
        <ele>6</ele>
        <time>2024-04-10T19:17:55.352Z</time>
      </trkpt>
      <trkpt lat="47.99591" lon="-4.09005">
        <ele>6.6</ele>
        <time>2024-04-10T19:18:06.455Z</time>
      </trkpt>
      <trkpt lat="47.99589" lon="-4.09138">
        <ele>6.6</ele>
        <time>2024-04-10T19:18:20.890Z</time>
      </trkpt>
      <trkpt lat="47.99598" lon="-4.09306">
        <ele>6.7</ele>
        <time>2024-04-10T19:18:39.332Z</time>
      </trkpt>
      <trkpt lat="47.99603" lon="-4.0937">
        <ele>6.5</ele>
        <time>2024-04-10T19:18:46.027Z</time>
      </trkpt>
      <trkpt lat="47.99618" lon="-4.09554">
        <ele>9.2</ele>
        <time>2024-04-10T19:19:11.140Z</time>
      </trkpt>
      <trkpt lat="47.99618" lon="-4.09587">
        <ele>9.6</ele>
        <time>2024-04-10T19:19:15.438Z</time>
      </trkpt>
      <trkpt lat="47.99616" lon="-4.09623">
        <ele>8.2</ele>
        <time>2024-04-10T19:19:17.922Z</time>
      </trkpt>
      <trkpt lat="47.99616" lon="-4.09625">
        <ele>8.2</ele>
        <time>2024-04-10T19:19:18.139Z</time>
      </trkpt>
      <trkpt lat="47.99612" lon="-4.09677">
        <ele>6.2</ele>
        <time>2024-04-10T19:19:21.757Z</time>
      </trkpt>
      <trkpt lat="47.99607" lon="-4.097">
        <ele>5.9</ele>
        <time>2024-04-10T19:19:23.980Z</time>
      </trkpt>
      <trkpt lat="47.99605" lon="-4.09706">
        <ele>5.8</ele>
        <time>2024-04-10T19:19:24.577Z</time>
      </trkpt>
      <trkpt lat="47.99598" lon="-4.09705">
        <ele>5.5</ele>
        <time>2024-04-10T19:19:25.378Z</time>
      </trkpt>
      <trkpt lat="47.99559" lon="-4.09686">
        <ele>5</ele>
        <time>2024-04-10T19:19:31.328Z</time>
      </trkpt>
      <trkpt lat="47.99552" lon="-4.0968">
        <ele>4.9</ele>
        <time>2024-04-10T19:19:32.496Z</time>
      </trkpt>
      <trkpt lat="47.99542" lon="-4.09787">
        <ele>4</ele>
        <time>2024-04-10T19:19:42.960Z</time>
      </trkpt>
      <trkpt lat="47.99539" lon="-4.0982">
        <ele>3.5</ele>
        <time>2024-04-10T19:19:45.923Z</time>
        <extensions>
          <visugpx:TrkExtension xmlns:visugpx="https://www.visugpx.com/editgpx/">
            <visugpx:node>13</visugpx:node>
            </visugpx:TrkExtension>
        </extensions>
      </trkpt>
      <trkpt lat="47.99536" lon="-4.0985">
        <ele>3.3</ele>
        <time>2024-04-10T19:19:48.929Z</time>
      </trkpt>
      <trkpt lat="47.99535" lon="-4.09862">
        <ele>3.5</ele>
        <time>2024-04-10T19:19:50.622Z</time>
      </trkpt>
      <trkpt lat="47.99531" lon="-4.09898">
        <ele>4.1</ele>
        <time>2024-04-10T19:19:55.721Z</time>
      </trkpt>
      <trkpt lat="47.9953" lon="-4.09913">
        <ele>4.1</ele>
        <time>2024-04-10T19:19:57.356Z</time>
      </trkpt>
      <trkpt lat="47.99527" lon="-4.09944">
        <ele>4</ele>
        <time>2024-04-10T19:20:00.607Z</time>
      </trkpt>
      <trkpt lat="47.99522" lon="-4.09998">
        <ele>4</ele>
        <time>2024-04-10T19:20:06.522Z</time>
      </trkpt>
      <trkpt lat="47.9952" lon="-4.10021">
        <ele>4.3</ele>
        <time>2024-04-10T19:20:09.582Z</time>
      </trkpt>
      <trkpt lat="47.99513" lon="-4.10096">
        <ele>3.7</ele>
        <time>2024-04-10T19:20:16.955Z</time>
      </trkpt>
      <trkpt lat="47.99512" lon="-4.10105">
        <ele>3.8</ele>
        <time>2024-04-10T19:20:18.122Z</time>
      </trkpt>
      <trkpt lat="47.99511" lon="-4.10116">
        <ele>3.7</ele>
        <time>2024-04-10T19:20:19.188Z</time>
      </trkpt>
      <trkpt lat="47.99509" lon="-4.10139">
        <ele>3</ele>
        <time>2024-04-10T19:20:20.925Z</time>
      </trkpt>
      <trkpt lat="47.99508" lon="-4.10147">
        <ele>3.1</ele>
        <time>2024-04-10T19:20:21.988Z</time>
      </trkpt>
      <trkpt lat="47.99507" lon="-4.1016">
        <ele>3.3</ele>
        <time>2024-04-10T19:20:23.782Z</time>
      </trkpt>
      <trkpt lat="47.99505" lon="-4.10178">
        <ele>3.7</ele>
        <time>2024-04-10T19:20:26.581Z</time>
      </trkpt>
      <trkpt lat="47.99505" lon="-4.10183">
        <ele>3.8</ele>
        <time>2024-04-10T19:20:27.322Z</time>
      </trkpt>
      <trkpt lat="47.99504" lon="-4.10191">
        <ele>4</ele>
        <time>2024-04-10T19:20:28.630Z</time>
      </trkpt>
      <trkpt lat="47.99503" lon="-4.10197">
        <ele>4.1</ele>
        <time>2024-04-10T19:20:29.490Z</time>
      </trkpt>
      <trkpt lat="47.99497" lon="-4.10257">
        <ele>3.8</ele>
        <time>2024-04-10T19:20:35.637Z</time>
      </trkpt>
      <trkpt lat="47.99496" lon="-4.10263">
        <ele>3.8</ele>
        <time>2024-04-10T19:20:36.308Z</time>
      </trkpt>
      <trkpt lat="47.99479" lon="-4.10344">
        <ele>3.2</ele>
        <time>2024-04-10T19:20:44.667Z</time>
      </trkpt>
      <trkpt lat="47.99458" lon="-4.10437">
        <ele>3.8</ele>
        <time>2024-04-10T19:20:56.314Z</time>
      </trkpt>
      <trkpt lat="47.9945" lon="-4.10469">
        <ele>3.9</ele>
        <time>2024-04-10T19:21:00.180Z</time>
      </trkpt>
      <trkpt lat="47.99427" lon="-4.10557">
        <ele>4</ele>
        <time>2024-04-10T19:21:10.588Z</time>
      </trkpt>
      <trkpt lat="47.99419" lon="-4.10587">
        <ele>4</ele>
        <time>2024-04-10T19:21:14.092Z</time>
      </trkpt>
      <trkpt lat="47.99423" lon="-4.10592">
        <ele>4</ele>
        <time>2024-04-10T19:21:14.937Z</time>
        <extensions>
          <visugpx:TrkExtension xmlns:visugpx="https://www.visugpx.com/editgpx/">
            <visugpx:node>14</visugpx:node>
            </visugpx:TrkExtension>
        </extensions>
      </trkpt>
      <trkpt lat="47.99423" lon="-4.10592">
        <ele>4</ele>
        <time>2024-04-10T19:21:14.937Z</time>
      </trkpt>
      <trkpt lat="47.99424" lon="-4.10594">
        <ele>4</ele>
        <time>2024-04-10T19:21:15.208Z</time>
      </trkpt>
      <trkpt lat="47.99444" lon="-4.106">
        <ele>4</ele>
        <time>2024-04-10T19:21:18.516Z</time>
      </trkpt>
      <trkpt lat="47.99446" lon="-4.106">
        <ele>4</ele>
        <time>2024-04-10T19:21:18.840Z</time>
      </trkpt>
      <trkpt lat="47.99484" lon="-4.10611">
        <ele>4</ele>
        <time>2024-04-10T19:21:25.116Z</time>
      </trkpt>
      <trkpt lat="47.99509" lon="-4.10614">
        <ele>3.7</ele>
        <time>2024-04-10T19:21:28.761Z</time>
      </trkpt>
      <trkpt lat="47.99527" lon="-4.10616">
        <ele>3.2</ele>
        <time>2024-04-10T19:21:31.062Z</time>
      </trkpt>
      <trkpt lat="47.9955" lon="-4.1062">
        <ele>3.3</ele>
        <time>2024-04-10T19:21:34.976Z</time>
      </trkpt>
      <trkpt lat="47.99563" lon="-4.10625">
        <ele>3.6</ele>
        <time>2024-04-10T19:21:37.711Z</time>
      </trkpt>
      <trkpt lat="47.9957" lon="-4.10628">
        <ele>3.8</ele>
        <time>2024-04-10T19:21:39.282Z</time>
      </trkpt>
      <trkpt lat="47.99589" lon="-4.1063">
        <ele>4</ele>
        <time>2024-04-10T19:21:42.706Z</time>
      </trkpt>
      <trkpt lat="47.9959" lon="-4.10631">
        <ele>4</ele>
        <time>2024-04-10T19:21:42.902Z</time>
        <extensions>
          <visugpx:TrkExtension xmlns:visugpx="https://www.visugpx.com/editgpx/">
            <visugpx:node>15</visugpx:node>
            </visugpx:TrkExtension>
        </extensions>
      </trkpt>
      <trkpt lat="47.99611" lon="-4.10636">
        <ele>4</ele>
        <time>2024-04-10T19:21:46.349Z</time>
      </trkpt>
      <trkpt lat="47.99627" lon="-4.10637">
        <ele>4</ele>
        <time>2024-04-10T19:21:48.946Z</time>
      </trkpt>
      <trkpt lat="47.99637" lon="-4.10691">
        <ele>5.1</ele>
        <time>2024-04-10T19:21:57.207Z</time>
      </trkpt>
      <trkpt lat="47.99639" lon="-4.10711">
        <ele>5</ele>
        <time>2024-04-10T19:21:59.256Z</time>
      </trkpt>
      <trkpt lat="47.99642" lon="-4.10732">
        <ele>5.3</ele>
        <time>2024-04-10T19:22:02.137Z</time>
      </trkpt>
      <trkpt lat="47.9969" lon="-4.10736">
        <ele>5</ele>
        <time>2024-04-10T19:22:09.492Z</time>
      </trkpt>
      <trkpt lat="47.99697" lon="-4.10744">
        <ele>5</ele>
        <time>2024-04-10T19:22:10.920Z</time>
      </trkpt>
      <trkpt lat="47.99708" lon="-4.10766">
        <ele>5.3</ele>
        <time>2024-04-10T19:22:14.430Z</time>
      </trkpt>
      <trkpt lat="47.9971" lon="-4.1077">
        <ele>5.3</ele>
        <time>2024-04-10T19:22:14.972Z</time>
      </trkpt>
      <trkpt lat="47.99722" lon="-4.10785">
        <ele>5</ele>
        <time>2024-04-10T19:22:17.109Z</time>
      </trkpt>
      <trkpt lat="47.99731" lon="-4.10793">
        <ele>5</ele>
        <time>2024-04-10T19:22:18.807Z</time>
        <extensions>
          <visugpx:TrkExtension xmlns:visugpx="https://www.visugpx.com/editgpx/">
            <visugpx:node>16</visugpx:node>
            </visugpx:TrkExtension>
        </extensions>
      </trkpt>
      <trkpt lat="47.99752" lon="-4.10814">
        <ele>5</ele>
        <time>2024-04-10T19:22:22.904Z</time>
      </trkpt>
      <trkpt lat="47.99757" lon="-4.10817">
        <ele>5</ele>
        <time>2024-04-10T19:22:23.778Z</time>
      </trkpt>
      <trkpt lat="47.99803" lon="-4.10811">
        <ele>4.3</ele>
        <time>2024-04-10T19:22:30.305Z</time>
      </trkpt>
      <trkpt lat="47.99816" lon="-4.10819">
        <ele>4.7</ele>
        <time>2024-04-10T19:22:33.371Z</time>
      </trkpt>
      <trkpt lat="47.99847" lon="-4.10842">
        <ele>5</ele>
        <time>2024-04-10T19:22:39.480Z</time>
      </trkpt>
      <trkpt lat="47.99923" lon="-4.109">
        <ele>5</ele>
        <time>2024-04-10T19:22:53.316Z</time>
      </trkpt>
      <trkpt lat="47.99926" lon="-4.10902">
        <ele>5</ele>
        <time>2024-04-10T19:22:53.849Z</time>
      </trkpt>
      <trkpt lat="47.99942" lon="-4.10915">
        <ele>5</ele>
        <time>2024-04-10T19:22:56.802Z</time>
      </trkpt>
      <trkpt lat="48.00013" lon="-4.10969">
        <ele>5.5</ele>
        <time>2024-04-10T19:23:10.531Z</time>
      </trkpt>
      <trkpt lat="48.00018" lon="-4.10973">
        <ele>5.4</ele>
        <time>2024-04-10T19:23:11.315Z</time>
      </trkpt>
      <trkpt lat="48.00064" lon="-4.11007">
        <ele>8.2</ele>
        <time>2024-04-10T19:23:26.708Z</time>
      </trkpt>
      <trkpt lat="48.00089" lon="-4.1104">
        <ele>6.4</ele>
        <time>2024-04-10T19:23:30.224Z</time>
      </trkpt>
      <trkpt lat="48.00109" lon="-4.11071">
        <ele>5.1</ele>
        <time>2024-04-10T19:23:33.450Z</time>
      </trkpt>
      <trkpt lat="48.00119" lon="-4.11075">
        <ele>5.3</ele>
        <time>2024-04-10T19:23:35.491Z</time>
      </trkpt>
      <trkpt lat="48.00123" lon="-4.11072">
        <ele>5.4</ele>
        <time>2024-04-10T19:23:36.403Z</time>
      </trkpt>
      <trkpt lat="48.00128" lon="-4.11073">
        <ele>5.6</ele>
        <time>2024-04-10T19:23:37.658Z</time>
      </trkpt>
      <trkpt lat="48.00131" lon="-4.11077">
        <ele>5.7</ele>
        <time>2024-04-10T19:23:38.500Z</time>
      </trkpt>
      <trkpt lat="48.00131" lon="-4.1108">
        <ele>5.7</ele>
        <time>2024-04-10T19:23:38.825Z</time>
      </trkpt>
      <trkpt lat="48.0013" lon="-4.11088">
        <ele>5.6</ele>
        <time>2024-04-10T19:23:39.575Z</time>
      </trkpt>
      <trkpt lat="48.00131" lon="-4.11096">
        <ele>5.5</ele>
        <time>2024-04-10T19:23:40.324Z</time>
      </trkpt>
      <trkpt lat="48.00135" lon="-4.1111">
        <ele>5.2</ele>
        <time>2024-04-10T19:23:41.604Z</time>
      </trkpt>
      <trkpt lat="48.00143" lon="-4.11124">
        <ele>5.5</ele>
        <time>2024-04-10T19:23:44.170Z</time>
      </trkpt>
      <trkpt lat="48.00175" lon="-4.11168">
        <ele>6</ele>
        <time>2024-04-10T19:23:52.068Z</time>
      </trkpt>
      <trkpt lat="48.00192" lon="-4.11195">
        <ele>5.1</ele>
        <time>2024-04-10T19:23:55.028Z</time>
      </trkpt>
      <trkpt lat="48.00201" lon="-4.11216">
        <ele>5.8</ele>
        <time>2024-04-10T19:23:59.297Z</time>
      </trkpt>
      <trkpt lat="48.00206" lon="-4.11231">
        <ele>6</ele>
        <time>2024-04-10T19:24:01.473Z</time>
      </trkpt>
      <trkpt lat="48.0021" lon="-4.11271">
        <ele>6</ele>
        <time>2024-04-10T19:24:05.861Z</time>
      </trkpt>
      <trkpt lat="48.00213" lon="-4.11313">
        <ele>6.3</ele>
        <time>2024-04-10T19:24:10.948Z</time>
      </trkpt>
      <trkpt lat="48.00222" lon="-4.11365">
        <ele>5.2</ele>
        <time>2024-04-10T19:24:15.426Z</time>
      </trkpt>
      <trkpt lat="48.00223" lon="-4.11372">
        <ele>5.4</ele>
        <time>2024-04-10T19:24:16.648Z</time>
      </trkpt>
      <trkpt lat="48.00232" lon="-4.11389">
        <ele>5.6</ele>
        <time>2024-04-10T19:24:19.345Z</time>
      </trkpt>
      <trkpt lat="48.00235" lon="-4.1139">
        <ele>5.5</ele>
        <time>2024-04-10T19:24:19.723Z</time>
      </trkpt>
      <trkpt lat="48.00237" lon="-4.11393">
        <ele>5.5</ele>
        <time>2024-04-10T19:24:20.182Z</time>
      </trkpt>
      <trkpt lat="48.0024" lon="-4.11404">
        <ele>5.4</ele>
        <time>2024-04-10T19:24:21.331Z</time>
      </trkpt>
      <trkpt lat="48.00246" lon="-4.11417">
        <ele>5.1</ele>
        <time>2024-04-10T19:24:22.670Z</time>
      </trkpt>
      <trkpt lat="48.00254" lon="-4.11426">
        <ele>5</ele>
        <time>2024-04-10T19:24:24.151Z</time>
      </trkpt>
      <trkpt lat="48.0027" lon="-4.11438">
        <ele>5</ele>
        <time>2024-04-10T19:24:27.054Z</time>
      </trkpt>
      <trkpt lat="48.00294" lon="-4.1146">
        <ele>4.7</ele>
        <time>2024-04-10T19:24:31.194Z</time>
      </trkpt>
      <trkpt lat="48.003" lon="-4.1147">
        <ele>4.9</ele>
        <time>2024-04-10T19:24:33.023Z</time>
      </trkpt>
      <trkpt lat="48.00304" lon="-4.11477">
        <ele>5</ele>
        <time>2024-04-10T19:24:34.198Z</time>
      </trkpt>
      <trkpt lat="48.00343" lon="-4.1157">
        <ele>5.8</ele>
        <time>2024-04-10T19:24:47.454Z</time>
      </trkpt>
      <trkpt lat="48.00343" lon="-4.11572">
        <ele>5.9</ele>
        <time>2024-04-10T19:24:47.980Z</time>
      </trkpt>
      <trkpt lat="48.00348" lon="-4.1158">
        <ele>5.9</ele>
        <time>2024-04-10T19:24:49.168Z</time>
      </trkpt>
      <trkpt lat="48.00355" lon="-4.11594">
        <ele>6</ele>
        <time>2024-04-10T19:24:51.229Z</time>
      </trkpt>
      <trkpt lat="48.00359" lon="-4.11607">
        <ele>6</ele>
        <time>2024-04-10T19:24:52.782Z</time>
      </trkpt>
      <trkpt lat="48.00361" lon="-4.11614">
        <ele>6</ele>
        <time>2024-04-10T19:24:53.607Z</time>
      </trkpt>
      <trkpt lat="48.00362" lon="-4.11617">
        <ele>6</ele>
        <time>2024-04-10T19:24:53.971Z</time>
      </trkpt>
      <trkpt lat="48.00384" lon="-4.11673">
        <ele>7</ele>
        <time>2024-04-10T19:25:02.889Z</time>
      </trkpt>
      <trkpt lat="48.00393" lon="-4.1169">
        <ele>7</ele>
        <time>2024-04-10T19:25:05.241Z</time>
      </trkpt>
      <trkpt lat="48.00418" lon="-4.11721">
        <ele>8</ele>
        <time>2024-04-10T19:25:12.518Z</time>
      </trkpt>
      <trkpt lat="48.00422" lon="-4.11723">
        <ele>8</ele>
        <time>2024-04-10T19:25:13.202Z</time>
      </trkpt>
      <trkpt lat="48.00423" lon="-4.11727">
        <ele>8.2</ele>
        <time>2024-04-10T19:25:14.254Z</time>
      </trkpt>
      <trkpt lat="48.00423" lon="-4.11729">
        <ele>8.2</ele>
        <time>2024-04-10T19:25:14.471Z</time>
      </trkpt>
      <trkpt lat="48.00459" lon="-4.11758">
        <ele>9.1</ele>
        <time>2024-04-10T19:25:22.773Z</time>
      </trkpt>
      <trkpt lat="48.00469" lon="-4.11731">
        <ele>8</ele>
        <time>2024-04-10T19:25:24.960Z</time>
      </trkpt>
      <trkpt lat="48.00478" lon="-4.11721">
        <ele>7.7</ele>
        <time>2024-04-10T19:25:26.400Z</time>
      </trkpt>
      <trkpt lat="48.00484" lon="-4.11719">
        <ele>7.5</ele>
        <time>2024-04-10T19:25:27.154Z</time>
      </trkpt>
      <trkpt lat="48.00511" lon="-4.11712">
        <ele>6.6</ele>
        <time>2024-04-10T19:25:30.511Z</time>
      </trkpt>
      <trkpt lat="48.00537" lon="-4.117">
        <ele>6.5</ele>
        <time>2024-04-10T19:25:34.773Z</time>
      </trkpt>
      <trkpt lat="48.00596" lon="-4.11658">
        <ele>6.3</ele>
        <time>2024-04-10T19:25:45.068Z</time>
      </trkpt>
      <trkpt lat="48.00613" lon="-4.11648">
        <ele>6.3</ele>
        <time>2024-04-10T19:25:48.030Z</time>
      </trkpt>
      <trkpt lat="48.00619" lon="-4.11646">
        <ele>6.2</ele>
        <time>2024-04-10T19:25:48.891Z</time>
      </trkpt>
      <trkpt lat="48.00624" lon="-4.11637">
        <ele>6</ele>
        <time>2024-04-10T19:25:49.906Z</time>
      </trkpt>
      <trkpt lat="48.0063" lon="-4.11634">
        <ele>6</ele>
        <time>2024-04-10T19:25:50.932Z</time>
      </trkpt>
      <trkpt lat="48.00636" lon="-4.11632">
        <ele>6</ele>
        <time>2024-04-10T19:25:51.929Z</time>
      </trkpt>
      <trkpt lat="48.00643" lon="-4.11635">
        <ele>6.1</ele>
        <time>2024-04-10T19:25:53.282Z</time>
      </trkpt>
      <trkpt lat="48.00649" lon="-4.11631">
        <ele>6.3</ele>
        <time>2024-04-10T19:25:54.748Z</time>
      </trkpt>
      <trkpt lat="48.00657" lon="-4.11625">
        <ele>6.3</ele>
        <time>2024-04-10T19:25:56.199Z</time>
      </trkpt>
      <trkpt lat="48.00683" lon="-4.11606">
        <ele>6.5</ele>
        <time>2024-04-10T19:26:01.218Z</time>
      </trkpt>
      <trkpt lat="48.00698" lon="-4.11599">
        <ele>6.6</ele>
        <time>2024-04-10T19:26:03.928Z</time>
      </trkpt>
      <trkpt lat="48.0071" lon="-4.11595">
        <ele>6.4</ele>
        <time>2024-04-10T19:26:05.650Z</time>
      </trkpt>
      <trkpt lat="48.00708" lon="-4.11582">
        <ele>6</ele>
        <time>2024-04-10T19:26:06.651Z</time>
      </trkpt>
      <trkpt lat="48.00704" lon="-4.11583">
        <ele>6</ele>
        <time>2024-04-10T19:26:07.309Z</time>
        <extensions>
          <visugpx:TrkExtension xmlns:visugpx="https://www.visugpx.com/editgpx/">
            <visugpx:node>17</visugpx:node>
            </visugpx:TrkExtension>
        </extensions>
      </trkpt>
    </trkseg>
  </trk>
</gpx>